[[{"header":{"parameterUnit":"m.s-1","parameterCategory":1,"la1":31.0,"la2":29.5877,"lo1":-88.7671,"lo2":-86.6584,"dy":0.0162,"dx":0.0185,"nx":115,"ny":88,"refTime":"2026-04-05T00:00:00:Z","depth":0,"parameterNumber":2,"parameterNumberName":"U-component_of_WINDS"},"data":[0.0,0.0,0.0,0.0,0.0,0.0,0.0,0.0,0.0,0.0,0.0,0.0,0.0,0.0,0.0,0.0,0.0,0.0,0.0,0.0,0.0,0.0,0.0,0.0,0.0,0.0,0.0,0.0,0.0,0.0,0.0,0.0,0.0,0.0,0.0,0.0,0.0,0.0,0.0,0.0,0.0,0.0,0.0,0.0,0.0,0.0,0.0,0.0,0.0,0.0,0.0,0.0,0.0,0.0,0.0,0.0,0.0,0.0,0.0,0.0,0.0,0.0,0.0,0.0,0.0,0.0,0.0,0.0,0.0,0.0,0.0,0.0,0.0,0.0,0.0,0.0,0.0,0.0,0.0,0.0,0.0,0.0,0.0,0.0,0.0,0.0,0.0,0.0,0.0,0.0,0.0,0.0,0.0,0.0,0.0,0.0,0.0,0.0,0.0,0.0,0.0,0.0,0.0,0.0,0.0,0.0,0.0,0.0,0.0,0.0,0.0,0.0,0.0,0.0,0.0,0.0,0.0,0.0,0.0,0.0,0.0,0.0,0.0,0.0,0.0,0.0,0.0,0.0,0.0,0.0,0.0,0.0,0.0,0.0,0.0,0.0,0.0,0.0,0.0,0.0,0.0,0.0,0.0,0.0,0.0,0.0,0.0,0.0,0.0,0.0,0.0,0.0,0.0,0.0,0.0,0.0,0.0,0.0,0.0,0.0,0.0,0.0,0.0,0.0,0.0,0.0,0.0,0.0,0.0,0.0,0.0,0.0,0.0,0.0,0.0,0.0,0.0,0.0,0.0,0.0,0.0,0.0,0.0,0.0,0.0,0.0,0.0,0.0,0.0,0.0,0.0,0.0,0.0,0.0,0.0,0.0,0.0,0.0,0.0,0.0,0.0,0.0,0.0,0.0,0.0,0.0,0.0,0.0,0.0,0.0,0.0,0.0,0.0,0.0,0.0,0.0,0.0,0.0,0.0,0.0,0.0,0.0,0.0,0.0,0.0,0.0,0.0,0.0,0.0,0.0,0.0,0.0,0.0,0.0,0.0,0.0,0.0,0.0,0.0,0.0,0.0,0.0,0.0,0.0,0.0,0.0,0.0,0.0,0.0,0.0,0.0,0.0,0.0,0.0,0.0,0.0,0.0,0.0,0.0,0.0,0.0,0.0,0.0,0.0,0.0,0.0,0.0,0.0,0.0,0.0,0.0,0.0,0.0,0.0,0.0,0.0,0.0,0.0,0.0,0.0,0.0,0.0,0.0,0.0,0.0,0.0,0.0,0.0,0.0,0.0,0.0,0.0,0.0,0.0,0.0,0.0,0.0,0.0,0.0,0.0,0.0,0.0,0.0,0.0,0.0,0.0,0.0,0.0,0.0,0.0,0.0,0.0,0.0,0.0,0.0,0.0,0.0,0.0,0.0,0.0,0.0,0.0,0.0,0.0,0.0,0.0,0.0,0.0,0.0,0.0,0.0,0.0,0.0,0.0,0.0,0.0,0.0,0.0,0.0,0.0,0.0,0.0,0.0,0.0,0.0,0.0,0.0,0.0,0.0,0.0,0.0,0.0,0.0,0.0,0.0,0.0,0.0,0.0,0.0,0.0,0.0,0.0,0.0,0.0,0.0,0.0,0.0,0.0,0.0,0.0,0.0,0.0,0.0,0.0,0.0,0.0,0.0,0.0,0.0,0.0,0.0,0.0,0.0,0.0,0.0,0.0,0.0,0.0,0.0,0.0,0.0,0.0,0.0,0.0,0.0,0.0,0.0,0.0,0.0,0.0,0.0,0.0,0.0,0.0,0.0,0.0,0.0,0.0,0.0,0.0,0.0,0.0,0.0,0.0,0.0,0.0,0.0,0.0,0.0,0.0,0.0,0.0,0.0,0.0,0.0,0.0,0.0,0.0,0.0,0.0,0.0,0.0,0.0,0.0,0.0,0.0,0.0,0.0,0.0,0.0,0.0,0.0,0.0,0.0,0.0,0.0,0.0,0.0,0.0,0.0,0.0,0.0,0.0,0.0,0.0,0.0,0.0,0.0,0.0,0.0,0.0,0.0,0.0,0.0,0.0,0.0,0.0,0.0,0.0,0.0,0.0,0.0,0.0,0.0,0.0,0.0,0.0,0.0,0.0,0.0,0.0,0.0,0.0,0.0,0.0,0.0,0.0,0.0,0.0,0.0,0.0,0.0,0.0,0.0,0.0,0.0,0.0,0.0,0.0,0.0,0.0,0.0,0.0,0.0,0.0,0.0,0.0,0.0,0.0,0.0,0.0,0.0,0.0,0.0,0.0,0.0,0.0,0.0,0.0,0.0,0.0,0.0,0.0,0.0,0.0,0.0,0.0,0.0,0.0,0.0,0.0,0.0,0.0,0.0,0.0,0.0,0.0,0.0,0.0,0.0,0.0,0.0,0.0,0.0,0.0,0.0,0.0,0.0,0.0,0.0,0.0,0.0,0.0,0.0,0.0,0.0,0.0,0.0,0.0,0.0,0.0,0.0,0.0,0.0,0.0,0.0,0.0,0.0,0.0,0.0,0.0,0.0,0.0,0.0,0.0,0.0,0.0,0.0,0.0,0.0,0.0,0.0,0.0,0.0,0.0,0.0,0.0,0.0,0.0,0.0,0.0,0.0,0.0,0.0,0.0,0.0,0.0,0.0,0.0,0.0,0.0,0.0,0.0,0.0,0.0,0.0,0.0,0.0,0.0,0.0,0.0,0.0,0.0,0.0,0.0,0.0,0.0,0.0,0.0,0.0,0.0,0.0,0.0,0.0,0.0,0.0,0.0,0.0,0.0,0.0,0.0,0.0,0.0,0.0,0.0,0.0,0.0,0.0,0.0,0.0,0.0,0.0,0.0,0.0,0.0,0.0,0.0,0.0,0.0,0.0,0.0,0.0,0.0,0.0,0.0,0.0,0.0,0.0,0.0,0.0,0.0,0.0,0.0,0.0,0.0,0.0,0.0,0.0,0.0,0.0,0.0,0.0,0.0,0.0,0.0,0.0,0.0,0.0,0.0,0.0,0.0,0.0,0.0,0.0,0.0,0.0,0.0,0.0,0.0,0.0,0.0,0.0,0.0,0.0,0.0,0.0,0.0,0.0,0.0,0.0,0.0,0.0,0.0,0.0,0.0,0.0,0.0,0.0,0.0,0.0,0.0,0.0,0.0,0.0,0.0,0.0,0.0,0.0,0.0,0.0,0.0,0.0,0.0,0.0,0.0,0.0,0.0,0.0,0.0,0.0,0.0,0.0,0.0,0.0,0.0,0.0,0.0,0.0,0.0,0.0,0.0,0.0,0.0,0.0,0.0,0.0,0.0,0.0,0.0,0.0,0.0,0.0,0.0,0.0,0.0,0.0,0.0,0.0,0.0,0.0,0.0,0.0,0.0,0.0,0.0,0.0,0.0,0.0,0.0,0.0,0.0,0.0,0.0,0.0,0.0,0.0,0.0,0.0,0.0,0.0,0.0,0.0,0.0,0.0,0.0,0.0,0.0,0.0,0.0,0.0,0.0,0.0,0.0,0.0,0.0,0.0,0.0,0.0,0.0,0.0,0.0,0.0,0.0,0.0,0.0,0.0,0.0,0.0,0.0,0.0,0.0,0.0,0.0,0.0,0.0,0.0,0.0,0.0,0.0,0.0,0.0,0.0,0.0,0.0,0.0,0.0,0.0,0.0,0.0,0.0,0.0,0.0,0.0,0.0,0.0,0.0,0.0,0.0,0.0,0.0,0.0,0.0,0.0,0.0,0.0,0.0,0.0,0.0,0.0,0.0,0.0,0.0,0.0,0.0,0.0,0.0,0.0,0.0,0.0,0.0,0.0,0.0,0.0,0.0,0.0,0.0,0.0,0.0,0.0,0.0,0.0,0.0,0.0,0.0,0.0,0.0,0.0,0.0,0.0,0.0,0.0,0.0,0.0,0.0,0.0,0.0,0.0,0.0,0.0,0.0,0.0,0.0,0.0,0.0,0.0,0.0,0.0,0.0,0.0,0.0,0.0,0.0,0.0,0.0,0.0,0.0,0.0,0.0,0.0,0.0,0.0,0.0,0.0,0.0,0.0,0.0,0.0,0.0,0.0,0.0,0.0,0.0,0.0,0.0,0.0,0.0,0.0,0.0,0.0,0.0,0.0,0.0,0.0,0.0,0.0,0.0,0.0,0.0,0.0,0.0,0.0,0.0,0.0,0.0,0.0,0.0,0.0,0.0,0.0,0.0,0.0,0.0,0.0,0.0,0.0,0.0,0.0,0.0,0.0,0.0,0.0,0.0,0.0,0.0,0.0,0.0,4.3359,0.0,0.0,0.0,0.0,0.0,0.0,0.0,0.0,0.0,0.0,0.0,0.0,0.0,0.0,0.0,0.0,0.0,0.0,0.0,0.0,0.0,0.0,0.0,0.0,0.0,0.0,0.0,0.0,0.0,0.0,0.0,0.0,0.0,0.0,0.0,0.0,0.0,0.0,0.0,0.0,0.0,0.0,0.0,0.0,0.0,0.0,0.0,0.0,0.0,0.0,0.0,0.0,0.0,0.0,0.0,0.0,0.0,0.0,0.0,0.0,0.0,0.0,0.0,0.0,0.0,0.0,0.0,0.0,0.0,0.0,0.0,0.0,0.0,0.0,0.0,0.0,0.0,0.0,0.0,0.0,0.0,0.0,0.0,0.0,0.0,0.0,0.0,0.0,0.0,0.0,0.0,0.0,0.0,0.0,0.0,0.0,0.0,0.0,0.0,0.0,0.0,0.0,0.0,0.0,0.0,0.0,0.0,0.0,0.0,0.0,4.6289,4.6289,4.5469,4.4609,4.3711,0.0,0.0,0.0,0.0,0.0,0.0,0.0,0.0,0.0,0.0,0.0,0.0,0.0,0.0,0.0,0.0,0.0,0.0,0.0,0.0,0.0,0.0,0.0,0.0,0.0,0.0,0.0,0.0,0.0,0.0,0.0,0.0,0.0,0.0,0.0,0.0,0.0,0.0,0.0,0.0,0.0,0.0,0.0,0.0,0.0,0.0,0.0,0.0,0.0,0.0,0.0,0.0,0.0,0.0,0.0,0.0,0.0,0.0,0.0,0.0,0.0,0.0,0.0,0.0,0.0,0.0,0.0,0.0,0.0,0.0,0.0,0.0,0.0,0.0,0.0,0.0,0.0,0.0,0.0,0.0,0.0,0.0,0.0,0.0,0.0,0.0,0.0,0.0,0.0,0.0,0.0,0.0,0.0,0.0,0.0,0.0,0.0,0.0,0.0,0.0,0.0,0.0,0.0,0.0,0.0,0.0,0.0,0.0,0.0,0.0,0.0,0.0,4.6328,4.5351,4.4297,0.0,0.0,0.0,0.0,0.0,0.0,0.0,0.0,0.0,0.0,0.0,0.0,0.0,0.0,0.0,0.0,0.0,0.0,0.0,0.0,0.0,0.0,0.0,0.0,0.0,0.0,0.0,0.0,0.0,0.0,0.0,0.0,0.0,0.0,0.0,0.0,0.0,0.0,0.0,0.0,0.0,0.0,0.0,0.0,0.0,0.0,0.0,0.0,0.0,0.0,0.0,0.0,0.0,0.0,0.0,0.0,0.0,0.0,0.0,0.0,0.0,0.0,0.0,0.0,0.0,0.0,0.0,0.0,0.0,0.0,0.0,0.0,0.0,0.0,0.0,0.0,0.0,0.0,0.0,0.0,0.0,0.0,0.0,0.0,0.0,0.0,0.0,0.0,0.0,0.0,0.0,0.0,0.0,0.0,0.0,0.0,0.0,0.0,0.0,0.0,0.0,0.0,0.0,0.0,0.0,0.0,0.0,0.0,0.0,0.0,4.7422,4.9726,4.8984,0.0,4.6133,0.0,0.0,0.0,0.0,0.0,0.0,0.0,0.0,0.0,0.0,0.0,0.0,0.0,0.0,0.0,0.0,0.0,0.0,0.0,0.0,0.0,0.0,0.0,0.0,0.0,0.0,0.0,0.0,0.0,0.0,0.0,0.0,0.0,0.0,0.0,0.0,0.0,0.0,0.0,0.0,0.0,0.0,0.0,0.0,0.0,0.0,0.0,0.0,0.0,0.0,0.0,0.0,0.0,0.0,0.0,0.0,0.0,0.0,0.0,0.0,0.0,0.0,0.0,0.0,0.0,0.0,0.0,0.0,0.0,0.0,0.0,0.0,0.0,0.0,0.0,0.0,0.0,0.0,0.0,0.0,0.0,0.0,0.0,0.0,0.0,0.0,0.0,0.0,0.0,0.0,0.0,0.0,0.0,0.0,0.0,0.0,0.0,0.0,0.0,0.0,0.0,0.0,0.0,0.0,0.0,0.0,0.0,0.0,0.0,0.0,0.0,4.9304,4.7883,4.658,0.0,0.0,0.0,0.0,0.0,0.0,0.0,0.0,0.0,0.0,0.0,0.0,0.0,0.0,0.0,0.0,0.0,0.0,0.0,0.0,0.0,0.0,0.0,0.0,0.0,0.0,0.0,0.0,0.0,0.0,0.0,0.0,0.0,0.0,0.0,0.0,0.0,0.0,0.0,0.0,0.0,0.0,0.0,0.0,0.0,0.0,0.0,0.0,0.0,0.0,0.0,0.0,0.0,0.0,0.0,0.0,0.0,0.0,0.0,0.0,0.0,0.0,0.0,0.0,0.0,0.0,0.0,0.0,0.0,0.0,0.0,0.0,0.0,0.0,0.0,0.0,0.0,0.0,0.0,0.0,0.0,0.0,0.0,0.0,0.0,0.0,0.0,0.0,0.0,0.0,0.0,0.0,0.0,0.0,0.0,0.0,0.0,0.0,0.0,0.0,0.0,0.0,0.0,0.0,0.0,0.0,0.0,0.0,0.0,0.0,4.8546,0.0,4.8931,4.7921,4.6442,4.4562,0.0,0.0,0.0,0.0,0.0,0.0,0.0,0.0,0.0,0.0,0.0,0.0,0.0,0.0,0.0,0.0,0.0,0.0,0.0,0.0,0.0,0.0,0.0,0.0,0.0,0.0,0.0,0.0,0.0,0.0,0.0,0.0,0.0,0.0,0.0,0.0,0.0,0.0,0.0,0.0,0.0,0.0,0.0,0.0,0.0,0.0,0.0,0.0,0.0,0.0,0.0,0.0,0.0,0.0,0.0,0.0,0.0,0.0,0.0,0.0,0.0,0.0,0.0,0.0,0.0,0.0,0.0,0.0,0.0,0.0,0.0,0.0,0.0,0.0,0.0,0.0,0.0,0.0,0.0,0.0,0.0,0.0,0.0,0.0,0.0,0.0,0.0,0.0,0.0,0.0,0.0,0.0,0.0,0.0,0.0,0.0,0.0,0.0,0.0,0.0,0.0,0.0,0.0,0.0,0.0,0.0,0.0,0.0,0.0,4.9869,4.9025,4.9817,5.048,4.8565,0.0,0.0,0.0,0.0,0.0,0.0,0.0,0.0,0.0,0.0,0.0,0.0,0.0,0.0,0.0,0.0,0.0,0.0,0.0,0.0,0.0,0.0,0.0,0.0,0.0,0.0,0.0,0.0,0.0,0.0,0.0,0.0,0.0,0.0,0.0,0.0,0.0,0.0,0.0,0.0,0.0,0.0,0.0,0.0,0.0,0.0,0.0,0.0,0.0,0.0,0.0,0.0,0.0,0.0,0.0,0.0,0.0,0.0,0.0,0.0,0.0,0.0,0.0,0.0,0.0,0.0,0.0,0.0,0.0,0.0,0.0,0.0,0.0,0.0,0.0,0.0,0.0,0.0,0.0,0.0,0.0,0.0,0.0,0.0,0.0,0.0,0.0,0.0,0.0,0.0,0.0,0.0,0.0,0.0,0.0,0.0,0.0,0.0,0.0,0.0,0.0,0.0,0.0,0.0,0.0,0.0,0.0,0.0,0.0,4.8205,4.8369,4.9663,5.1973,4.8684,4.6166,0.0,0.0,0.0,0.0,0.0,0.0,0.0,0.0,0.0,0.0,0.0,0.0,0.0,0.0,0.0,0.0,0.0,0.0,0.0,0.0,0.0,0.0,0.0,0.0,0.0,0.0,0.0,0.0,0.0,0.0,0.0,0.0,0.0,0.0,0.0,0.0,0.0,0.0,0.0,0.0,0.0,0.0,0.0,0.0,0.0,0.0,0.0,0.0,0.0,0.0,0.0,0.0,0.0,0.0,0.0,0.0,0.0,0.0,0.0,0.0,0.0,0.0,0.0,0.0,0.0,0.0,0.0,0.0,0.0,0.0,0.0,0.0,0.0,0.0,0.0,0.0,0.0,0.0,0.0,0.0,0.0,0.0,0.0,0.0,0.0,0.0,0.0,0.0,0.0,0.0,0.0,0.0,0.0,0.0,0.0,0.0,0.0,0.0,0.0,0.0,0.0,0.0,0.0,0.0,0.0,0.0,0.0,0.0,0.0,4.712,0.0,5.0529,0.0,4.8028,4.5109,0.0,0.0,0.0,0.0,0.0,0.0,0.0,0.0,0.0,0.0,0.0,0.0,0.0,0.0,0.0,0.0,0.0,0.0,0.0,0.0,0.0,0.0,0.0,0.0,0.0,0.0,0.0,0.0,0.0,0.0,0.0,0.0,0.0,0.0,0.0,0.0,0.0,0.0,0.0,0.0,0.0,0.0,0.0,0.0,0.0,0.0,0.0,0.0,0.0,0.0,0.0,0.0,0.0,0.0,0.0,0.0,0.0,0.0,0.0,0.0,0.0,0.0,0.0,0.0,0.0,0.0,0.0,0.0,0.0,0.0,0.0,0.0,0.0,0.0,0.0,0.0,0.0,0.0,0.0,0.0,0.0,0.0,0.0,0.0,0.0,0.0,0.0,0.0,0.0,0.0,0.0,0.0,0.0,0.0,0.0,0.0,0.0,0.0,0.0,0.0,0.0,0.0,0.0,0.0,0.0,0.0,0.0,0.0,4.639,4.9452,5.1818,5.1548,4.8394,4.8856,4.5778,0.0,0.0,0.0,0.0,0.0,0.0,0.0,0.0,0.0,0.0,0.0,0.0,0.0,0.0,0.0,0.0,0.0,0.0,0.0,0.0,0.0,0.0,0.0,0.0,0.0,0.0,0.0,0.0,0.0,0.0,0.0,0.0,0.0,0.0,0.0,0.0,0.0,0.0,0.0,0.0,0.0,0.0,0.0,0.0,0.0,0.0,0.0,0.0,0.0,0.0,0.0,0.0,0.0,0.0,0.0,0.0,0.0,0.0,0.0,0.0,0.0,0.0,0.0,0.0,0.0,0.0,0.0,0.0,0.0,0.0,0.0,0.0,0.0,0.0,0.0,0.0,0.0,0.0,0.0,0.0,0.0,0.0,0.0,0.0,0.0,0.0,0.0,0.0,0.0,0.0,0.0,0.0,0.0,0.0,0.0,0.0,0.0,0.0,0.0,0.0,0.0,0.0,0.0,0.0,0.0,0.0,0.0,0.0,0.0,4.8606,5.101,5.2395,5.2356,4.8202,4.5624,0.0,0.0,0.0,0.0,0.0,0.0,0.0,0.0,0.0,0.0,0.0,0.0,0.0,0.0,0.0,0.0,0.0,0.0,0.0,0.0,0.0,0.0,0.0,0.0,0.0,0.0,0.0,0.0,0.0,0.0,0.0,0.0,0.0,0.0,0.0,0.0,0.0,0.0,0.0,0.0,0.0,0.0,0.0,0.0,0.0,0.0,0.0,0.0,0.0,0.0,0.0,0.0,0.0,0.0,0.0,0.0,0.0,0.0,0.0,0.0,0.0,0.0,0.0,0.0,0.0,0.0,0.0,0.0,0.0,0.0,0.0,0.0,0.0,0.0,0.0,0.0,0.0,0.0,0.0,0.0,0.0,0.0,0.0,0.0,0.0,0.0,0.0,0.0,0.0,0.0,0.0,0.0,0.0,0.0,0.0,0.0,0.0,0.0,0.0,0.0,0.0,0.0,0.0,0.0,0.0,0.0,0.0,0.0,0.0,5.201,5.4087,5.5126,5.4972,5.0164,4.7142,4.6159,0.0,0.0,0.0,0.0,0.0,0.0,0.0,0.0,0.0,0.0,0.0,0.0,0.0,0.0,0.0,0.0,0.0,0.0,0.0,0.0,0.0,0.0,0.0,0.0,0.0,0.0,0.0,0.0,0.0,0.0,0.0,0.0,0.0,0.0,0.0,0.0,0.0,0.0,0.0,0.0,0.0,0.0,0.0,0.0,0.0,0.0,0.0,0.0,0.0,0.0,0.0,0.0,0.0,0.0,0.0,0.0,0.0,0.0,0.0,0.0,0.0,0.0,0.0,0.0,0.0,0.0,0.0,0.0,0.0,0.0,0.0,0.0,0.0,0.0,0.0,0.0,0.0,0.0,0.0,0.0,0.0,0.0,0.0,0.0,0.0,0.0,0.0,0.0,0.0,0.0,0.0,0.0,0.0,0.0,0.0,0.0,0.0,0.0,0.0,0.0,0.0,0.0,0.0,0.0,0.0,0.0,0.0,0.0,5.8473,6.0435,5.9858,5.6549,5.4318,5.026,0.0,0.0,0.0,0.0,0.0,0.0,0.0,0.0,0.0,0.0,0.0,0.0,0.0,0.0,0.0,0.0,0.0,0.0,0.0,0.0,0.0,0.0,0.0,0.0,0.0,0.0,0.0,0.0,0.0,0.0,0.0,0.0,0.0,0.0,0.0,0.0,0.0,0.0,0.0,0.0,0.0,0.0,0.0,0.0,0.0,0.0,0.0,0.0,0.0,0.0,0.0,0.0,0.0,0.0,0.0,0.0,0.0,0.0,0.0,0.0,0.0,0.0,0.0,0.0,0.0,0.0,0.0,0.0,0.0,0.0,0.0,0.0,0.0,0.0,0.0,0.0,0.0,0.0,0.0,0.0,0.0,0.0,0.0,0.0,0.0,0.0,0.0,0.0,0.0,0.0,0.0,0.0,0.0,0.0,0.0,0.0,0.0,0.0,0.0,0.0,0.0,0.0,0.0,0.0,0.0,0.0,0.0,0.0,0.0,6.1127,6.6397,6.759,6.4128,5.7665,5.3338,0.0,0.0,0.0,0.0,0.0,0.0,0.0,0.0,0.0,0.0,0.0,0.0,0.0,0.0,0.0,0.0,0.0,0.0,0.0,0.0,0.0,0.0,0.0,0.0,0.0,0.0,0.0,0.0,0.0,0.0,0.0,0.0,0.0,0.0,0.0,0.0,0.0,0.0,0.0,0.0,0.0,0.0,0.0,0.0,0.0,0.0,0.0,0.0,0.0,0.0,0.0,0.0,0.0,0.0,0.0,0.0,0.0,0.0,0.0,0.0,0.0,0.0,0.0,0.0,0.0,0.0,0.0,0.0,0.0,0.0,0.0,0.0,0.0,0.0,0.0,0.0,0.0,0.0,0.0,0.0,0.0,0.0,0.0,0.0,0.0,0.0,0.0,0.0,0.0,0.0,0.0,0.0,0.0,0.0,0.0,0.0,0.0,0.0,0.0,0.0,0.0,0.0,0.0,0.0,0.0,0.0,0.0,0.0,6.1166,6.5243,7.1552,7.3899,7.1898,6.3705,5.7726,0.0,0.0,0.0,0.0,0.0,0.0,0.0,0.0,0.0,0.0,0.0,0.0,0.0,0.0,0.0,0.0,0.0,0.0,0.0,0.0,0.0,0.0,0.0,0.0,0.0,0.0,0.0,0.0,0.0,0.0,0.0,0.0,0.0,0.0,0.0,0.0,0.0,0.0,0.0,0.0,0.0,0.0,0.0,0.0,0.0,0.0,0.0,0.0,0.0,0.0,0.0,0.0,0.0,0.0,0.0,0.0,0.0,0.0,0.0,0.0,0.0,0.0,0.0,0.0,0.0,0.0,0.0,0.0,0.0,0.0,0.0,0.0,0.0,0.0,0.0,0.0,0.0,0.0,0.0,0.0,0.0,0.0,0.0,0.0,0.0,0.0,0.0,0.0,0.0,0.0,0.0,0.0,0.0,0.0,0.0,0.0,0.0,0.0,0.0,0.0,0.0,0.0,0.0,0.0,0.0,0.0,0.0,0.0,6.4859,7.0014,7.5668,7.8631,7.84,7.036,6.2497,0.0,0.0,0.0,0.0,0.0,0.0,0.0,0.0,0.0,0.0,0.0,0.0,0.0,0.0,0.0,0.0,0.0,0.0,0.0,0.0,0.0,0.0,0.0,0.0,0.0,0.0,0.0,0.0,0.0,0.0,0.0,0.0,0.0,0.0,0.0,0.0,0.0,0.0,0.0,0.0,0.0,0.0,0.0,0.0,0.0,0.0,0.0,0.0,0.0,0.0,0.0,0.0,0.0,0.0,0.0,0.0,0.0,0.0,0.0,0.0,0.0,0.0,0.0,0.0,0.0,0.0,0.0,0.0,0.0,0.0,0.0,0.0,0.0,0.0,0.0,0.0,0.0,0.0,0.0,0.0,0.0,0.0,0.0,0.0,0.0,0.0,0.0,0.0,0.0,0.0,0.0,0.0,0.0,0.0,0.0,0.0,0.0,0.0,0.0,0.0,0.0,0.0,0.0,0.0,0.0,0.0,0.0,0.0,6.6859,7.2591,7.7169,7.9515,7.9477,7.0667,6.3578,0.0,0.0,0.0,0.0,0.0,0.0,0.0,0.0,0.0,0.0,0.0,0.0,0.0,0.0,0.0,0.0,0.0,0.0,0.0,0.0,0.0,0.0,0.0,0.0,0.0,0.0,0.0,0.0,0.0,0.0,0.0,0.0,0.0,0.0,0.0,0.0,0.0,0.0,0.0,0.0,0.0,0.0,0.0,0.0,0.0,0.0,0.0,0.0,3.9687,0.0,0.0,0.0,0.0,0.0,0.0,0.0,0.0,0.0,0.0,0.0,0.0,0.0,0.0,0.0,0.0,0.0,0.0,0.0,0.0,0.0,0.0,0.0,0.0,0.0,0.0,0.0,0.0,0.0,0.0,0.0,0.0,0.0,0.0,0.0,0.0,0.0,0.0,0.0,0.0,0.0,0.0,0.0,0.0,0.0,0.0,0.0,0.0,0.0,0.0,0.0,0.0,0.0,0.0,0.0,0.0,0.0,0.0,0.0,6.8667,7.4514,7.8438,8.04,8.0131,7.3322,6.6512,0.0,0.0,0.0,0.0,0.0,0.0,0.0,0.0,0.0,0.0,0.0,0.0,0.0,0.0,0.0,0.0,0.0,0.0,0.0,0.0,0.0,0.0,0.0,0.0,0.0,0.0,0.0,0.0,0.0,0.0,0.0,0.0,0.0,0.0,0.0,0.0,0.0,0.0,0.0,0.0,0.0,0.0,0.0,0.0,0.0,0.0,0.0,0.0,0.0,0.0,0.0,0.0,0.0,0.0,0.0,0.0,0.0,0.0,0.0,0.0,0.0,0.0,0.0,0.0,0.0,0.0,0.0,0.0,0.0,0.0,0.0,0.0,0.0,0.0,0.0,0.0,0.0,0.0,0.0,0.0,0.0,0.0,0.0,0.0,0.0,0.0,0.0,0.0,0.0,0.0,0.0,0.0,0.0,0.0,0.0,0.0,0.0,0.0,0.0,0.0,0.0,0.0,0.0,0.0,0.0,0.0,0.0,6.3782,7.0321,7.6746,7.9785,8.1246,8.1016,7.6169,6.9509,6.1119,0.0,0.0,0.0,0.0,0.0,0.0,0.0,0.0,0.0,0.0,0.0,0.0,0.0,0.0,0.0,0.0,0.0,0.0,0.0,0.0,0.0,0.0,0.0,0.0,0.0,0.0,0.0,0.0,0.0,0.0,0.0,0.0,0.0,0.0,0.0,0.0,0.0,0.0,3.8633,4.1367,0.0,0.0,0.0,0.0,0.0,0.0,0.0,0.0,4.0976,0.0,0.0,0.0,0.0,0.0,0.0,0.0,0.0,0.0,0.0,0.0,0.0,0.0,0.0,0.0,0.0,0.0,0.0,0.0,0.0,0.0,0.0,0.0,0.0,0.0,0.0,0.0,0.0,0.0,0.0,0.0,0.0,0.0,0.0,0.0,0.0,0.0,0.0,0.0,0.0,0.0,0.0,0.0,0.0,0.0,0.0,0.0,0.0,0.0,0.0,0.0,0.0,0.0,0.0,0.0,0.0,6.4001,6.6128,7.1706,8.0977,8.1823,8.1785,8.0977,7.6169,6.9519,6.1228,0.0,0.0,0.0,0.0,0.0,0.0,0.0,0.0,0.0,0.0,0.0,0.0,0.0,0.0,0.0,0.0,0.0,0.0,0.0,0.0,0.0,0.0,0.0,0.0,0.0,0.0,0.0,0.0,0.0,0.0,0.0,0.0,0.0,0.0,0.0,0.0,0.0,0.0,0.0,4.6367,4.7461,0.0,0.0,0.0,0.0,0.0,0.0,0.0,0.0,4.1406,0.0,0.0,0.0,0.0,0.0,0.0,0.0,0.0,0.0,0.0,0.0,0.0,0.0,0.0,0.0,0.0,0.0,0.0,0.0,0.0,0.0,0.0,0.0,0.0,0.0,0.0,0.0,0.0,0.0,0.0,0.0,0.0,0.0,0.0,0.0,0.0,0.0,0.0,0.0,0.0,0.0,0.0,0.0,0.0,0.0,0.0,0.0,0.0,0.0,0.0,0.0,0.0,0.0,0.0,0.0,6.4176,6.8847,7.4707,8.1977,8.2747,8.2362,8.1016,7.5284,6.8806,0.0,0.0,0.0,0.0,0.0,0.0,0.0,0.0,0.0,0.0,0.0,0.0,0.0,0.0,0.0,0.0,0.0,0.0,0.0,0.0,0.0,0.0,0.0,0.0,0.0,0.0,0.0,0.0,0.0,0.0,0.0,0.0,0.0,0.0,0.0,0.0,0.0,0.0,0.0,0.0,4.9101,5.1055,5.3203,0.0,0.0,0.0,0.0,0.0,0.0,4.5117,4.375,0.0,0.0,0.0,0.0,0.0,0.0,0.0,0.0,0.0,0.0,0.0,0.0,0.0,0.0,0.0,0.0,0.0,0.0,0.0,0.0,0.0,0.0,0.0,0.0,0.0,0.0,0.0,0.0,0.0,0.0,0.0,0.0,0.0,0.0,0.0,0.0,0.0,0.0,0.0,0.0,0.0,0.0,0.0,0.0,0.0,0.0,0.0,0.0,0.0,0.0,0.0,0.0,0.0,0.0,0.0,6.3498,7.0552,7.7015,8.2554,8.3478,8.2978,8.1054,7.463,6.8205,0.0,0.0,0.0,0.0,0.0,0.0,0.0,0.0,0.0,0.0,0.0,0.0,0.0,0.0,0.0,0.0,0.0,0.0,0.0,0.0,0.0,0.0,0.0,0.0,0.0,0.0,0.0,0.0,0.0,0.0,0.0,0.0,0.0,0.0,0.0,0.0,0.0,0.0,0.0,0.0,0.0,5.4648,5.6328,5.3359,0.0,0.0,0.0,0.0,4.832,4.8945,0.0,0.0,0.0,0.0,0.0,0.0,0.0,0.0,0.0,0.0,0.0,0.0,0.0,0.0,0.0,0.0,0.0,0.0,0.0,0.0,0.0,0.0,0.0,0.0,0.0,0.0,0.0,0.0,0.0,0.0,0.0,0.0,0.0,0.0,0.0,0.0,0.0,0.0,0.0,0.0,0.0,0.0,0.0,0.0,0.0,0.0,0.0,0.0,0.0,0.0,0.0,0.0,0.0,0.0,0.0,0.0,6.4211,6.9749,7.6438,8.4132,8.4709,8.3593,8.1093,7.5207,6.8565,0.0,0.0,0.0,0.0,0.0,0.0,0.0,0.0,0.0,0.0,0.0,0.0,0.0,0.0,0.0,0.0,0.0,0.0,0.0,0.0,0.0,0.0,0.0,0.0,0.0,0.0,0.0,0.0,0.0,0.0,0.0,0.0,0.0,0.0,0.0,0.0,0.0,0.0,0.0,0.0,0.0,5.8008,5.6797,5.4883,5.2969,0.0,0.0,5.3672,5.5156,5.7969,0.0,0.0,0.0,0.0,0.0,0.0,0.0,0.0,0.0,0.0,0.0,0.0,0.0,0.0,0.0,0.0,0.0,0.0,0.0,0.0,0.0,0.0,0.0,0.0,0.0,0.0,0.0,0.0,0.0,0.0,0.0,0.0,0.0,0.0,0.0,0.0,0.0,0.0,0.0,0.0,0.0,0.0,0.0,0.0,0.0,0.0,0.0,0.0,0.0,0.0,0.0,0.0,0.0,0.0,0.0,5.6575,6.5214,7.2716,7.9438,8.5324,8.6055,8.467,8.117,7.4399,6.7423,0.0,0.0,0.0,0.0,0.0,0.0,0.0,0.0,0.0,0.0,0.0,0.0,0.0,0.0,0.0,0.0,0.0,0.0,0.0,0.0,0.0,0.0,0.0,0.0,0.0,0.0,0.0,0.0,0.0,0.0,0.0,0.0,0.0,0.0,0.0,0.0,0.0,0.0,0.0,0.0,0.0,0.0,5.9453,5.8828,0.0,0.0,0.0,5.6875,5.664,0.0,0.0,0.0,0.0,0.0,0.0,0.0,0.0,0.0,0.0,0.0,0.0,0.0,0.0,0.0,0.0,0.0,0.0,0.0,0.0,0.0,0.0,0.0,0.0,0.0,0.0,0.0,0.0,0.0,0.0,0.0,0.0,0.0,0.0,0.0,0.0,0.0,0.0,0.0,0.0,0.0,0.0,0.0,0.0,0.0,0.0,0.0,0.0,0.0,0.0,0.0,0.0,0.0,0.0,0.0,0.0,0.0,6.5894,7.5088,8.1977,8.6247,8.7055,8.5478,8.1439,7.4822,0.0,0.0,0.0,0.0,0.0,0.0,0.0,0.0,0.0,0.0,0.0,0.0,0.0,0.0,0.0,0.0,0.0,0.0,0.0,0.0,0.0,0.0,0.0,0.0,0.0,0.0,0.0,2.8359,0.0,0.0,0.0,0.0,0.0,0.0,0.0,0.0,0.0,0.0,0.0,0.0,0.0,0.0,5.9961,6.1211,6.2109,6.289,0.0,0.0,6.0508,5.9648,6.2734,6.2109,0.0,0.0,0.0,0.0,0.0,0.0,0.0,0.0,0.0,0.0,0.0,0.0,0.0,0.0,0.0,0.0,0.0,0.0,0.0,0.0,0.0,0.0,0.0,0.0,0.0,0.0,0.0,0.0,0.0,0.0,0.0,0.0,0.0,0.0,0.0,0.0,0.0,0.0,0.0,0.0,0.0,0.0,0.0,0.0,0.0,0.0,0.0,0.0,0.0,0.0,0.0,0.0,0.0,0.0,0.0,6.5894,7.5088,8.2247,8.7094,8.7363,8.5747,8.2285,7.79,7.0475,0.0,0.0,0.0,0.0,0.0,0.0,0.0,0.0,0.0,0.0,0.0,0.0,0.0,0.0,0.0,0.0,0.0,0.0,0.0,0.0,0.0,0.0,0.0,0.0,0.0,0.0,0.0,0.0,0.0,0.0,0.0,0.0,0.0,0.0,0.0,0.0,0.0,0.0,0.0,0.0,0.0,6.043,6.0469,6.3281,6.6211,0.0,0.0,6.5664,6.7148,7.1562,7.039,5.7109,0.0,0.0,0.0,0.0,0.0,0.0,0.0,0.0,0.0,0.0,0.0,0.0,0.0,0.0,0.0,0.0,0.0,0.0,0.0,0.0,0.0,0.0,0.0,0.0,0.0,0.0,0.0,0.0,0.0,0.0,0.0,0.0,0.0,0.0,0.0,0.0,0.0,0.0,0.0,0.0,0.0,0.0,0.0,0.0,0.0,0.0,0.0,0.0,0.0,0.0,0.0,0.0,0.0,5.7698,6.5856,7.5626,8.2785,8.7209,8.7902,8.6824,8.3978,7.8784,7.1321,0.0,0.0,0.0,0.0,0.0,0.0,0.0,0.0,0.0,0.0,0.0,0.0,0.0,0.0,0.0,0.0,0.0,0.0,0.0,0.0,0.0,0.0,0.0,0.0,0.0,0.0,0.0,0.0,3.7932,3.8091,3.6174,0.0,0.0,0.0,0.0,0.0,0.0,0.0,0.0,0.0,0.0,6.1406,6.6055,6.789,0.0,0.0,6.9726,6.8594,6.8242,6.8945,6.6484,5.7539,5.2734,0.0,0.0,0.0,0.0,0.0,0.0,0.0,0.0,0.0,0.0,0.0,0.0,0.0,0.0,0.0,0.0,0.0,0.0,0.0,0.0,0.0,0.0,0.0,0.0,0.0,0.0,0.0,0.0,0.0,0.0,0.0,0.0,0.0,0.0,0.0,0.0,0.0,0.0,0.0,0.0,0.0,0.0,0.0,0.0,0.0,0.0,0.0,0.0,0.0,0.0,0.0,0.0,5.7864,6.5826,7.6164,8.3516,8.7709,8.8402,8.7594,8.5209,7.9977,7.286,0.0,0.0,0.0,0.0,0.0,0.0,0.0,0.0,0.0,0.0,0.0,0.0,0.0,0.0,0.0,0.0,0.0,0.0,0.0,0.0,0.0,0.0,0.0,0.0,0.0,0.0,0.0,0.0,4.0547,3.9768,3.6535,0.0,0.0,0.0,0.0,0.0,0.0,0.0,0.0,0.0,0.0,6.3242,6.9101,7.0156,7.0547,7.1133,6.9844,6.8476,6.7539,6.6406,6.3476,5.7226,0.0,0.0,0.0,0.0,0.0,0.0,0.0,0.0,0.0,0.0,0.0,0.0,0.0,0.0,0.0,0.0,0.0,0.0,0.0,0.0,0.0,0.0,0.0,0.0,0.0,0.0,0.0,0.0,0.0,0.0,0.0,0.0,0.0,0.0,0.0,0.0,0.0,0.0,0.0,0.0,0.0,0.0,0.0,0.0,0.0,0.0,0.0,0.0,0.0,0.0,0.0,0.0,0.0,0.0,6.5932,7.6701,8.4324,8.8479,8.8671,8.7863,8.6094,8.1939,7.5668,6.7051,0.0,0.0,0.0,0.0,0.0,0.0,0.0,0.0,0.0,0.0,0.0,0.0,0.0,0.0,0.0,0.0,0.0,0.0,0.0,0.0,0.0,0.0,0.0,0.0,0.0,0.0,3.7416,3.7815,3.7319,0.0,0.0,0.0,0.0,0.0,0.0,0.0,0.0,0.0,0.0,6.0039,6.6094,6.8008,6.8984,6.957,6.9609,6.6758,6.4805,6.5664,6.5586,6.3242,0.0,0.0,0.0,0.0,0.0,0.0,0.0,0.0,0.0,0.0,0.0,0.0,0.0,0.0,0.0,0.0,0.0,0.0,0.0,0.0,0.0,0.0,0.0,0.0,0.0,0.0,0.0,5.0548,4.8971,0.0,0.0,0.0,0.0,0.0,0.0,0.0,0.0,0.0,0.0,0.0,5.5595,5.7138,0.0,0.0,0.0,0.0,0.0,0.0,0.0,0.0,0.0,0.0,0.0,0.0,5.9331,6.6782,7.6977,8.4362,8.8517,8.8671,8.8402,8.7786,8.2631,7.4725,6.4116,0.0,0.0,0.0,0.0,0.0,0.0,0.0,0.0,0.0,0.0,0.0,0.0,0.0,0.0,0.0,0.0,0.0,0.0,0.0,0.0,0.0,0.0,0.0,0.0,0.0,3.9251,0.0,0.0,0.0,0.0,0.0,0.0,0.0,0.0,0.0,0.0,0.0,4.9609,5.6172,6.039,6.418,6.7695,6.8828,6.9922,0.0,0.0,0.0,0.0,0.0,0.0,0.0,0.0,0.0,0.0,0.0,0.0,0.0,0.0,5.168,4.3125,4.1562,4.1641,4.1914,0.0,0.0,0.0,0.0,0.0,0.0,0.0,0.0,0.0,0.0,0.0,0.0,0.0,0.0,0.0,0.0,5.297,0.0,0.0,0.0,0.0,0.0,0.0,0.0,0.0,5.8311,6.0809,6.1508,6.3283,6.2954,0.0,6.0008,5.4907,0.0,0.0,0.0,0.0,0.0,0.0,0.0,0.0,6.0494,6.7623,7.7284,8.4209,8.8017,8.8248,8.8094,8.7709,8.1747,7.4149,6.5022,5.9019,5.4049,0.0,0.0,0.0,0.0,0.0,0.0,0.0,0.0,0.0,0.0,0.0,0.0,0.0,0.0,0.0,0.0,0.0,0.0,0.0,0.0,0.0,0.0,0.0,4.1117,0.0,0.0,0.0,0.0,0.0,0.0,0.0,0.0,0.0,4.4647,4.8984,5.4219,6.0117,6.2812,6.4916,6.6947,0.0,0.0,0.0,0.0,0.0,0.0,0.0,5.918,5.7773,5.6484,5.6055,5.7344,5.9453,6.0781,6.0156,0.0,0.0,5.0859,4.9297,4.957,4.9883,5.082,5.1836,5.2695,5.3984,5.4805,0.0,0.0,0.0,0.0,0.0,0.0,0.0,0.0,5.8452,5.8273,0.0,5.7034,0.0,0.0,0.0,0.0,0.0,0.0,0.0,0.0,6.7275,6.9975,6.845,6.886,6.8238,6.6733,6.5852,6.2585,5.7124,5.3014,0.0,0.0,0.0,0.0,0.0,0.0,6.2542,6.8602,7.7585,8.3901,8.7171,8.7286,8.6863,8.5747,7.9515,7.4101,6.9865,6.5563,6.1069,5.6045,5.0337,0.0,0.0,0.0,0.0,0.0,0.0,0.0,0.0,0.0,0.0,0.0,0.0,0.0,0.0,0.0,0.0,0.0,0.0,0.0,0.0,4.1764,0.0,0.0,0.0,0.0,0.0,0.0,0.0,0.0,0.0,0.0,4.9469,5.4336,5.9453,6.3398,0.0,0.0,0.0,0.0,6.6445,6.2773,6.1328,6.0586,5.9961,6.164,6.2773,6.1992,0.0,0.0,6.4961,6.4609,6.4219,6.25,6.5078,6.6094,6.2617,5.9765,5.8437,5.9101,5.8125,5.7383,5.8125,5.9258,5.9805,6.7026,0.0,0.0,0.0,0.0,6.2067,6.4781,6.9407,6.8753,6.7447,6.5652,6.4294,0.0,0.0,0.0,0.0,0.0,0.0,6.15,6.426,6.8135,7.0659,7.2182,7.2871,7.2642,7.1615,7.0844,6.8715,6.5448,6.3591,5.732,4.6873,0.0,0.0,0.0,0.0,6.4552,7.1091,7.7923,8.2785,8.5555,8.5632,8.4324,8.167,7.8592,7.5216,7.1612,6.8548,6.4872,6.0431,5.5746,0.0,0.0,0.0,0.0,0.0,0.0,0.0,0.0,0.0,0.0,0.0,0.0,0.0,0.0,0.0,0.0,0.0,0.0,0.0,4.1832,4.3785,4.3921,0.0,0.0,0.0,0.0,0.0,0.0,0.0,0.0,0.0,5.8385,5.9215,6.0234,0.0,0.0,6.3127,6.1851,6.4091,6.6172,6.6953,0.0,0.0,0.0,6.6367,6.5,6.5351,6.7969,6.9922,6.9805,7.082,7.1484,7.0937,7.1719,7.2031,7.1015,6.7812,6.5508,6.5508,6.5195,6.5156,6.5937,6.6797,6.7344,7.5946,7.0881,6.6733,6.6353,6.8518,6.8334,7.0789,7.4858,7.436,7.3215,7.1649,7.0338,6.6733,6.1451,6.0165,0.0,0.0,0.0,6.5879,6.9319,7.0921,7.2704,7.4653,7.5458,7.5432,7.4625,7.4147,7.2863,7.0807,6.9339,6.4214,5.5717,0.0,0.0,5.6075,6.1681,6.7422,7.3138,7.8377,8.2067,8.3972,8.3361,8.1866,7.9489,7.7385,7.5168,7.2794,7.0574,6.7895,6.4703,6.0559,5.5462,0.0,0.0,0.0,0.0,0.0,0.0,0.0,0.0,0.0,0.0,0.0,3.5504,3.0364,0.0,0.0,0.0,3.9371,4.2852,4.5878,4.6435,0.0,0.0,0.0,0.0,0.0,0.0,0.0,5.0895,5.55,5.9802,6.3299,6.3456,6.3806,6.5508,6.5513,6.491,6.3815,0.0,6.8007,6.9062,6.9336,6.9805,7.082,6.9687,6.918,7.0742,7.2226,7.3398,7.3984,7.4961,7.5586,7.5625,7.5625,7.5625,7.5625,7.3203,7.1133,7.082,7.0742,7.0937,7.1406,7.1875,7.2265,8.3214,8.1819,7.4368,7.2018,7.3251,7.3942,7.5141,7.657,7.661,7.646,7.6047,7.5134,7.2335,6.8152,6.5151,0.0,0.0,6.8735,7.0918,7.4628,7.4903,7.5482,7.6228,7.6949,7.6937,7.6203,7.613,7.5322,7.3817,7.1635,6.9434,6.715,6.4219,6.2642,6.2625,6.642,7.0574,7.4743,7.8723,8.1252,8.2375,8.081,7.9552,7.8714,7.6076,7.4255,7.3399,7.1783,7.014,6.8383,6.4564,6.0109,5.5039,0.0,0.0,0.0,0.0,0.0,0.0,0.0,0.0,0.0,0.0,0.0,0.0,0.0,0.0,0.0,4.4662,0.0,5.0875,4.9586,0.0,0.0,0.0,4.7587,5.0253,5.2601,5.4943,5.732,0.0,0.0,0.0,0.0,6.8934,7.1717,7.162,7.0728,6.9114,7.0266,7.1087,6.9811,6.9922,7.0195,7.0859,7.2187,7.4062,7.6172,7.7226,7.6953,7.6992,7.707,7.7148,7.7109,7.7187,7.7148,7.7187,7.6289,7.5742,7.4805,7.4531,7.4453,7.4336,7.4336,7.4336,8.5673,8.4719,8.2186,8.0314,7.8993,7.9154,7.9854,8.0718,8.0736,8.0388,7.9609,7.7547,7.5236,7.2907,7.2986,7.2977,7.292,7.3639,7.4582,7.5717,7.642,7.6803,7.7023,7.7169,7.7194,7.7011,7.6387,7.5909,7.5529,7.4848,7.3467,7.1487,7.1143,6.8992,6.5264,6.7898,7.1458,7.5634,7.6863,7.8294,7.9961,7.9009,7.8011,7.696,7.5083,7.3603,7.2534,7.1514,7.0129,6.8448,6.6216,6.2951,5.8489,5.0894,0.0,0.0,0.0,0.0,0.0,0.0,0.0,0.0,0.0,3.9973,3.2561,0.0,4.2218,0.0,4.7086,5.1741,5.4244,5.3571,0.0,0.0,5.4188,5.4451,5.6889,5.8922,6.0073,5.9935,6.2911,6.5731,6.7641,6.88,7.0692,7.39,7.1603,6.9309,6.8828,7.0882,7.2367,7.2189,7.3797,7.5351,7.5234,7.582,7.6406,7.7109,7.7226,7.7226,7.7226,7.7226,7.7226,7.7226,7.7226,7.7226,7.7226,7.7031,7.6836,7.6523,7.5547,7.457,7.457,7.4609,7.4609,8.7288,8.6775,8.56,8.4352,8.3104,8.2739,8.2822,8.3287,8.3294,8.2634,8.1415,7.9323,7.7878,7.6921,7.7564,7.7513,7.6901,7.7345,7.7577,7.7781,7.821,7.8405,7.8405,7.8075,7.7892,7.7855,7.7047,7.6644,7.6667,7.6495,7.5982,7.5155,7.5436,7.4063,7.1108,7.126,7.2609,7.501,7.5769,7.6957,7.8703,7.7928,7.6576,7.4821,7.3369,7.1559,6.9491,6.8559,6.7345,6.5667,6.4334,6.2029,5.8511,5.2602,4.7742,0.0,0.0,0.0,0.0,0.0,0.0,0.0,0.0,0.0,0.0,0.0,4.6014,0.0,5.1431,0.0,5.6711,5.7117,5.8008,5.9764,5.9498,6.0189,6.2721,6.4178,6.4884,6.4768,6.6744,6.8679,7.0206,7.0807,7.2115,7.4924,7.3231,7.1824,7.2208,7.3543,7.4526,7.47,7.6092,7.7226,7.7226,7.7226,7.7226,7.7226,7.7226,7.7226,7.7226,7.7226,7.7226,7.7226,7.7226,7.7226,7.7226,7.7226,7.7226,7.707,7.6445,7.582,7.5742,7.5742,7.5742,8.8353,8.8206,8.6628,8.6004,8.604,8.5287,8.4853,8.4756,8.4735,8.382,8.226,8.0956,8.022,7.9947,8.0037,7.9963,7.98,7.98,7.9853,7.983,7.979,7.98,7.98,7.9103,7.8736,7.8699,7.7892,7.7488,7.7451,7.7367,7.7542,7.7764,7.7796,7.7581,7.7035,7.4832,7.3806,7.3942,7.5218,7.6558,7.7828,7.6567,7.4794,7.2547,7.1073,6.8866,6.5876,6.5022,6.3873,6.2329,6.1527,6.0119,5.7857,5.3689,4.9984,0.0,4.3547,0.0,0.0,0.0,0.0,0.0,0.0,0.0,0.0,4.9856,5.1337,5.2893,5.6614,5.9034,5.9276,6.0685,6.2309,6.3998,6.4191,6.5137,6.7522,6.8356,6.8998,6.9771,7.0475,7.1245,7.2003,7.2377,7.3147,7.4706,7.4962,7.512,7.6313,7.6438,7.6521,7.6875,7.7031,7.7148,7.7109,7.7148,7.7148,7.7148,7.7187,7.7226,7.7226,7.7226,7.7226,7.7226,7.7226,7.7226,7.7226,7.7226,7.7226,7.7187,7.7109,7.707,7.707,7.7031,7.7226,8.9197,8.905,8.7435,8.7142,8.7655,8.6848,8.6151,8.5563,8.5573,8.4657,8.3243,8.3399,8.2486,8.0855,8.1385,8.0955,7.98,7.98,7.9764,7.9827,7.9764,7.981,7.9792,7.9663,7.958,7.9507,7.8736,7.8369,7.8332,7.8686,7.8154,7.6965,7.787,7.7647,0.0,0.0,0.0,0.0,7.5271,7.577,7.5469,7.3135,7.1303,6.9943,6.8139,0.0,6.491,6.4718,6.4114,6.313,6.2909,0.0,0.0,0.0,0.0,0.0,0.0,0.0,0.0,0.0,0.0,0.0,5.4649,5.3486,5.1513,5.51,5.8004,5.9051,6.1094,6.2935,6.4345,6.5331,6.6332,6.7385,6.8075,6.896,7.0102,7.0333,7.0514,7.0629,7.0821,7.0975,7.1206,7.1783,7.2696,7.3944,7.4533,7.5351,7.6659,7.6842,7.682,7.6914,7.6953,7.6894,7.6725,7.6809,7.6875,7.6953,7.7109,7.7187,7.7187,7.7226,7.7226,7.7226,7.7226,7.7226,7.7226,7.7226,7.7226,7.7226,7.7226,7.7226,7.7226,7.7226,7.7226,9.0005,0.0,8.872,8.8426,0.0,8.7945,8.7325,8.6958,8.6559,8.5912,8.5076,8.4262,8.3448,8.2634,8.2264,8.1711,8.0975,8.0975,8.0975,8.0975,8.0975,8.0947,8.0992,8.058,8.0388,8.0351,7.958,7.8956,7.8614,7.9425,7.9198,7.7953,7.9201,7.9361,7.8523,7.7581,7.638,7.4908,7.523,7.5621,7.6043,7.4942,7.325,7.1073,0.0,0.0,0.0,0.0,0.0,0.0,0.0,0.0,0.0,0.0,0.0,5.7588,5.5972,5.5203,5.5665,5.6829,5.8451,6.0586,6.1911,6.1019,5.7238,6.0455,6.3026,6.3847,6.5077,6.6359,6.7654,6.8501,6.9167,6.9602,7.0025,7.0448,7.0821,7.0898,7.0898,7.0898,7.0898,7.0898,7.0898,7.1668,7.2619,7.3647,7.4411,7.5324,7.6475,7.6764,7.6793,7.6863,7.6917,7.6687,7.6121,7.6028,7.6166,7.625,7.6328,7.6601,7.7109,7.7226,7.7226,7.7226,7.7226,7.7226,7.7226,7.7226,7.7226,7.7226,7.7226,7.7226,7.7226,7.7226,7.7226,9.0702,9.0739,8.9821,8.9528,8.9564,8.8753,8.8313,8.8096,0.0,0.0,0.0,8.471,8.4073,8.4472,8.305,8.2406,8.2406,8.226,8.2186,8.2186,8.2186,8.2186,8.215,8.1525,8.1232,8.1158,8.0388,7.9717,7.9265,8.0189,8.0301,7.9772,8.0767,8.1222,8.0915,7.9935,7.8426,7.6495,7.5432,7.5602,7.6994,7.7067,7.5651,7.2713,7.2051,6.9913,6.6067,6.5219,6.3777,6.1607,6.1464,6.1219,6.0666,6.0468,6.0776,6.1627,6.182,6.2243,6.2935,6.3892,6.4802,6.5653,6.7641,6.733,6.3702,6.5512,6.7051,6.773,6.841,6.9129,6.9848,7.0475,7.0898,7.0898,7.0898,7.0898,7.0898,7.0898,7.0898,7.0898,7.0898,7.0898,7.0937,7.1822,7.2745,7.3686,7.4615,7.5476,7.6326,7.6614,7.666,7.6736,7.6543,7.6178,7.5446,7.5104,7.5154,7.5547,7.5625,7.5976,7.6875,7.7226,7.7226,7.7226,7.7226,7.7226,7.7226,7.7226,7.7226,7.7226,7.7226,7.7226,7.7226,7.7226,7.7226,9.0996,9.151,9.0041,8.9821,9.0372,8.9564,8.8864,8.8129,8.7325,8.698,8.6817,8.589,8.5466,8.5387,8.3898,8.3251,8.3214,8.2517,8.2186,0.0,8.2186,8.2186,8.2186,8.2076,8.2039,8.1966,8.1232,8.1096,8.1474,8.1482,8.14,8.1189,8.1785,8.1607,8.0598,8.0358,7.994,7.9216,7.6374,7.5306,7.608,7.4535,7.303,7.1667,7.0708,6.8744,6.5999,6.5856,6.5205,6.4139,6.4063,6.4346,6.4936,6.4321,6.4283,6.5128,6.582,6.6244,6.6397,6.7885,6.9155,6.9937,7.036,6.9986,6.8806,6.9602,7.0244,7.036,7.0398,7.0591,7.0744,7.0821,7.0898,7.0898,7.0898,7.0898,7.0898,7.0898,7.0898,7.0898,7.0898,7.0937,7.1091,7.2283,7.336,7.386,7.4819,7.5908,7.6226,7.6486,7.6517,7.6333,7.575,7.5204,7.4774,7.4329,7.4462,7.5233,7.5435,7.5859,7.7031,7.7226,7.7226,7.7226,7.7226,7.7226,7.7226,7.7226,7.7226,7.7226,7.7226,7.7226,7.7226,7.7226,7.7226,9.1473,9.1693,9.1033,9.0922,9.1179,9.0408,8.9601,8.8827,8.8457,8.8171,8.7961,8.6919,8.6557,8.6686,8.4865,8.4058,8.4022,8.3654,8.3317,8.2839,8.2847,8.2627,8.2223,8.2186,8.2186,8.215,8.1856,8.1785,8.196,8.2209,8.2278,8.2185,8.2702,8.2338,8.1198,8.1132,8.0672,7.9727,7.7414,7.6707,7.7787,7.6874,7.6062,7.5472,7.442,7.3091,7.1437,7.0529,6.9617,6.8751,6.8723,6.8905,6.9283,6.8921,6.8883,6.9283,6.9629,6.9667,6.9167,7.0348,7.1195,7.158,7.2052,7.2178,7.1804,7.1217,7.0898,7.0898,7.0898,7.0898,7.0898,7.0898,7.0898,7.0898,7.0898,7.0898,7.0898,7.0898,7.0898,7.0937,7.1321,7.1591,7.1601,7.2717,7.3553,7.3745,7.4668,7.5447,7.6053,7.6207,7.6276,7.6244,7.5948,7.5215,7.4312,7.384,7.3944,7.4494,7.4661,7.541,7.6758,7.7226,7.7226,7.7226,7.7226,7.7226,7.7226,7.7226,7.7226,7.7226,7.7226,7.7226,7.7226,7.7226,7.7226,9.1803,9.1803,9.1803,9.1803,9.173,9.1143,9.0445,8.9709,8.9813,8.9563,8.8972,8.7769,8.7453,8.7694,8.5805,8.4866,8.4866,8.4682,8.4308,8.3684,8.3654,8.3361,8.2774,8.2737,8.2663,8.248,8.248,8.2437,8.2518,8.2987,8.3195,8.3219,8.35,8.3102,8.199,8.1852,8.1305,8.0314,7.8699,7.8485,7.9642,7.9564,7.9367,7.9054,7.8289,7.7361,7.6284,7.4879,7.3658,7.2832,7.2582,7.2506,7.2514,7.2486,7.2524,7.2514,7.2476,7.2206,7.1618,7.2118,7.2503,7.2476,7.3129,7.3486,7.338,7.2294,7.1475,7.1475,7.1552,7.1552,7.1552,7.1541,7.1503,7.1503,7.1503,7.158,7.1503,7.1475,7.1475,7.1552,7.2091,7.2437,7.2409,7.2947,7.3553,7.386,7.4332,7.5024,7.5784,7.5976,7.6053,7.6092,7.5938,7.5091,7.3735,7.3339,7.352,7.3867,7.4298,7.5339,7.668,7.7226,7.7226,7.7226,7.7226,7.7226,7.7226,7.7226,7.7226,7.7226,7.7226,7.7226,7.7226,7.7226,7.7226,9.1803,9.1803,9.1803,9.1803,9.1767,9.1693,9.1179,9.0625,9.1186,9.064,8.9286,8.833,8.8055,8.7883,8.6398,8.5673,8.5637,8.4939,8.4572,8.4499,8.4499,8.4425,8.4315,8.4315,8.3985,8.3361,8.3287,8.3557,8.3903,8.4028,8.429,8.4579,8.417,8.3524,8.282,8.226,8.1966,8.1929,8.0388,7.9792,8.029,8.0321,8.0102,7.9729,7.9638,7.8784,7.7275,7.6313,7.5361,7.4524,7.3803,7.3418,7.3399,7.3399,7.3399,7.3399,7.336,7.335,7.3224,7.3328,7.3388,7.338,7.3495,7.3611,7.3572,7.3399,7.3245,7.3245,7.3245,7.3129,7.3273,7.3185,7.307,7.3031,7.307,7.3262,7.3185,7.3273,7.3245,7.3262,7.335,7.3129,7.264,7.3101,7.3783,7.4399,7.4562,7.5024,7.5822,7.5976,7.5976,7.5784,7.487,7.3947,7.3476,7.2965,7.3201,7.3921,7.4834,7.5815,7.6797,7.7226,7.7226,7.7226,7.7226,7.7226,7.7226,7.7226,7.7226,7.7226,7.7226,7.7226,7.7226,7.7226,7.7226,9.1803,9.1803,9.1803,9.1803,9.1803,9.1803,9.1583,9.1397,9.1594,9.1066,9.0076,8.9681,8.9038,8.8046,8.6996,8.6518,8.6481,8.6187,8.5752,8.5348,8.5343,8.5055,8.4657,8.4578,8.4425,8.4132,8.4132,8.4336,8.4871,8.5219,8.5436,8.5522,8.4939,8.4289,8.365,8.3024,8.2582,8.2186,8.1562,8.1242,8.1206,8.0692,8.0676,8.1113,8.0323,7.9515,7.8784,7.7938,7.7092,7.6284,7.5938,7.5515,7.5014,7.4976,7.4745,7.4245,7.3783,7.3476,7.3504,7.3927,7.4235,7.4187,7.4716,7.4985,7.4985,7.4976,7.4976,7.4861,7.4063,7.3514,7.3514,7.3504,7.3504,7.3514,7.3514,7.3707,7.4168,7.3793,7.3668,7.4137,7.4658,7.4668,7.3947,7.3976,7.4322,7.4668,7.4716,7.5062,7.5861,7.5976,7.5976,7.5861,7.4947,7.4101,7.363,7.3416,7.3523,7.4005,7.4896,7.5971,7.6914,7.7187,7.7226,7.7187,7.7187,7.7187,7.7226,7.7226,7.7226,7.7187,7.7226,7.7226,7.7226,7.7226,7.7226,9.1803,9.1803,9.1803,9.195,9.2134,9.1877,9.1803,9.1803,9.1771,9.1333,9.0627,9.055,8.9776,8.8488,8.7673,8.7215,8.7031,8.7031,8.6669,8.6192,8.6151,8.5825,8.5284,8.5275,8.5123,8.4976,8.4939,8.504,8.5462,8.5896,8.6094,8.5978,8.5253,8.4634,8.4136,8.3403,8.2692,8.2223,8.2186,8.2202,8.2127,8.1482,8.1388,8.1866,8.1029,8.04,8.0138,7.9323,7.8592,7.7977,7.7776,7.7237,7.6438,7.6361,7.5976,7.513,7.4553,7.4168,7.4207,7.4707,7.5053,7.5101,7.5668,7.5976,7.5976,7.5976,7.5976,7.5861,7.4899,7.4216,7.4178,7.4399,7.4437,7.4264,7.4495,7.5024,7.5024,7.4802,7.5101,7.5418,7.6198,7.6245,7.5332,7.5053,7.5082,7.512,7.513,7.537,7.6053,7.6169,7.5938,7.5707,7.5062,7.4409,7.3707,7.3955,7.4131,7.4317,7.5041,7.6377,7.707,7.7187,7.6953,7.6797,7.6992,7.6875,7.6406,7.6484,7.7148,7.7148,7.7031,7.6992,7.7187,7.7187,7.7187,9.1803,9.184,9.184,9.2317,9.2978,9.217,9.1803,9.1803,9.1803,9.1398,9.0702,9.0627,9.0149,8.9268,8.85,8.7766,8.7142,8.7105,8.7068,8.6958,8.6921,8.6921,8.6921,8.6885,8.6481,8.5783,8.5747,8.5671,8.5537,8.5934,8.6094,8.6094,8.4983,8.4249,8.4074,8.2979,8.2223,8.2186,8.2186,8.246,8.2983,8.2834,8.2347,8.1688,8.1862,8.1747,8.1054,8.0215,7.9715,7.9677,7.8977,7.8169,7.74,7.7323,7.6976,7.6207,7.6015,7.5938,7.6015,7.613,7.613,7.6092,7.6361,7.6169,7.6476,7.6476,7.6438,7.6092,7.6169,7.5976,7.5938,7.6352,7.6467,7.5899,7.716,7.7198,7.613,7.7032,7.7754,7.7468,7.7737,7.7592,7.6245,7.5967,7.6034,7.6034,7.6005,7.6245,7.6736,7.6506,7.5745,7.5091,7.4678,7.4409,7.3783,7.4302,7.4634,7.4805,7.5674,7.7031,7.7148,7.7109,7.6719,7.6445,7.6719,7.6484,7.5547,7.5703,7.6719,7.6875,7.6445,7.6445,7.707,7.7148,7.7148,9.2941,9.3382,9.3382,9.3308,9.3051,9.2758,9.2317,9.1803,9.1803,9.1657,9.14,9.1363,9.0922,9.0152,8.9895,8.9307,8.8536,8.8023,8.7729,8.7725,8.7252,8.7031,8.7031,8.7031,8.6885,8.6628,8.6554,8.6671,8.7009,8.7503,8.7748,8.744,8.5868,8.4976,8.4689,8.3148,8.2186,8.2186,8.2186,8.2343,8.2721,8.3838,8.405,8.3195,8.2566,8.217,8.1893,8.1554,8.1201,8.0623,8.0785,8.0554,7.9845,7.97,7.9623,7.9323,7.9285,7.9276,7.9259,7.9259,7.9259,7.9259,7.9276,7.9169,7.9246,7.9268,7.9037,7.8584,7.843,7.8237,7.763,7.7468,7.6967,7.6331,7.7015,7.7814,7.7639,7.7724,7.7985,7.86,7.8754,7.8408,7.8323,7.7929,7.7612,7.7622,7.7562,7.7523,7.716,7.6544,7.5736,7.4861,7.4245,7.363,7.2783,7.4252,7.5233,7.5527,7.6172,7.6875,7.7187,7.7226,7.6914,7.6601,7.6719,7.6406,7.5586,7.4844,7.5898,7.6719,7.625,7.5937,7.7031,7.6758,7.6797,9.3712,9.4556,9.441,9.4153,9.3822,9.3308,9.2758,9.2207,9.1913,9.1803,9.1803,9.1803,9.1473,9.1033,9.0996,9.0702,9.0078,8.9124,8.8536,8.8496,8.7729,8.7399,8.7362,8.7142,8.7031,8.7027,8.6936,8.7241,8.7749,8.8141,8.8457,8.8556,8.6714,8.5781,8.5423,8.3648,8.2692,8.2884,8.2737,8.27,8.3153,8.4571,8.5267,8.4632,8.3936,8.3576,8.3548,8.331,8.2925,8.2471,8.2593,8.2362,8.1585,8.1239,8.1093,8.1093,8.1054,8.1085,8.1107,8.1069,8.1069,8.1077,8.1093,8.1068,8.11,8.1077,8.0799,8.0354,8.0208,7.99,7.9477,7.9084,7.8323,7.7331,7.7852,7.8314,7.8177,7.8408,7.91,7.9869,7.9754,7.96,7.9708,7.9507,7.9199,7.9007,7.8946,7.8677,7.813,7.7083,7.5957,7.4899,7.4322,7.3745,7.3196,7.406,7.4664,7.4983,7.6094,7.6758,7.7109,7.7148,7.707,7.6836,7.6562,7.625,7.5586,7.4648,7.5,7.6094,7.5547,7.4844,7.5586,7.6133,7.6289,9.4116,9.5327,9.4666,9.4813,9.507,9.3896,9.3161,9.2905,9.2207,9.1877,9.1803,9.1803,9.173,9.173,9.1657,9.1693,9.1326,9.0152,8.9491,8.9344,8.8573,8.8133,8.8059,8.7435,8.7068,8.7064,8.6931,8.7229,8.7914,8.7984,8.8308,8.8487,8.7406,8.6623,8.6604,8.4614,8.3757,8.4095,8.3728,8.3765,8.4595,8.5287,8.5669,8.5694,8.6029,8.6279,8.6099,8.535,8.485,8.4786,8.4143,8.3259,8.2593,8.1946,8.133,8.1554,8.1362,8.1285,8.1362,8.1477,8.1676,8.165,8.1387,8.1656,8.1804,8.1662,8.1531,8.147,8.1369,8.1215,8.1285,8.1585,8.097,7.9122,7.9691,7.9759,7.8545,7.9554,8.1054,8.0977,8.0823,8.0669,8.0246,8.0362,8.0439,7.9969,7.9708,7.96,7.9215,7.7977,7.6506,7.5245,7.4284,7.3581,7.3619,7.3817,7.3889,7.4219,7.5664,7.6719,7.6836,7.6914,7.6953,7.6758,7.6601,7.625,7.5351,7.4453,7.4023,7.457,7.3984,7.414,7.5039,7.5742,7.582,9.5364,9.6282,9.6061,9.5768,9.5474,9.496,9.4189,9.3125,9.2794,9.2354,9.1877,9.1803,9.1803,9.1803,9.1803,9.1803,9.173,9.1216,9.0776,9.0152,8.9451,8.872,8.8243,8.7945,8.7578,8.7169,8.745,8.8072,8.8631,8.9079,8.9722,8.995,8.841,8.7536,8.7348,8.5411,8.4364,8.4535,8.4352,8.4389,8.4713,8.5819,8.6505,8.6682,8.8064,8.8901,8.8752,8.7423,8.6698,8.6621,8.6357,8.5824,8.5055,8.4709,8.4555,8.4555,8.4555,8.4555,8.4516,8.4478,8.4439,8.4522,8.445,8.4527,8.4527,8.4439,8.4164,8.3785,8.3676,8.3522,8.3016,8.3016,8.2131,7.9661,8.0392,8.0662,7.9477,8.0208,8.0977,8.1093,8.1093,8.0939,8.0785,8.1054,8.0939,8.0669,8.0177,7.9869,7.9561,7.81,7.6447,7.563,7.4476,7.3696,7.3927,7.3812,7.3459,7.3819,7.5039,7.6172,7.6367,7.6601,7.668,7.6758,7.6562,7.6015,7.5078,7.4453,7.4023,7.375,7.3789,7.4336,7.5156,7.543,7.543,9.5988,9.6685,9.6722,9.6428,9.5914,9.5658,9.496,9.3969,9.3345,9.2794,9.2317,9.1913,9.1803,9.1803,9.1803,9.1803,9.1803,9.1803,9.1546,9.0959,9.026,8.9598,8.8977,8.8423,8.7982,8.7504,8.7608,8.819,8.9122,8.9487,9.0073,9.0339,8.9146,8.8186,8.7848,8.6064,8.517,8.5416,8.5196,8.5196,8.5625,8.6426,8.6968,8.7155,8.8768,8.9638,8.9654,8.9072,8.8666,8.8353,8.8051,8.7589,8.7094,8.7017,8.694,8.6632,8.6555,8.6401,8.617,8.5901,8.6094,8.6094,8.6094,8.6055,8.6094,8.6094,8.5824,8.5478,8.5291,8.5099,8.4632,8.4555,8.3593,8.1939,8.1932,8.1631,8.0977,8.0631,8.0785,8.0939,8.1093,8.1093,8.1093,8.1093,8.1093,8.1016,8.0638,8.0285,7.9939,7.8715,7.7677,7.663,7.5438,7.4822,7.4476,7.3937,7.3178,7.3611,7.4336,7.5195,7.5703,7.6094,7.6289,7.664,7.664,7.582,7.4922,7.4453,7.4062,7.3906,7.3555,7.3906,7.4375,7.4765,7.4922,9.6025,9.6685,9.6722,9.6685,9.6539,9.5951,9.5511,9.518,9.4006,9.3308,9.3015,9.2354,9.195,9.1913,9.1877,9.1803,9.1803,9.1803,9.1767,9.151,9.0959,9.0519,9.0225,8.9014,8.8316,8.8023,8.7504,8.791,8.9069,8.9136,8.9476,9.0007,8.9418,8.8759,8.7946,8.6582,8.6306,8.6742,8.6407,8.6518,8.7105,8.7178,8.7247,8.7316,8.8708,8.9484,8.9537,9.0287,9.0594,8.9906,8.909,8.8666,8.8632,8.8671,8.8171,8.7517,8.7478,8.7094,8.6517,8.6517,8.6401,8.6324,8.6324,8.6132,8.6132,8.6094,8.6055,8.5978,8.5978,8.6017,8.594,8.5901,8.544,8.4945,8.3824,8.3009,8.2355,8.1047,8.0777,8.1093,8.117,8.1093,8.1093,8.1093,8.1093,8.1054,8.0939,8.0708,8.0662,7.9785,7.9292,7.813,7.6669,7.6015,7.563,7.4447,7.3678,7.3366,7.3837,7.42,7.5202,7.5742,7.6328,7.664,7.668,7.5742,7.5039,7.4648,7.3906,7.3242,7.3125,7.3242,7.3555,7.4023,7.4375,9.6502,9.6685,9.6722,9.6722,9.6685,9.6465,9.6025,9.5511,9.507,9.4446,9.3896,9.3125,9.2721,9.2684,9.206,9.1803,9.1803,9.1803,9.1803,9.1767,9.162,9.1143,9.052,8.9566,8.8793,8.8316,8.8092,8.8329,8.9054,8.9197,8.9514,9.0035,8.9421,8.8756,8.8066,8.7628,8.7659,8.7919,8.8283,8.8463,8.8647,8.8683,8.8793,8.8897,9.0109,9.0547,9.0169,9.0758,9.0752,8.9983,8.9713,8.9286,8.8863,8.879,8.8675,8.844,8.8325,8.8248,8.8051,8.7935,8.7666,8.7127,8.7089,8.6781,8.6132,8.6094,8.6094,8.6094,8.6094,8.6094,8.6094,8.6094,8.594,8.5709,8.4593,8.3632,8.317,8.2355,8.1778,8.19,8.1477,8.1208,8.1093,8.1093,8.1093,8.1016,8.0746,8.0516,8.0669,8.0169,7.9292,7.91,7.8092,7.7361,7.6553,7.5255,7.4255,7.3476,7.3355,7.3202,7.4483,7.5703,7.6445,7.7109,7.7031,7.6367,7.5625,7.5078,7.4023,7.3164,7.2851,7.3047,7.3242,7.3594,7.3672,9.6722,9.6722,9.6722,9.6722,9.6722,9.6722,9.6428,9.5988,9.5621,9.529,9.4703,9.3969,9.3418,9.3051,9.2574,9.2134,9.184,9.1803,9.1803,9.1803,9.1767,9.1546,9.096,9.0298,8.9674,8.9234,8.8867,8.9284,8.9964,8.9838,8.9856,9.0028,8.9478,8.8576,8.766,8.8051,8.8214,8.8324,8.8945,8.9417,8.9417,8.9417,8.9381,8.9657,9.0819,9.1408,9.1281,9.1567,9.1325,9.0636,9.0406,9.0213,8.9825,8.9752,8.9598,8.9286,8.921,8.9094,8.8748,8.8666,8.8474,8.8051,8.7935,8.7512,8.6896,8.6632,8.6594,8.617,8.6094,8.6094,8.6094,8.6094,8.6094,8.5978,8.5214,8.4522,8.4209,8.3362,8.2708,8.2324,8.19,8.1439,8.117,8.1093,8.1093,8.1016,8.0785,8.0823,8.09,8.0023,7.9561,7.9561,7.9285,7.8554,7.7669,7.6476,7.4562,7.3707,7.2783,7.2619,7.3966,7.5508,7.6367,7.6992,7.7109,7.6953,7.6172,7.5508,7.4922,7.414,7.3398,7.3008,7.3242,7.3125,7.3203,9.6722,9.6722,9.6722,9.6722,9.6722,9.6722,9.6685,9.6539,9.5988,9.5694,9.5437,9.4777,9.4116,9.3345,9.3345,9.2831,9.2134,9.2134,9.1877,9.184,9.1803,9.173,9.162,9.1033,9.0592,9.0298,8.9821,9.035,9.0851,9.0599,9.0464,9.0419,8.9763,8.8666,8.8043,8.8209,8.847,8.8764,8.9494,8.9931,8.9968,8.9968,8.9968,9.0177,9.1119,9.2185,9.2525,9.2669,9.2245,9.1364,9.1248,9.1095,9.1095,9.1133,9.0787,9.021,9.0017,8.9787,8.921,8.921,8.8979,8.8863,8.882,8.8469,8.7743,8.7396,8.7012,8.644,8.617,8.6094,8.6094,8.6094,8.6094,8.6055,8.5978,8.5709,8.5099,8.4286,8.3401,8.2593,8.2401,8.1932,8.1362,8.1093,8.1093,8.1093,8.09,8.0977,8.1054,8.0708,8.0484,8.0631,8.0208,7.9561,7.8707,7.7737,7.5553,7.3822,7.2552,7.2327,7.3721,7.5078,7.6055,7.6719,7.707,7.6992,7.6484,7.5898,7.539,7.4531,7.3437,7.3359,7.3437,7.2969,7.2812,9.6722,9.6722,9.6722,9.6722,9.6722,9.6722,9.6722,9.6685,9.6502,9.6355,9.6245,9.5584,9.5107,9.4887,9.4299,9.3896,9.3529,9.3015,9.2501,9.1803,9.1803,9.1803,9.1767,9.151,9.1179,9.0739,9.0445,9.088,9.1282,9.1132,9.0792,9.1181,9.0512,8.977,8.903,8.942,9.0081,9.0227,9.0813,9.1143,9.1143,9.1143,9.1178,9.1318,9.2151,9.3173,9.4062,9.3823,9.3054,9.2284,9.1633,9.1287,9.121,9.121,9.1056,9.0941,9.0864,9.0787,9.0671,9.0479,9.0325,8.9713,8.9633,8.929,8.8483,8.7825,8.744,8.6978,8.6555,8.6209,8.6094,8.6094,8.6094,8.6094,8.6094,8.6017,8.5747,8.5099,8.4253,8.3445,8.2708,8.2009,8.1246,8.1093,8.1093,8.1093,8.1093,8.1093,8.1093,8.1093,8.1093,8.1093,8.0823,8.0131,7.9092,7.7852,7.5553,7.386,7.2657,7.2569,7.393,7.4883,7.5937,7.664,7.7148,7.6914,7.664,7.5859,7.5234,7.4336,7.3555,7.332,7.3086,7.2695,7.2539,9.6722,9.6722,9.6722,9.6722,9.6722,9.6722,9.6722,9.6722,9.6722,9.6722,9.6612,9.6208,9.5878,9.5511,9.5034,9.4703,9.4153,9.3455,9.2611,9.195,9.1803,9.1803,9.1803,9.1767,9.1546,9.1252,9.1565,9.2044,9.2429,9.1978,9.1847,9.2011,9.1055,9.0105,8.9624,9.019,9.0484,9.0667,9.1363,9.1803,9.1803,9.1803,9.2294,9.2849,9.3501,9.4342,9.483,9.4595,9.3864,9.3095,9.2287,9.1595,9.1248,9.121,9.121,9.121,9.121,9.121,9.1171,9.1171,9.0979,9.0559,9.0482,9.0021,8.9483,8.879,8.8171,8.7555,8.6978,8.6555,8.617,8.6094,8.6094,8.6094,8.6094,8.6094,8.6017,8.5709,8.4945,8.3912,8.3208,8.2317,8.1631,8.1246,8.1093,8.1093,8.1093,8.1093,8.1093,8.1093,8.1093,8.1093,8.1093,8.0554,7.94,7.7707,7.5284,7.3822,7.2811,7.3378,7.4655,7.5314,7.5937,7.6562,7.7226,7.7226,7.6875,7.5976,7.5234,7.457,7.3945,7.332,7.2773,7.2539,7.2383,9.6722,9.6722,9.6722,9.6722,9.6722,9.6722,9.6722,9.6722,9.6722,9.6722,9.6722,9.6722,9.6282,9.5841,9.5731,9.518,9.4336,9.3675,9.2905,9.1877,9.1803,9.1803,9.1803,9.1767,9.1767,9.1912,9.2424,9.3176,9.3368,9.3201,9.2596,9.2523,9.1432,9.0638,9.0184,9.041,9.0923,9.1033,9.151,9.1803,9.1803,9.1839,9.2498,9.3784,9.4554,9.5064,9.5253,9.5174,9.4828,9.3945,9.3133,9.2287,9.1633,9.1248,9.121,9.121,9.121,9.121,9.121,9.121,9.1171,9.121,9.1171,9.0864,9.0252,8.9752,8.8983,8.8055,8.7248,8.6709,8.6209,8.6094,8.6094,8.6094,8.6094,8.6094,8.6094,8.6094,8.5291,8.4253,8.3555,8.2778,8.1893,8.1285,8.117,8.1093,8.1093,8.1093,8.1093,8.1093,8.1093,8.1093,8.1093,8.0015,7.8823,7.7746,7.5322,7.4081,7.3042,7.3921,7.5027,7.5446,7.5976,7.6758,7.7226,7.7226,7.707,7.6445,7.5703,7.5,7.4492,7.4023,7.3281,7.2461,7.2461,9.6722,9.6722,9.6722,9.6722,9.6722,9.6722,9.6722,9.6722,9.6722,9.6722,9.6722,9.6722,9.6612,9.6465,9.6502,9.5694,9.452,9.3896,9.3125,9.1987,9.1803,9.1803,9.1803,9.1803,9.1803,9.2018,9.2566,9.3077,9.3202,9.3028,9.2952,9.2778,9.2017,9.136,9.1288,9.1546,9.151,9.1473,9.1693,9.1767,9.1803,9.2089,9.2728,9.4157,9.4915,9.5462,9.5944,9.6019,9.5674,9.4828,9.3945,9.3136,9.2364,9.1672,9.1325,9.121,9.121,9.121,9.121,9.121,9.121,9.121,9.121,9.121,9.0825,9.0329,8.9556,8.844,8.7209,8.6324,8.6132,8.6094,8.6094,8.6094,8.6094,8.6094,8.6094,8.6017,8.5786,8.483,8.4087,8.3233,8.2278,8.1439,8.117,8.1093,8.1093,8.1093,8.1093,8.1093,8.1093,8.1093,8.1093,7.9592,7.7946,7.7053,7.5592,7.4533,7.3817,7.4127,7.5015,7.5413,7.5976,7.6836,7.7226,7.7226,7.6992,7.668,7.6211,7.5508,7.5117,7.4765,7.414,7.3515,7.3359,9.6722,9.6722,9.6722,9.6722,9.6722,9.6722,9.6722,9.6722,9.6722,9.6722,9.6722,9.6722,9.6722,9.6722,9.6722,9.5804,9.4556,9.3786,9.2978,9.1987,9.1803,9.1803,9.1803,9.1803,9.1803,9.2018,9.2566,9.2987,9.2987,9.2987,9.2987,9.2793,9.2229,9.1803,9.1803,9.173,9.1803,9.1803,9.1803,9.1803,9.1983,9.2431,9.361,9.4528,9.5318,9.5902,9.6174,9.6288,9.6134,9.5558,9.4828,9.3982,9.3172,9.2326,9.1633,9.1325,9.121,9.121,9.121,9.121,9.121,9.121,9.121,9.121,9.1133,9.0748,8.994,8.8743,8.7671,8.6555,8.617,8.6094,8.6094,8.6094,8.6094,8.6094,8.6094,8.6094,8.5824,8.533,8.4324,8.3317,8.2394,8.1739,8.1246,8.1093,8.1093,8.1093,8.1093,8.1093,8.1093,8.1093,8.1016,7.9946,7.8369,7.7254,7.6388,7.535,7.4513,7.4881,7.5449,7.6069,7.6466,7.7031,7.7187,7.7226,7.7148,7.6953,7.6484,7.6055,7.5703,7.539,7.5,7.4648,7.4375,9.6722,9.6722,9.6722,9.6722,9.6722,9.6722,9.6722,9.6722,9.6722,9.6722,9.6722,9.6722,9.6722,9.6649,9.6355,9.5621,9.4263,9.3492,9.2648,9.195,9.1803,9.1803,9.1803,9.1803,9.1803,9.1912,9.2262,9.2765,9.2699,9.2858,9.2923,9.2566,9.2018,9.1803,9.1803,9.1803,9.1803,9.1803,9.1803,9.1839,9.2331,9.3349,9.4424,9.5189,9.5902,9.6251,9.6288,9.6288,9.6288,9.6019,9.5405,9.4674,9.3941,9.3054,9.2207,9.1595,9.1325,9.121,9.121,9.121,9.121,9.121,9.121,9.121,9.0979,9.0633,8.9979,8.882,8.7627,8.6786,8.6209,8.6094,8.6094,8.6094,8.6094,8.6094,8.6094,8.6094,8.6094,8.5401,8.4362,8.3548,8.274,8.167,8.117,8.1093,8.1093,8.1093,8.1093,8.1093,8.1093,8.1093,8.09,8.0292,7.9138,7.7954,7.7279,7.6643,7.5763,7.5515,7.6216,7.7011,7.7187,7.7187,7.7187,7.7226,7.7226,7.7187,7.6836,7.6523,7.6289,7.6094,7.5898,7.543,7.5,9.6722,9.6722,9.6722,9.6722,9.6722,9.6722,9.6722,9.6722,9.6722,9.6722,9.6722,9.6685,9.6685,9.6502,9.5878,9.5144,9.4226,9.3345,9.2537,9.1877,9.1803,9.1803,9.1803,9.1803,9.1803,9.1767,9.1912,9.1912,9.2159,9.2633,9.2566,9.2089,9.1983,9.1803,9.1803,9.1803,9.1803,9.1803,9.1803,9.2159,9.2858,9.3706,9.4424,9.5234,9.5862,9.6288,9.6288,9.6288,9.6288,9.6211,9.5481,9.4982,9.4595,9.3323,9.2669,9.2133,9.171,9.121,9.1136,9.1136,9.1095,9.1095,9.1133,9.1171,9.0941,9.0056,8.9248,8.8786,8.7325,8.6401,8.617,8.6094,8.6094,8.6094,8.6094,8.6094,8.6094,8.6094,8.6094,8.5555,8.4555,8.3971,8.331,8.2124,8.1093,8.1093,8.1093,8.1093,8.1093,8.1093,8.1093,8.1093,8.1054,8.0523,7.9908,7.8723,7.8104,7.7661,7.6842,7.6172,7.668,7.7226,7.7226,7.7187,7.7226,7.7226,7.7226,7.7187,7.7109,7.6914,7.6562,7.6758,7.6992,7.6406,7.5664,9.6722,9.6722,9.6722,9.6722,9.6722,9.6722,9.6722,9.6722,9.6722,9.6722,9.6722,9.6685,9.6465,9.5988,9.518,9.4373,9.3565,9.2794,9.2207,9.1877,9.1803,9.1803,9.1803,9.1803,9.1803,9.1803,9.1803,9.1839,9.1983,9.2018,9.2089,9.1912,9.1803,9.1803,9.1803,9.1803,9.1803,9.1803,9.1912,9.2431,9.3349,9.3991,9.463,9.5741,9.6136,9.6251,9.6288,9.6288,9.6288,9.6249,9.5865,9.548,9.4903,9.3864,9.3018,9.2441,9.1672,9.1028,9.0723,9.0989,9.0985,9.0825,9.0941,9.121,9.0941,9.0133,8.9094,8.8705,8.7589,8.6709,8.6209,8.6094,8.6094,8.6094,8.6094,8.6094,8.6094,8.6094,8.5978,8.5363,8.4786,8.4164,8.3464,8.224,8.1285,8.1093,8.1093,8.1093,8.1093,8.1093,8.1093,8.1093,8.1054,8.0939,8.0331,7.9485,7.8851,7.8302,7.7411,7.6875,7.6953,7.7226,7.7226,7.7226,7.7226,7.7226,7.7226,7.707,7.6953,7.6875,7.6836,7.6836,7.6836,7.707,7.6328,9.6722,9.6722,9.6722,9.6722,9.6722,9.6722,9.6722,9.6722,9.6722,9.6722,9.6722,9.6685,9.6245,9.5584,9.4923,9.4226,9.3088,9.2391,9.2024,9.1877,9.1803,9.1803,9.1803,9.1803,9.1803,9.1803,9.1803,9.1803,9.1803,9.1839,9.1839,9.1803,9.1803,9.1803,9.1803,9.1803,9.1803,9.1803,9.2089,9.2858,9.3878,9.4319,9.5142,9.5862,9.6288,9.6288,9.6288,9.6288,9.6288,9.6288,9.6249,9.5903,9.5365,9.4287,9.3441,9.2749,9.1902,9.0723,9.0474,9.0551,9.0762,9.0757,9.0713,9.1171,9.1095,9.0402,8.9556,8.8777,8.7858,8.6978,8.6363,8.6094,8.6094,8.6094,8.6094,8.6094,8.6094,8.6094,8.6055,8.5709,8.5055,8.4164,8.3356,8.2278,8.1516,8.117,8.1093,8.1093,8.1093,8.1093,8.1093,8.1093,8.1093,8.1054,8.0785,8.0183,7.9583,7.8787,7.7879,7.7344,7.7226,7.7226,7.7226,7.7226,7.7226,7.7226,7.7226,7.6992,7.6719,7.6562,7.6406,7.6328,7.6445,7.6836,7.7031,9.6722,9.6722,9.6722,9.6722,9.6722,9.6722,9.6722,9.6722,9.6722,9.6722,9.6722,9.6649,9.6245,9.5547,9.5107,9.4336,9.3051,9.3015,9.2427,9.195,9.1803,9.1803,9.1803,9.1803,9.1803,9.1803,9.1803,9.1803,9.1803,9.1803,9.1803,9.1803,9.1803,9.1803,9.1803,9.1803,9.1912,9.2018,9.2468,9.3202,9.4102,9.4768,9.549,9.6059,9.6288,9.6288,9.6288,9.6288,9.6288,9.6288,9.6288,9.6134,9.5557,9.4441,9.3595,9.3018,9.1941,9.0761,9.0225,9.054,9.107,9.1107,9.1171,9.121,9.1133,9.0402,8.959,8.8777,8.7897,8.7017,8.644,8.6094,8.6094,8.6094,8.6094,8.6094,8.6094,8.6094,8.6055,8.594,8.5286,8.4395,8.351,8.2509,8.1631,8.1246,8.1093,8.1093,8.1093,8.1093,8.1093,8.1093,8.1093,8.1093,8.1162,8.0509,7.946,7.8785,7.8036,7.7539,7.7226,7.7226,7.7226,7.7226,7.7226,7.7226,7.7109,7.6719,7.6367,7.6094,7.6015,7.6328,7.6523,7.6875,7.7109,9.6722,9.6722,9.6722,9.6722,9.6722,9.6722,9.6722,9.6722,9.6722,9.6722,9.6649,9.6649,9.5988,9.507,9.4666,9.3859,9.2464,9.2317,9.206,9.1913,9.1803,9.1803,9.1803,9.1803,9.1803,9.1803,9.1803,9.1803,9.1803,9.1803,9.1803,9.1803,9.1803,9.1803,9.1803,9.1875,9.2052,9.2498,9.2923,9.353,9.463,9.501,9.5533,9.6213,9.6288,9.6288,9.6288,9.6288,9.6288,9.6288,9.6288,9.6019,9.5518,9.4326,9.3557,9.3018,9.1825,9.0954,9.0406,9.0818,9.1183,9.1183,9.1171,9.1171,9.1056,9.0402,8.9594,8.8748,8.7902,8.7055,8.6286,8.6094,8.6094,8.6094,8.6094,8.6094,8.6094,8.6094,8.6094,8.5978,8.5324,8.4516,8.367,8.2785,8.1977,8.1285,8.117,8.1093,8.1093,8.1093,8.1093,8.1093,8.1093,8.1208,8.1285,8.037,7.9251,7.8723,7.8203,7.7656,7.7226,7.7226,7.7226,7.7226,7.7226,7.7226,7.6953,7.6367,7.6055,7.5937,7.6289,7.6797,7.6914,7.6992,7.707,9.6722,9.6722,9.6722,9.6722,9.6722,9.6722,9.6539,9.6355,9.6282,9.6135,9.6025,9.6135,9.5437,9.4336,9.4189,9.3382,9.2354,9.2134,9.2024,9.1913,9.1803,9.1803,9.1803,9.1803,9.1803,9.1803,9.1803,9.1803,9.1803,9.1803,9.1803,9.1803,9.1803,9.1803,9.1875,9.2109,9.241,9.2886,9.3589,9.3991,9.5142,9.5451,9.57,9.6251,9.6288,9.6288,9.6288,9.6288,9.6288,9.6288,9.6211,9.5826,9.5057,9.4172,9.3326,9.2518,9.1713,9.1064,9.0723,9.0759,9.0716,9.0444,9.0713,9.0752,9.071,9.0287,8.9594,8.8748,8.7902,8.7055,8.6247,8.6094,8.6094,8.6094,8.6094,8.6094,8.6094,8.6094,8.6094,8.6055,8.5401,8.4901,8.3516,8.2631,8.1823,8.1208,8.117,8.1093,8.1093,8.1093,8.1093,8.1093,8.1093,8.1246,8.1393,8.0184,7.9198,7.9032,7.8437,7.7578,7.7226,7.7226,7.7226,7.7226,7.7226,7.7226,7.7031,7.668,7.6289,7.5937,7.6328,7.6719,7.707,7.7109,7.707,9.6722,9.6722,9.6722,9.6685,9.6612,9.6685,9.6245,9.5694,9.5623,9.5292,9.485,9.5327,9.4777,9.3675,9.3859,9.3161,9.2244,9.2464,9.2464,9.1913,9.1803,9.1803,9.1803,9.1803,9.1803,9.1803,9.1803,9.1803,9.1803,9.1803,9.1803,9.1803,9.1803,9.1803,9.1838,9.253,9.293,9.3213,9.4372,9.4866,9.5407,9.5862,9.6136,9.6251,9.6288,9.6288,9.6288,9.6288,9.6288,9.6288,9.6288,9.5788,9.4826,9.4095,9.3287,9.2364,9.1633,9.0605,8.9438,8.9835,8.9765,8.9569,8.9969,9.0185,9.0144,8.987,8.9486,8.8679,8.7902,8.7055,8.6478,8.6094,8.6094,8.6094,8.6094,8.6094,8.6094,8.6094,8.6094,8.6094,8.594,8.544,8.3747,8.2362,8.1554,8.1093,8.1093,8.1093,8.1093,8.1093,8.1093,8.1093,8.1093,8.1285,8.1214,7.9984,7.9173,7.9101,7.8594,7.7656,7.7226,7.7226,7.7226,7.7226,7.7226,7.7226,7.7226,7.7148,7.6758,7.6367,7.6172,7.6445,7.6875,7.7148,7.707,9.6722,9.6722,9.6722,9.6392,9.5951,9.5878,9.5694,9.5547,9.5474,9.529,9.518,9.5437,9.463,9.3639,9.3198,9.2868,9.2097,9.195,9.1913,9.184,9.1803,9.1803,9.1803,9.1803,9.1803,9.1803,9.1803,9.1803,9.1803,9.1803,9.1803,9.1803,9.1803,9.1803,9.1803,9.2202,9.2579,9.3551,9.4319,9.4866,9.5821,9.6136,9.6288,9.6288,9.6288,9.6288,9.6288,9.6288,9.6288,9.6288,9.6288,9.5634,9.4557,9.371,9.3056,9.2056,9.1213,9.0564,8.9373,8.907,8.8923,8.9023,8.9307,8.9697,8.9995,8.9529,8.9074,8.8605,8.7825,8.694,8.6324,8.6132,8.6094,8.6094,8.6094,8.6094,8.6094,8.6094,8.6094,8.6094,8.6017,8.517,8.3785,8.2285,8.1323,8.1093,8.1093,8.1093,8.1093,8.1093,8.1093,8.1093,8.1131,8.1323,8.1066,7.9968,7.9414,7.9375,7.8594,7.7461,7.7226,7.7226,7.7226,7.7226,7.7226,7.7226,7.7226,7.7187,7.7109,7.6836,7.6601,7.6484,7.6836,7.6992,7.6914,9.5878,9.5914,9.6171,9.5841,9.5217,9.5327,9.5256,9.474,9.4666,9.4556,9.4299,9.4446,9.3896,9.2941,9.2611,9.2464,9.1803,9.1803,9.1803,9.1803,9.1803,9.1803,9.1803,9.1803,9.1803,9.1803,9.1803,9.1803,9.1803,9.1803,9.1803,9.1803,9.1803,9.1803,9.1913,9.2202,9.2885,9.3856,9.4476,9.5142,9.5902,9.6288,9.6288,9.6288,9.6288,9.6288,9.6288,9.6288,9.6288,9.6288,9.6019,9.5441,9.4249,9.348,9.2826,9.1748,9.0605,9.0067,8.9225,8.8147,8.8181,8.8598,8.8959,8.927,8.9569,8.9189,8.8921,8.8451,8.7598,8.6863,8.6247,8.6094,8.6094,8.6094,8.6094,8.6094,8.6094,8.6094,8.6094,8.6094,8.5824,8.4901,8.3785,8.2401,8.1131,8.1093,8.1093,8.1093,8.1093,8.1093,8.1093,8.1093,8.1131,8.1285,8.0962,8.0051,7.9648,7.9687,7.8594,7.7305,7.7226,7.7226,7.7226,7.7226,7.7226,7.7226,7.7226,7.7187,7.7109,7.707,7.6953,7.6914,7.6914,7.6858,7.6784,9.4299,9.441,9.5144,9.4997,9.4446,9.4813,9.4411,9.3198,9.3235,9.2758,9.206,9.3051,9.2831,9.2024,9.184,9.184,9.1803,9.1803,9.1803,9.1803,9.1803,9.1803,9.1803,9.1803,9.1803,9.1803,9.1803,9.1803,9.1803,9.1803,9.1803,9.1803,9.1803,9.1803,9.195,9.2314,9.3136,9.3934,9.4528,9.5273,9.6059,9.6288,9.6288,9.6288,9.6288,9.6288,9.6288,9.6288,9.6288,9.6249,9.6134,9.5134,9.4287,9.3672,9.2595,9.1414,8.9977,8.9377,8.8963,8.7958,8.7542,8.8109,8.884,8.907,8.9108,8.896,8.8577,8.8111,8.7401,8.6709,8.6094,8.6094,8.6094,8.6094,8.6094,8.6094,8.6094,8.6094,8.6094,8.5978,8.5747,8.4901,8.3478,8.2131,8.1093,8.1093,8.1093,8.1093,8.1093,8.1093,8.1093,8.1093,8.1131,8.1246,8.0733,7.9934,7.9414,7.9258,7.8281,7.7226,7.7226,7.7226,7.7226,7.7226,7.7226,7.7226,7.7226,7.7187,7.7187,7.7109,7.7031,7.664,7.6484,7.668,7.6659,9.4299,9.4336,9.452,9.4189,9.3455,9.3051,9.2868,9.3051,9.3125,9.2905,9.2758,9.2978,9.2537,9.184,9.1803,9.1803,9.1803,9.1803,9.1803,9.1803,9.1803,9.1803,9.1803,9.1803,9.1803,9.1803,9.1803,9.1803,9.1803,9.1803,9.1803,9.1803,9.1803,9.1803,9.1877,9.206,9.3007,9.3819,9.4341,9.5189,9.5981,9.6288,9.6288,9.6288,9.6288,9.6288,9.6288,9.6288,9.6288,9.6288,9.5672,9.4747,9.3903,9.3172,9.2249,9.1256,9.0028,8.9069,8.8985,8.8307,8.7678,8.7847,8.8796,8.9638,8.9497,8.8882,8.8301,8.7808,8.7132,8.6363,8.6094,8.6094,8.6094,8.6094,8.6094,8.6094,8.6094,8.6094,8.6055,8.5709,8.5478,8.4324,8.2939,8.1977,8.1093,8.1093,8.1093,8.1093,8.1093,8.1093,8.1093,8.1093,8.1093,8.1131,8.0546,7.9765,7.9258,7.8711,7.7851,7.7226,7.7226,7.7226,7.7226,7.7226,7.7226,7.7226,7.7226,7.7187,7.7187,7.7043,7.6914,7.6445,7.6094,7.6328,7.6236,9.3308,9.3345,9.3712,9.3529,9.2978,9.217,9.2134,9.2537,9.2574,9.2574,9.2611,9.2574,9.2281,9.1877,9.1803,9.1803,9.1803,9.1803,9.1803,9.1803,9.1803,9.1803,9.1803,9.1803,9.1803,9.1803,9.1803,9.1803,9.1803,9.1803,9.1803,9.1803,9.1803,9.1803,9.1803,9.1913,9.252,9.3338,9.4123,9.4991,9.57,9.6288,9.6288,9.6288,9.6288,9.6288,9.6288,9.6288,9.6288,9.6172,9.5478,9.4631,9.3522,9.2488,9.149,9.0523,8.9476,8.8775,8.8483,8.7984,8.7613,8.7792,8.8511,8.9023,8.9228,8.873,8.8346,8.7875,8.6868,8.6094,8.6094,8.6094,8.6094,8.6094,8.6094,8.6094,8.6094,8.6094,8.5824,8.544,8.4632,8.3548,8.2477,8.1593,8.1131,8.1093,8.1093,8.1093,8.1093,8.1093,8.1093,8.1093,8.1016,8.097,8.0284,7.9609,7.9062,7.8476,7.7812,7.7344,7.7265,7.7226,7.7226,7.7226,7.7226,7.7226,7.7226,7.7187,7.7172,7.6987,7.6749,7.6289,7.6015,7.6094,7.5764,9.1948,9.2022,9.2794,9.3015,9.2868,9.2097,9.184,9.1803,9.1877,9.1803,9.1877,9.184,9.1877,9.1803,9.1803,9.1803,9.1803,9.1803,9.1803,9.1803,9.1803,9.1803,9.1803,9.1803,9.1803,9.1803,9.1803,9.1803,9.1803,9.1803,9.1803,9.1803,9.1803,9.1803,9.1803,9.1803,9.2377,9.3397,9.4047,9.4768,9.5741,9.6213,9.6288,9.6288,9.6288,9.6288,9.6288,9.6288,9.6288,9.5942,9.5326,9.4403,9.291,9.1552,9.0536,8.983,8.8963,8.8446,8.8148,8.7799,8.7657,8.7683,8.7939,8.8256,8.8308,8.8345,8.799,8.7602,8.6709,8.6209,8.6094,8.6094,8.6094,8.6094,8.6094,8.6094,8.6094,8.5863,8.5324,8.4824,8.3933,8.2855,8.2093,8.1285,8.1093,8.1093,8.1093,8.1093,8.1093,8.1093,8.1054,8.1054,8.0823,8.0577,7.9984,7.9336,7.8828,7.8242,7.7617,7.7344,7.7226,7.7226,7.7226,7.7226,7.7226,7.7226,7.7226,7.7148,7.7043,7.6877,7.6567,7.6118,7.5928,7.5985,7.5562,9.2699,9.2699,9.2922,9.2732,9.217,9.1877,9.1803,9.1803,9.1803,9.1803,9.1803,9.1803,9.1803,9.1803,9.1803,9.1803,9.1803,9.1803,9.1803,9.1803,9.1803,9.1803,9.1803,9.1803,9.1803,9.1803,9.1803,9.1803,9.1803,9.1803,9.1803,9.1803,9.1803,9.1803,9.1803,9.1803,9.234,9.336,9.3952,9.4476,9.5318,9.602,9.6288,9.6288,9.6288,9.6288,9.6288,9.6288,9.5903,9.5328,9.448,9.3287,9.1828,9.0704,9.0174,8.9847,8.8856,8.8261,8.8031,8.7836,8.7687,8.7593,8.7673,8.7541,8.7504,8.7648,8.7521,8.7171,8.6786,8.6363,8.6094,8.6094,8.6094,8.6094,8.6094,8.6094,8.6055,8.5478,8.4901,8.3978,8.3125,8.2432,8.167,8.1323,8.117,8.1093,8.1093,8.1093,8.1093,8.1093,8.1016,8.09,8.0446,8.0106,7.9585,7.9023,7.8437,7.7969,7.7422,7.7265,7.7226,7.7226,7.7226,7.7226,7.7226,7.7187,7.7109,7.7031,7.6897,7.6722,7.6546,7.6149,7.5976,7.5995,7.5505,9.2468,9.2468,9.2431,9.2229,9.1839,9.1803,9.1803,9.1803,9.1803,9.1803,9.1803,9.1803,9.1803,9.1803,9.1803,9.1803,9.1803,9.1803,9.1803,9.1803,9.1803,9.1803,9.1803,9.1803,9.1803,9.1803,9.1803,9.1803,9.1803,9.1803,9.1803,9.1803,9.1803,9.1803,9.1803,9.1912,9.2192,9.3051,9.3764,9.4372,9.4915,9.5619,9.6251,9.6288,9.6288,9.6288,9.6288,9.6249,9.5751,9.4866,9.3866,9.2674,9.1375,9.0263,8.9697,8.9377,8.8746,8.807,8.812,8.7969,8.7715,8.7598,8.7146,8.689,8.677,8.6868,8.6791,8.6517,8.644,8.6094,8.6094,8.6094,8.6094,8.6094,8.6017,8.5978,8.567,8.517,8.4247,8.3131,8.2509,8.2163,8.1554,8.1208,8.1093,8.1093,8.1093,8.1093,8.1131,8.1016,8.0939,8.0708,8.0215,7.9869,7.9509,7.8789,7.8047,7.7578,7.7226,7.7226,7.7226,7.7226,7.7226,7.7187,7.7148,7.707,7.6992,7.6875,7.6701,7.6507,7.6388,7.6207,7.6092,7.587,7.5272,9.2055,9.1983,9.1983,9.1912,9.1803,9.1803,9.1803,9.1803,9.1803,9.1803,9.1803,9.1803,9.1803,9.1803,9.1803,9.1803,9.1803,9.1803,9.1803,9.1803,9.1803,9.1803,9.1803,9.1803,9.1803,9.1803,9.1803,9.1803,9.1803,9.1803,9.1803,9.1803,9.1803,9.1803,9.1803,9.1876,9.2089,9.2821,9.353,9.4211,9.4866,9.5533,9.6059,9.6288,9.6288,9.6288,9.6288,9.6057,9.5674,9.452,9.3215,9.2174,9.122,9.0169,8.9725,8.9263,8.8856,8.8361,8.8058,8.7921,8.7709,8.7375,8.6684,8.6338,8.6286,8.6209,8.617,8.617,8.6094,8.6094,8.6094,8.6094,8.6094,8.5978,8.5863,8.567,8.5209,8.467,8.3478,8.2324,8.2016,8.1747,8.1477,8.1131,8.1093,8.1093,8.1093,8.1093,8.1054,8.0862,8.0708,8.0292,7.9792,7.9485,7.9169,7.8515,7.7656,7.75,7.7226,7.7226,7.7187,7.7148,7.7109,7.7109,7.7031,7.6914,7.6797,7.668,7.6469,7.636,7.6226,7.613,7.5899,7.561,7.4996,9.2765,9.2728,9.2765,9.2399,9.1839,9.1803,9.1803,9.1803,9.1803,9.1803,9.1803,9.1803,9.1803,9.1803,9.1803,9.1803,9.1803,9.1803,9.1803,9.1803,9.1803,9.1803,9.1803,9.1803,9.1803,9.1803,9.1803,9.1803,9.1803,9.1803,9.1803,9.1803,9.1803,9.1803,9.1803,9.1912,9.2294,9.3028,9.3746,9.4424,9.5533,9.6059,9.6174,9.6288,9.6288,9.6288,9.6134,9.5597,9.4828,9.3714,9.2521,9.1636,9.0952,9.0262,8.973,8.927,8.879,8.8313,8.7922,8.7792,8.7561,8.7019,8.6445,8.6252,8.6209,8.6132,8.6132,8.6132,8.6094,8.6094,8.6094,8.6094,8.6055,8.5819,8.5626,8.5164,8.4703,8.3779,8.2631,8.2016,8.167,8.1439,8.1246,8.1093,8.1093,8.1093,8.1131,8.1131,8.1,8.0739,8.0482,7.9862,7.9292,7.88,7.832,7.7969,7.7383,7.7265,7.7187,7.7187,7.7109,7.7031,7.7002,7.6949,7.6843,7.668,7.6562,7.648,7.6418,7.6265,7.6121,7.5976,7.5784,7.5195,7.4472]},{"header":{"parameterUnit":"m.s-1","parameterCategory":1,"la1":31.0,"la2":29.5877,"lo1":-88.7671,"lo2":-86.6584,"dy":0.0162,"dx":0.0185,"nx":115,"ny":88,"refTime":"2026-04-05T00:00:00:Z","depth":0,"parameterNumber":3,"parameterNumberName":"V-component_of_WINDS"},"data":[0.0,0.0,0.0,0.0,0.0,0.0,0.0,0.0,0.0,0.0,0.0,0.0,0.0,0.0,0.0,0.0,0.0,0.0,0.0,0.0,0.0,0.0,0.0,0.0,0.0,0.0,0.0,0.0,0.0,0.0,0.0,0.0,0.0,0.0,0.0,0.0,0.0,0.0,0.0,0.0,0.0,0.0,0.0,0.0,0.0,0.0,0.0,0.0,0.0,0.0,0.0,0.0,0.0,0.0,0.0,0.0,0.0,0.0,0.0,0.0,0.0,0.0,0.0,0.0,0.0,0.0,0.0,0.0,0.0,0.0,0.0,0.0,0.0,0.0,0.0,0.0,0.0,0.0,0.0,0.0,0.0,0.0,0.0,0.0,0.0,0.0,0.0,0.0,0.0,0.0,0.0,0.0,0.0,0.0,0.0,0.0,0.0,0.0,0.0,0.0,0.0,0.0,0.0,0.0,0.0,0.0,0.0,0.0,0.0,0.0,0.0,0.0,0.0,0.0,0.0,0.0,0.0,0.0,0.0,0.0,0.0,0.0,0.0,0.0,0.0,0.0,0.0,0.0,0.0,0.0,0.0,0.0,0.0,0.0,0.0,0.0,0.0,0.0,0.0,0.0,0.0,0.0,0.0,0.0,0.0,0.0,0.0,0.0,0.0,0.0,0.0,0.0,0.0,0.0,0.0,0.0,0.0,0.0,0.0,0.0,0.0,0.0,0.0,0.0,0.0,0.0,0.0,0.0,0.0,0.0,0.0,0.0,0.0,0.0,0.0,0.0,0.0,0.0,0.0,0.0,0.0,0.0,0.0,0.0,0.0,0.0,0.0,0.0,0.0,0.0,0.0,0.0,0.0,0.0,0.0,0.0,0.0,0.0,0.0,0.0,0.0,0.0,0.0,0.0,0.0,0.0,0.0,0.0,0.0,0.0,0.0,0.0,0.0,0.0,0.0,0.0,0.0,0.0,0.0,0.0,0.0,0.0,0.0,0.0,0.0,0.0,0.0,0.0,0.0,0.0,0.0,0.0,0.0,0.0,0.0,0.0,0.0,0.0,0.0,0.0,0.0,0.0,0.0,0.0,0.0,0.0,0.0,0.0,0.0,0.0,0.0,0.0,0.0,0.0,0.0,0.0,0.0,0.0,0.0,0.0,0.0,0.0,0.0,0.0,0.0,0.0,0.0,0.0,0.0,0.0,0.0,0.0,0.0,0.0,0.0,0.0,0.0,0.0,0.0,0.0,0.0,0.0,0.0,0.0,0.0,0.0,0.0,0.0,0.0,0.0,0.0,0.0,0.0,0.0,0.0,0.0,0.0,0.0,0.0,0.0,0.0,0.0,0.0,0.0,0.0,0.0,0.0,0.0,0.0,0.0,0.0,0.0,0.0,0.0,0.0,0.0,0.0,0.0,0.0,0.0,0.0,0.0,0.0,0.0,0.0,0.0,0.0,0.0,0.0,0.0,0.0,0.0,0.0,0.0,0.0,0.0,0.0,0.0,0.0,0.0,0.0,0.0,0.0,0.0,0.0,0.0,0.0,0.0,0.0,0.0,0.0,0.0,0.0,0.0,0.0,0.0,0.0,0.0,0.0,0.0,0.0,0.0,0.0,0.0,0.0,0.0,0.0,0.0,0.0,0.0,0.0,0.0,0.0,0.0,0.0,0.0,0.0,0.0,0.0,0.0,0.0,0.0,0.0,0.0,0.0,0.0,0.0,0.0,0.0,0.0,0.0,0.0,0.0,0.0,0.0,0.0,0.0,0.0,0.0,0.0,0.0,0.0,0.0,0.0,0.0,0.0,0.0,0.0,0.0,0.0,0.0,0.0,0.0,0.0,0.0,0.0,0.0,0.0,0.0,0.0,0.0,0.0,0.0,0.0,0.0,0.0,0.0,0.0,0.0,0.0,0.0,0.0,0.0,0.0,0.0,0.0,0.0,0.0,0.0,0.0,0.0,0.0,0.0,0.0,0.0,0.0,0.0,0.0,0.0,0.0,0.0,0.0,0.0,0.0,0.0,0.0,0.0,0.0,0.0,0.0,0.0,0.0,0.0,0.0,0.0,0.0,0.0,0.0,0.0,0.0,0.0,0.0,0.0,0.0,0.0,0.0,0.0,0.0,0.0,0.0,0.0,0.0,0.0,0.0,0.0,0.0,0.0,0.0,0.0,0.0,0.0,0.0,0.0,0.0,0.0,0.0,0.0,0.0,0.0,0.0,0.0,0.0,0.0,0.0,0.0,0.0,0.0,0.0,0.0,0.0,0.0,0.0,0.0,0.0,0.0,0.0,0.0,0.0,0.0,0.0,0.0,0.0,0.0,0.0,0.0,0.0,0.0,0.0,0.0,0.0,0.0,0.0,0.0,0.0,0.0,0.0,0.0,0.0,0.0,0.0,0.0,0.0,0.0,0.0,0.0,0.0,0.0,0.0,0.0,0.0,0.0,0.0,0.0,0.0,0.0,0.0,0.0,0.0,0.0,0.0,0.0,0.0,0.0,0.0,0.0,0.0,0.0,0.0,0.0,0.0,0.0,0.0,0.0,0.0,0.0,0.0,0.0,0.0,0.0,0.0,0.0,0.0,0.0,0.0,0.0,0.0,0.0,0.0,0.0,0.0,0.0,0.0,0.0,0.0,0.0,0.0,0.0,0.0,0.0,0.0,0.0,0.0,0.0,0.0,0.0,0.0,0.0,0.0,0.0,0.0,0.0,0.0,0.0,0.0,0.0,0.0,0.0,0.0,0.0,0.0,0.0,0.0,0.0,0.0,0.0,0.0,0.0,0.0,0.0,0.0,0.0,0.0,0.0,0.0,0.0,0.0,0.0,0.0,0.0,0.0,0.0,0.0,0.0,0.0,0.0,0.0,0.0,0.0,0.0,0.0,0.0,0.0,0.0,0.0,0.0,0.0,0.0,0.0,0.0,0.0,0.0,0.0,0.0,0.0,0.0,0.0,0.0,0.0,0.0,0.0,0.0,0.0,0.0,0.0,0.0,0.0,0.0,0.0,0.0,0.0,0.0,0.0,0.0,0.0,0.0,0.0,0.0,0.0,0.0,0.0,0.0,0.0,0.0,0.0,0.0,0.0,0.0,0.0,0.0,0.0,0.0,0.0,0.0,0.0,0.0,0.0,0.0,0.0,0.0,0.0,0.0,0.0,0.0,0.0,0.0,0.0,0.0,0.0,0.0,0.0,0.0,0.0,0.0,0.0,0.0,0.0,0.0,0.0,0.0,0.0,0.0,0.0,0.0,0.0,0.0,0.0,0.0,0.0,0.0,0.0,0.0,0.0,0.0,0.0,0.0,0.0,0.0,0.0,0.0,0.0,0.0,0.0,0.0,0.0,0.0,0.0,0.0,0.0,0.0,0.0,0.0,0.0,0.0,0.0,0.0,0.0,0.0,0.0,0.0,0.0,0.0,0.0,0.0,0.0,0.0,0.0,0.0,0.0,0.0,0.0,0.0,0.0,0.0,0.0,0.0,0.0,0.0,0.0,0.0,0.0,0.0,0.0,0.0,0.0,0.0,0.0,0.0,0.0,0.0,0.0,0.0,0.0,0.0,0.0,0.0,0.0,0.0,0.0,0.0,0.0,0.0,0.0,0.0,0.0,0.0,0.0,0.0,0.0,0.0,0.0,0.0,0.0,0.0,0.0,0.0,0.0,0.0,0.0,0.0,0.0,0.0,0.0,0.0,0.0,0.0,0.0,0.0,0.0,0.0,0.0,0.0,0.0,0.0,0.0,0.0,0.0,0.0,0.0,0.0,0.0,0.0,0.0,0.0,0.0,0.0,0.0,0.0,0.0,0.0,0.0,0.0,0.0,0.0,0.0,0.0,0.0,0.0,0.0,0.0,0.0,0.0,0.0,0.0,0.0,0.0,0.0,0.0,0.0,0.0,0.0,0.0,0.0,0.0,0.0,0.0,0.0,0.0,0.0,0.0,0.0,0.0,0.0,0.0,0.0,0.0,0.0,0.0,0.0,0.0,0.0,0.0,0.0,0.0,0.0,0.0,0.0,0.0,0.0,0.0,0.0,0.0,0.0,0.0,0.0,0.0,0.0,0.0,0.0,0.0,0.0,0.0,0.0,0.0,0.0,0.0,0.0,0.0,0.0,0.0,0.0,0.0,0.0,0.0,0.0,0.0,0.0,0.0,0.0,0.0,0.0,0.0,0.0,0.0,0.0,0.0,0.0,0.0,0.0,0.0,0.0,0.0,0.0,0.0,0.0,0.0,0.0,0.0,0.0,0.0,0.0,0.0,0.0,0.0,0.0,0.0,0.0,0.0,0.0,0.0,0.0,0.0,0.0,0.0,0.0,0.0,0.0,0.0,0.0,0.0,0.0,0.0,0.0,0.0,0.0,0.0,0.0,0.0,0.0,0.0,0.0,0.0,0.0,0.0,0.0,0.0,0.0,0.0,0.0,0.0,0.0,0.0,0.0,0.0,0.0,0.0,0.0,0.0,0.0,0.0,0.0,0.0,0.0,0.0,0.0,0.0,0.0,0.0,0.0,0.0,0.0,0.0,0.0,0.0,0.0,0.0,0.0,0.0,0.0,0.0,0.0,0.0,0.0,0.0,0.0,0.0,0.0,0.0,0.0,0.0,0.0,0.0,0.0,0.0,0.0,0.0,0.0,0.0,0.0,0.0,0.0,0.0,0.0,0.0,0.0,0.0,0.0,0.0,0.0,0.0,0.0,0.0,0.0,0.0,0.0,0.0,0.0,0.0,0.0,0.0,0.0,0.0,0.0,0.0,0.0,0.0,0.0,0.0,0.0,0.0,0.0,0.0,0.0,0.0,0.0,0.0,0.0,0.0,0.0,0.0,0.0,0.0,0.0,0.0,0.0,0.0,0.0,0.0,0.0,0.0,0.0,0.0,0.0,0.0,0.0,0.0,0.0,0.0,0.0,0.0,0.0,0.0,0.0,0.0,0.0,0.0,0.0,0.0,0.0,0.0,0.0,0.0,0.0,0.0,0.0,0.0,0.0,0.0,0.0,0.0,0.0,0.0,0.0,0.0,0.0,0.0,0.0,0.0,0.0,0.0,0.0,0.0,0.0,0.0,0.0,0.0,0.0,0.0,0.0,0.0,0.0,0.0,0.0,0.0,0.0,0.0,0.0,0.0,0.0,0.0,0.0,0.0,0.0,0.0,0.0,0.0,0.0,0.0,0.0,0.0,0.0,0.0,0.0,0.0,0.0,0.0,0.0,0.0,0.0,0.0,0.0,0.0,0.0,0.0,0.0,0.0,0.0,0.0,0.0,0.0,0.0,0.0,0.0,0.0,0.0,0.0,0.0,0.0,0.0,0.0,0.0,0.0,0.0,0.0,0.0,0.0,0.0,0.0,0.0,0.0,0.0,0.0,0.0,0.0,0.0,0.0,0.0,0.0,0.0,0.0,0.0,0.0,0.0,0.0,0.0,0.0,0.0,0.0,0.0,0.0,0.0,0.0,0.0,0.0,0.0,0.0,0.0,0.0,0.0,0.0,0.0,0.0,0.0,0.0,0.0,0.0,0.0,0.0,0.0,0.0,0.0,0.0,0.0,0.0,0.0,0.0,0.0,0.0,0.0,0.0,0.0,0.0,0.0,0.0,0.0,0.0,0.0,0.0,0.0,0.0,0.0,0.0,0.0,0.0,0.0,0.0,0.0,0.0,0.0,0.0,0.0,0.0,0.0,0.0,0.0,0.0,0.0,0.0,0.0,0.0,0.0,0.0,0.0,0.0,0.0,0.0,0.0,0.0,0.0,0.0,0.0,0.0,0.0,0.0,0.0,0.0,0.0,0.0,0.0,0.0,0.0,0.0,0.0,0.0,0.0,0.0,0.0,0.0,0.0,0.0,0.0,0.0,0.0,0.0,0.0,0.0,0.0,0.0,0.0,0.0,0.0,0.0,0.0,0.0,0.0,0.0,0.0,0.0,0.0,0.0,0.0,0.0,0.0,0.0,0.0,0.0,0.0,0.0,0.0,0.0,0.0,0.0,0.0,0.0,0.0,0.0,0.0,0.0,0.0,0.0,0.0,0.0,0.0,0.0,0.0,0.0,0.0,0.0,0.0,0.0,0.0,0.0,0.0,0.0,0.0,0.0,0.0,0.0,0.0,0.0,0.0,0.0,0.0,0.0,0.0,0.0,0.0,0.0,0.0,0.0,0.0,0.0,0.0,0.0,0.0,0.0,0.0,0.0,0.0,0.0,0.0,0.0,0.0,0.0,0.0,0.0,0.0,0.0,0.0,0.0,0.0,0.0,0.0,0.0,0.0,0.0,0.0,0.0,0.0,0.0,0.0,0.0,0.0,0.0,0.5836,0.3453,0.1423,0.0,0.0,0.0,0.0,0.0,0.0,0.0,0.0,0.0,0.0,0.0,0.0,0.0,0.0,0.0,0.0,0.0,0.0,0.0,0.0,0.0,0.0,0.0,0.0,0.0,0.0,0.0,0.0,0.0,0.0,0.0,0.0,0.0,0.0,0.0,0.0,0.0,0.0,0.0,0.0,0.0,0.0,0.0,0.0,0.0,0.0,0.0,0.0,0.0,0.0,0.0,0.0,0.0,0.0,0.0,0.0,0.0,0.0,0.0,0.0,0.0,0.0,0.0,0.0,0.0,0.0,0.0,0.0,0.0,0.0,0.0,0.0,0.0,0.0,0.0,0.0,0.0,0.0,0.0,0.0,0.0,0.0,0.0,0.0,0.0,0.0,0.0,0.0,0.0,0.0,0.0,0.0,0.0,0.0,0.0,0.0,0.0,0.0,0.0,0.0,0.0,0.0,0.0,0.0,0.0,0.0,0.0,0.0,0.0,0.0,0.7364,0.0,0.929,0.5884,0.3349,0.2043,0.0,0.0,0.0,0.0,0.0,0.0,0.0,0.0,0.0,0.0,0.0,0.0,0.0,0.0,0.0,0.0,0.0,0.0,0.0,0.0,0.0,0.0,0.0,0.0,0.0,0.0,0.0,0.0,0.0,0.0,0.0,0.0,0.0,0.0,0.0,0.0,0.0,0.0,0.0,0.0,0.0,0.0,0.0,0.0,0.0,0.0,0.0,0.0,0.0,0.0,0.0,0.0,0.0,0.0,0.0,0.0,0.0,0.0,0.0,0.0,0.0,0.0,0.0,0.0,0.0,0.0,0.0,0.0,0.0,0.0,0.0,0.0,0.0,0.0,0.0,0.0,0.0,0.0,0.0,0.0,0.0,0.0,0.0,0.0,0.0,0.0,0.0,0.0,0.0,0.0,0.0,0.0,0.0,0.0,0.0,0.0,0.0,0.0,0.0,0.0,0.0,0.0,0.0,0.0,0.0,0.0,0.0,0.0,0.0,0.9581,0.9419,0.856,0.6198,0.5426,0.0,0.0,0.0,0.0,0.0,0.0,0.0,0.0,0.0,0.0,0.0,0.0,0.0,0.0,0.0,0.0,0.0,0.0,0.0,0.0,0.0,0.0,0.0,0.0,0.0,0.0,0.0,0.0,0.0,0.0,0.0,0.0,0.0,0.0,0.0,0.0,0.0,0.0,0.0,0.0,0.0,0.0,0.0,0.0,0.0,0.0,0.0,0.0,0.0,0.0,0.0,0.0,0.0,0.0,0.0,0.0,0.0,0.0,0.0,0.0,0.0,0.0,0.0,0.0,0.0,0.0,0.0,0.0,0.0,0.0,0.0,0.0,0.0,0.0,0.0,0.0,0.0,0.0,0.0,0.0,0.0,0.0,0.0,0.0,0.0,0.0,0.0,0.0,0.0,0.0,0.0,0.0,0.0,0.0,0.0,0.0,0.0,0.0,0.0,0.0,0.0,0.0,0.0,0.0,0.0,0.0,0.0,0.0,0.0,0.6132,0.7986,0.8981,0.8697,0.7493,0.7415,0.0,0.0,0.0,0.0,0.0,0.0,0.0,0.0,0.0,0.0,0.0,0.0,0.0,0.0,0.0,0.0,0.0,0.0,0.0,0.0,0.0,0.0,0.0,0.0,0.0,0.0,0.0,0.0,0.0,0.0,0.0,0.0,0.0,0.0,0.0,0.0,0.0,0.0,0.0,0.0,0.0,0.0,0.0,0.0,0.0,0.0,0.0,0.0,0.0,0.0,0.0,0.0,0.0,0.0,0.0,0.0,0.0,0.0,0.0,0.0,0.0,0.0,0.0,0.0,0.0,0.0,0.0,0.0,0.0,0.0,0.0,0.0,0.0,0.0,0.0,0.0,0.0,0.0,0.0,0.0,0.0,0.0,0.0,0.0,0.0,0.0,0.0,0.0,0.0,0.0,0.0,0.0,0.0,0.0,0.0,0.0,0.0,0.0,0.0,0.0,0.0,0.0,0.0,0.0,0.0,0.0,0.0,0.0,0.0,0.5681,0.0,0.8796,0.0,0.8361,0.8259,0.0,0.0,0.0,0.0,0.0,0.0,0.0,0.0,0.0,0.0,0.0,0.0,0.0,0.0,0.0,0.0,0.0,0.0,0.0,0.0,0.0,0.0,0.0,0.0,0.0,0.0,0.0,0.0,0.0,0.0,0.0,0.0,0.0,0.0,0.0,0.0,0.0,0.0,0.0,0.0,0.0,0.0,0.0,0.0,0.0,0.0,0.0,0.0,0.0,0.0,0.0,0.0,0.0,0.0,0.0,0.0,0.0,0.0,0.0,0.0,0.0,0.0,0.0,0.0,0.0,0.0,0.0,0.0,0.0,0.0,0.0,0.0,0.0,0.0,0.0,0.0,0.0,0.0,0.0,0.0,0.0,0.0,0.0,0.0,0.0,0.0,0.0,0.0,0.0,0.0,0.0,0.0,0.0,0.0,0.0,0.0,0.0,0.0,0.0,0.0,0.0,0.0,0.0,0.0,0.0,0.0,0.0,0.0,0.7971,0.8831,0.9137,0.9089,0.8533,0.8615,0.8072,0.0,0.0,0.0,0.0,0.0,0.0,0.0,0.0,0.0,0.0,0.0,0.0,0.0,0.0,0.0,0.0,0.0,0.0,0.0,0.0,0.0,0.0,0.0,0.0,0.0,0.0,0.0,0.0,0.0,0.0,0.0,0.0,0.0,0.0,0.0,0.0,0.0,0.0,0.0,0.0,0.0,0.0,0.0,0.0,0.0,0.0,0.0,0.0,0.0,0.0,0.0,0.0,0.0,0.0,0.0,0.0,0.0,0.0,0.0,0.0,0.0,0.0,0.0,0.0,0.0,0.0,0.0,0.0,0.0,0.0,0.0,0.0,0.0,0.0,0.0,0.0,0.0,0.0,0.0,0.0,0.0,0.0,0.0,0.0,0.0,0.0,0.0,0.0,0.0,0.0,0.0,0.0,0.0,0.0,0.0,0.0,0.0,0.0,0.0,0.0,0.0,0.0,0.0,0.0,0.0,0.0,0.0,0.0,0.0,0.868,0.8994,0.9239,0.9232,0.8499,0.8045,0.0,0.0,0.0,0.0,0.0,0.0,0.0,0.0,0.0,0.0,0.0,0.0,0.0,0.0,0.0,0.0,0.0,0.0,0.0,0.0,0.0,0.0,0.0,0.0,0.0,0.0,0.0,0.0,0.0,0.0,0.0,0.0,0.0,0.0,0.0,0.0,0.0,0.0,0.0,0.0,0.0,0.0,0.0,0.0,0.0,0.0,0.0,0.0,0.0,0.0,0.0,0.0,0.0,0.0,0.0,0.0,0.0,0.0,0.0,0.0,0.0,0.0,0.0,0.0,0.0,0.0,0.0,0.0,0.0,0.0,0.0,0.0,0.0,0.0,0.0,0.0,0.0,0.0,0.0,0.0,0.0,0.0,0.0,0.0,0.0,0.0,0.0,0.0,0.0,0.0,0.0,0.0,0.0,0.0,0.0,0.0,0.0,0.0,0.0,0.0,0.0,0.0,0.0,0.0,0.0,0.0,0.0,0.0,0.0,0.9171,0.9537,0.972,0.9693,0.8845,0.8206,0.7932,0.0,0.0,0.0,0.0,0.0,0.0,0.0,0.0,0.0,0.0,0.0,0.0,0.0,0.0,0.0,0.0,0.0,0.0,0.0,0.0,0.0,0.0,0.0,0.0,0.0,0.0,0.0,0.0,0.0,0.0,0.0,0.0,0.0,0.0,0.0,0.0,0.0,0.0,0.0,0.0,0.0,0.0,0.0,0.0,0.0,0.0,0.0,0.0,0.0,0.0,0.0,0.0,0.0,0.0,0.0,0.0,0.0,0.0,0.0,0.0,0.0,0.0,0.0,0.0,0.0,0.0,0.0,0.0,0.0,0.0,0.0,0.0,0.0,0.0,0.0,0.0,0.0,0.0,0.0,0.0,0.0,0.0,0.0,0.0,0.0,0.0,0.0,0.0,0.0,0.0,0.0,0.0,0.0,0.0,0.0,0.0,0.0,0.0,0.0,0.0,0.0,0.0,0.0,0.0,0.0,0.0,0.0,0.0,1.031,1.0656,1.0555,0.9971,0.9578,0.8749,0.0,0.0,0.0,0.0,0.0,0.0,0.0,0.0,0.0,0.0,0.0,0.0,0.0,0.0,0.0,0.0,0.0,0.0,0.0,0.0,0.0,0.0,0.0,0.0,0.0,0.0,0.0,0.0,0.0,0.0,0.0,0.0,0.0,0.0,0.0,0.0,0.0,0.0,0.0,0.0,0.0,0.0,0.0,0.0,0.0,0.0,0.0,0.0,0.0,0.0,0.0,0.0,0.0,0.0,0.0,0.0,0.0,0.0,0.0,0.0,0.0,0.0,0.0,0.0,0.0,0.0,0.0,0.0,0.0,0.0,0.0,0.0,0.0,0.0,0.0,0.0,0.0,0.0,0.0,0.0,0.0,0.0,0.0,0.0,0.0,0.0,0.0,0.0,0.0,0.0,0.0,0.0,0.0,0.0,0.0,0.0,0.0,0.0,0.0,0.0,0.0,0.0,0.0,0.0,0.0,0.0,0.0,0.0,0.0,1.0778,1.1708,1.1918,1.1307,1.0168,0.9285,0.0,0.0,0.0,0.0,0.0,0.0,0.0,0.0,0.0,0.0,0.0,0.0,0.0,0.0,0.0,0.0,0.0,0.0,0.0,0.0,0.0,0.0,0.0,0.0,0.0,0.0,0.0,0.0,0.0,0.0,0.0,0.0,0.0,0.0,0.0,0.0,0.0,0.0,0.0,0.0,0.0,0.0,0.0,0.0,0.0,0.0,0.0,0.0,0.0,0.0,0.0,0.0,0.0,0.0,0.0,0.0,0.0,0.0,0.0,0.0,0.0,0.0,0.0,0.0,0.0,0.0,0.0,0.0,0.0,0.0,0.0,0.0,0.0,0.0,0.0,0.0,0.0,0.0,0.0,0.0,0.0,0.0,0.0,0.0,0.0,0.0,0.0,0.0,0.0,0.0,0.0,0.0,0.0,0.0,0.0,0.0,0.0,0.0,0.0,0.0,0.0,0.0,0.0,0.0,0.0,0.0,0.0,0.0,1.0785,1.1504,1.2617,1.303,1.2678,1.1233,1.0049,0.0,0.0,0.0,0.0,0.0,0.0,0.0,0.0,0.0,0.0,0.0,0.0,0.0,0.0,0.0,0.0,0.0,0.0,0.0,0.0,0.0,0.0,0.0,0.0,0.0,0.0,0.0,0.0,0.0,0.0,0.0,0.0,0.0,0.0,0.0,0.0,0.0,0.0,0.0,0.0,0.0,0.0,0.0,0.0,0.0,0.0,0.0,0.0,0.0,0.0,0.0,0.0,0.0,0.0,0.0,0.0,0.0,0.0,0.0,0.0,0.0,0.0,0.0,0.0,0.0,0.0,0.0,0.0,0.0,0.0,0.0,0.0,0.0,0.0,0.0,0.0,0.0,0.0,0.0,0.0,0.0,0.0,0.0,0.0,0.0,0.0,0.0,0.0,0.0,0.0,0.0,0.0,0.0,0.0,0.0,0.0,0.0,0.0,0.0,0.0,0.0,0.0,0.0,0.0,0.0,0.0,0.0,0.0,1.1436,1.2345,1.3342,1.3865,1.3824,1.2406,1.0879,0.0,0.0,0.0,0.0,0.0,0.0,0.0,0.0,0.0,0.0,0.0,0.0,0.0,0.0,0.0,0.0,0.0,0.0,0.0,0.0,0.0,0.0,0.0,0.0,0.0,0.0,0.0,0.0,0.0,0.0,0.0,0.0,0.0,0.0,0.0,0.0,0.0,0.0,0.0,0.0,0.0,0.0,0.0,0.0,0.0,0.0,0.0,0.0,0.0,0.0,0.0,0.0,0.0,0.0,0.0,0.0,0.0,0.0,0.0,0.0,0.0,0.0,0.0,0.0,0.0,0.0,0.0,0.0,0.0,0.0,0.0,0.0,0.0,0.0,0.0,0.0,0.0,0.0,0.0,0.0,0.0,0.0,0.0,0.0,0.0,0.0,0.0,0.0,0.0,0.0,0.0,0.0,0.0,0.0,0.0,0.0,0.0,0.0,0.0,0.0,0.0,0.0,0.0,0.0,0.0,0.0,0.0,0.0,1.1789,1.28,1.3607,1.4021,1.4014,1.2461,1.1497,0.0,0.0,0.0,0.0,0.0,0.0,0.0,0.0,0.0,0.0,0.0,0.0,0.0,0.0,0.0,0.0,0.0,0.0,0.0,0.0,0.0,0.0,0.0,0.0,0.0,0.0,0.0,0.0,0.0,0.0,0.0,0.0,0.0,0.0,0.0,0.0,0.0,0.0,0.0,0.0,0.0,0.0,0.0,0.0,0.0,0.0,0.0,0.0,0.0,0.0,0.0,0.0,0.0,0.0,0.0,0.0,0.0,0.0,0.0,0.0,0.0,0.0,0.0,0.0,0.0,0.0,0.0,0.0,0.0,0.0,0.0,0.0,0.0,0.0,0.0,0.0,0.0,0.0,0.0,0.0,0.0,0.0,0.0,0.0,0.0,0.0,0.0,0.0,0.0,0.0,0.0,0.0,0.0,0.0,0.0,0.0,0.0,0.0,0.0,0.0,0.0,0.0,0.0,0.0,0.0,0.0,0.0,0.0,1.2108,1.3139,1.3831,1.4177,1.4129,1.2929,1.2177,0.0,0.0,0.0,0.0,0.0,0.0,0.0,0.0,0.0,0.0,0.0,0.0,0.0,0.0,0.0,0.0,0.0,0.0,0.0,0.0,0.0,0.0,0.0,0.0,0.0,0.0,0.0,0.0,0.0,0.0,0.0,0.0,0.0,0.0,0.0,0.0,0.0,0.0,0.0,0.0,0.0,0.0,0.0,0.0,0.0,0.0,0.0,0.0,0.0,0.0,0.0,0.0,0.0,0.0,0.0,0.0,0.0,0.0,0.0,0.0,0.0,0.0,0.0,0.0,0.0,0.0,0.0,0.0,0.0,0.0,0.0,0.0,0.0,0.0,0.0,0.0,0.0,0.0,0.0,0.0,0.0,0.0,0.0,0.0,0.0,0.0,0.0,0.0,0.0,0.0,0.0,0.0,0.0,0.0,0.0,0.0,0.0,0.0,0.0,0.0,0.0,0.0,0.0,0.0,0.0,0.0,0.0,1.1246,1.24,1.3532,1.4068,1.4326,1.4285,1.3431,1.2726,1.2296,0.0,0.0,0.0,0.0,0.0,0.0,0.0,0.0,0.0,0.0,0.0,0.0,0.0,0.0,0.0,0.0,0.0,0.0,0.0,0.0,0.0,0.0,0.0,0.0,0.0,0.0,0.0,0.0,0.0,0.0,0.0,0.0,0.0,0.0,0.0,0.0,0.0,0.0,0.0,0.0,0.0,0.0,0.0,0.0,0.0,0.0,0.0,0.0,0.0,0.0,0.0,0.0,0.0,0.0,0.0,0.0,0.0,0.0,0.0,0.0,0.0,0.0,0.0,0.0,0.0,0.0,0.0,0.0,0.0,0.0,0.0,0.0,0.0,0.0,0.0,0.0,0.0,0.0,0.0,0.0,0.0,0.0,0.0,0.0,0.0,0.0,0.0,0.0,0.0,0.0,0.0,0.0,0.0,0.0,0.0,0.0,0.0,0.0,0.0,0.0,0.0,0.0,0.0,0.0,0.0,1.1573,1.166,1.2644,1.4278,1.4428,1.4421,1.4278,1.3431,1.2885,1.2736,0.0,0.0,0.0,0.0,0.0,0.0,0.0,0.0,0.0,0.0,0.0,0.0,0.0,0.0,0.0,0.0,0.0,0.0,0.0,0.0,0.0,0.0,0.0,0.0,0.0,0.0,0.0,0.0,0.0,0.0,0.0,0.0,0.0,0.0,0.0,0.0,0.0,0.0,0.0,0.0,0.0,0.0,0.0,0.0,0.0,0.0,0.0,0.0,0.0,0.0,0.0,0.0,0.0,0.0,0.0,0.0,0.0,0.0,0.0,0.0,0.0,0.0,0.0,0.0,0.0,0.0,0.0,0.0,0.0,0.0,0.0,0.0,0.0,0.0,0.0,0.0,0.0,0.0,0.0,0.0,0.0,0.0,0.0,0.0,0.0,0.0,0.0,0.0,0.0,0.0,0.0,0.0,0.0,0.0,0.0,0.0,0.0,0.0,0.0,0.0,0.0,0.0,0.0,0.0,0.0,1.1028,1.1985,1.3173,1.4455,1.459,1.4523,1.4285,1.3275,1.2442,0.0,0.0,0.0,0.0,0.0,0.0,0.0,0.0,0.0,0.0,0.0,0.0,0.0,0.0,0.0,0.0,0.0,0.0,0.0,0.0,0.0,0.0,0.0,0.0,0.0,0.0,0.0,0.0,0.0,0.0,0.0,0.0,0.0,0.0,0.0,0.0,0.0,0.0,0.0,0.0,0.0,0.0,0.0,0.0,0.0,0.0,0.0,0.0,0.0,0.0,0.0,0.0,0.0,0.0,0.0,0.0,0.0,0.0,0.0,0.0,0.0,0.0,0.0,0.0,0.0,0.0,0.0,0.0,0.0,0.0,0.0,0.0,0.0,0.0,0.0,0.0,0.0,0.0,0.0,0.0,0.0,0.0,0.0,0.0,0.0,0.0,0.0,0.0,0.0,0.0,0.0,0.0,0.0,0.0,0.0,0.0,0.0,0.0,0.0,0.0,0.0,0.0,0.0,0.0,0.0,0.0,1.1054,1.244,1.358,1.4557,1.4719,1.4631,1.4292,1.3159,1.2026,0.0,0.0,0.0,0.0,0.0,0.0,0.0,0.0,0.0,0.0,0.0,0.0,0.0,0.0,0.0,0.0,0.0,0.0,0.0,0.0,0.0,0.0,0.0,0.0,0.0,0.0,0.0,0.0,0.0,0.0,0.0,0.0,0.0,0.0,0.0,0.0,0.0,0.0,0.0,0.0,0.0,0.0,0.0,0.0,0.0,0.0,0.0,0.0,0.0,0.0,0.0,0.0,0.0,0.0,0.0,0.0,0.0,0.0,0.0,0.0,0.0,0.0,0.0,0.0,0.0,0.0,0.0,0.0,0.0,0.0,0.0,0.0,0.0,0.0,0.0,0.0,0.0,0.0,0.0,0.0,0.0,0.0,0.0,0.0,0.0,0.0,0.0,0.0,0.0,0.0,0.0,0.0,0.0,0.0,0.0,0.0,0.0,0.0,0.0,0.0,0.0,0.0,0.0,0.0,0.0,0.0,1.3356,1.2927,1.3478,1.4835,1.4936,1.474,1.4299,1.3261,1.1782,0.0,0.0,0.0,0.0,0.0,0.0,0.0,0.0,0.0,0.0,0.0,0.0,0.0,0.0,0.0,0.0,0.0,0.0,0.0,0.0,0.0,0.0,0.0,0.0,0.0,0.0,0.0,0.0,0.0,0.0,0.0,0.0,0.0,0.0,0.0,0.0,0.0,0.0,0.0,0.0,0.0,0.0,0.0,0.0,0.0,0.0,0.0,0.0,0.0,0.0,0.0,0.0,0.0,0.0,0.0,0.0,0.0,0.0,0.0,0.0,0.0,0.0,0.0,0.0,0.0,0.0,0.0,0.0,0.0,0.0,0.0,0.0,0.0,0.0,0.0,0.0,0.0,0.0,0.0,0.0,0.0,0.0,0.0,0.0,0.0,0.0,0.0,0.0,0.0,0.0,0.0,0.0,0.0,0.0,0.0,0.0,0.0,0.0,0.0,0.0,0.0,0.0,0.0,0.0,0.0,1.151,1.3713,1.3641,1.4007,1.5045,1.5174,1.493,1.4312,1.3119,1.1737,0.0,0.0,0.0,0.0,0.0,0.0,0.0,0.0,0.0,0.0,0.0,0.0,0.0,0.0,0.0,0.0,0.0,0.0,0.0,0.0,0.0,0.0,0.0,0.0,0.0,0.0,0.0,0.0,0.0,0.0,0.0,0.0,0.0,0.0,0.0,0.0,0.0,0.0,0.0,0.0,0.0,0.0,0.0,0.0,0.0,0.0,0.0,0.0,0.0,0.0,0.0,0.0,0.0,0.0,0.0,0.0,0.0,0.0,0.0,0.0,0.0,0.0,0.0,0.0,0.0,0.0,0.0,0.0,0.0,0.0,0.0,0.0,0.0,0.0,0.0,0.0,0.0,0.0,0.0,0.0,0.0,0.0,0.0,0.0,0.0,0.0,0.0,0.0,0.0,0.0,0.0,0.0,0.0,0.0,0.0,0.0,0.0,0.0,0.0,0.0,0.0,0.0,0.0,0.0,0.0,0.0,1.3706,1.3917,1.4455,1.5208,1.535,1.5072,1.436,1.3193,0.0,0.0,0.0,0.0,0.0,0.0,0.0,0.0,0.0,0.0,0.0,0.0,0.0,0.0,0.0,0.0,0.0,0.0,0.0,0.0,0.0,0.0,0.0,0.0,0.0,0.0,0.0,0.0,0.0,0.0,0.0,0.0,0.0,0.0,0.0,0.0,0.0,0.0,0.0,0.0,0.0,0.0,0.0,0.0,0.0,0.0,0.0,0.0,0.0,0.0,0.0,0.0,0.0,0.0,0.0,0.0,0.0,0.0,0.0,0.0,0.0,0.0,0.0,0.0,0.0,0.0,0.0,0.0,0.0,0.0,0.0,0.0,0.0,0.0,0.0,0.0,0.0,0.0,0.0,0.0,0.0,0.0,0.0,0.0,0.0,0.0,0.0,0.0,0.0,0.0,0.0,0.0,0.0,0.0,0.0,0.0,0.0,0.0,0.0,0.0,0.0,0.0,0.0,0.0,0.0,0.0,0.0,1.3706,1.3917,1.4502,1.5357,1.5404,1.512,1.4509,1.3736,1.2427,0.0,0.0,0.0,0.0,0.0,0.0,0.0,0.0,0.0,0.0,0.0,0.0,0.0,0.0,0.0,0.0,0.0,0.0,0.0,0.0,0.0,0.0,0.0,0.0,0.0,0.0,0.0,0.0,0.0,0.0,0.0,0.0,0.0,0.0,0.0,0.0,0.0,0.0,0.0,0.0,0.0,0.0,0.0,0.0,0.0,0.0,0.0,0.0,0.0,0.0,0.0,0.0,0.0,0.0,0.0,0.0,0.0,0.0,0.0,0.0,0.0,0.0,0.0,0.0,0.0,0.0,0.0,0.0,0.0,0.0,0.0,0.0,0.0,0.0,0.0,0.0,0.0,0.0,0.0,0.0,0.0,0.0,0.0,0.0,0.0,0.0,0.0,0.0,0.0,0.0,0.0,0.0,0.0,0.0,0.0,0.0,0.0,0.0,0.0,0.0,0.0,0.0,0.0,0.0,0.0,1.1477,1.3698,1.4016,1.4597,1.5377,1.5499,1.5309,1.4808,1.3892,1.2576,0.0,0.0,0.0,0.0,0.0,0.0,0.0,0.0,0.0,0.0,0.0,0.0,0.0,0.0,0.0,0.0,0.0,0.0,0.0,0.0,0.0,0.0,0.0,0.0,0.0,0.0,0.0,0.0,0.2403,0.4846,0.695,0.0,0.0,0.0,0.0,0.0,0.0,0.0,0.0,0.0,0.0,0.0,0.0,0.0,0.0,0.0,0.0,0.0,0.0,0.0,0.0,0.0,0.0,0.0,0.0,0.0,0.0,0.0,0.0,0.0,0.0,0.0,0.0,0.0,0.0,0.0,0.0,0.0,0.0,0.0,0.0,0.0,0.0,0.0,0.0,0.0,0.0,0.0,0.0,0.0,0.0,0.0,0.0,0.0,0.0,0.0,0.0,0.0,0.0,0.0,0.0,0.0,0.0,0.0,0.0,0.0,0.0,0.0,0.0,0.0,0.0,0.0,0.0,0.0,0.0,1.1641,1.3842,1.4116,1.4726,1.5466,1.5588,1.5445,1.5025,1.4102,1.2847,0.0,0.0,0.0,0.0,0.0,0.0,0.0,0.0,0.0,0.0,0.0,0.0,0.0,0.0,0.0,0.0,0.0,0.0,0.0,0.0,0.0,0.0,0.0,0.0,0.0,0.0,0.0,0.0,0.177,0.3917,0.6278,0.0,0.0,0.0,0.0,0.0,0.0,0.0,0.0,0.0,0.0,0.0,0.0,0.0,0.0,0.0,0.0,0.0,0.0,0.0,0.0,0.0,0.0,0.0,0.0,0.0,0.0,0.0,0.0,0.0,0.0,0.0,0.0,0.0,0.0,0.0,0.0,0.0,0.0,0.0,0.0,0.0,0.0,0.0,0.0,0.0,0.0,0.0,0.0,0.0,0.0,0.0,0.0,0.0,0.0,0.0,0.0,0.0,0.0,0.0,0.0,0.0,0.0,0.0,0.0,0.0,0.0,0.0,0.0,0.0,0.0,0.0,0.0,0.0,0.0,0.0,1.3714,1.4216,1.4869,1.5601,1.5635,1.5493,1.5181,1.4448,1.3342,1.1823,0.0,0.0,0.0,0.0,0.0,0.0,0.0,0.0,0.0,0.0,0.0,0.0,0.0,0.0,0.0,0.0,0.0,0.0,0.0,0.0,0.0,0.0,0.0,0.0,0.0,0.0,0.0653,0.1651,0.3676,0.0,0.0,0.0,0.0,0.0,0.0,0.0,0.0,0.0,0.0,0.0,0.0,0.0,0.0,0.0,0.0,0.0,0.0,0.0,0.0,0.0,0.0,0.0,0.0,0.0,0.0,0.0,0.0,0.0,0.0,0.0,0.0,0.0,0.0,0.0,0.0,0.0,0.0,0.0,0.0,0.0,0.0,0.0,0.0,0.0,0.0,0.0,0.0,0.8913,0.8635,0.0,0.0,0.0,0.0,0.0,0.0,0.0,0.0,0.0,0.0,0.0,2.2462,1.8565,0.0,0.0,0.0,0.0,0.0,0.0,0.0,0.0,0.0,0.0,0.0,0.0,1.2071,1.4043,1.4441,1.4875,1.5608,1.5635,1.5588,1.5479,1.457,1.3513,1.2028,0.0,0.0,0.0,0.0,0.0,0.0,0.0,0.0,0.0,0.0,0.0,0.0,0.0,0.0,0.0,0.0,0.0,0.0,0.0,0.0,0.0,0.0,0.0,0.0,0.0,0.5866,0.0,0.0,0.0,0.0,0.0,0.0,0.0,0.0,0.0,0.0,0.0,0.0,0.0,0.0,0.0,0.0,0.0,0.0,0.0,0.0,0.0,0.0,0.0,0.0,0.0,0.0,0.0,0.0,0.0,0.0,0.0,0.0,0.0,0.0,0.0,0.0,0.0,0.0,0.0,0.0,0.0,0.0,0.0,0.0,0.0,0.0,0.0,0.0,0.0,0.0,0.0,0.0,0.0,1.0416,0.0,0.0,0.0,0.0,0.0,0.0,0.0,0.0,1.4134,1.9905,2.595,2.21,2.0,0.0,1.9209,1.7973,0.0,0.0,0.0,0.0,0.0,0.0,0.0,0.0,1.2033,1.4219,1.4498,1.4848,1.552,1.556,1.5533,1.5466,1.4414,1.3408,1.2492,1.0805,0.953,0.0,0.0,0.0,0.0,0.0,0.0,0.0,0.0,0.0,0.0,0.0,0.0,0.0,0.0,0.0,0.0,0.0,0.0,0.0,0.0,0.0,0.0,0.0,0.6329,0.0,0.0,0.0,0.0,0.0,0.0,0.0,0.0,0.0,0.0292,0.0,0.0,0.0,0.0,0.085,0.3362,0.0,0.0,0.0,0.0,0.0,0.0,0.0,0.0,0.0,0.0,0.0,0.0,0.0,0.0,0.0,0.0,0.0,0.0,0.0,0.0,0.0,0.0,0.0,0.0,0.0,0.0,0.0,0.0,0.0,0.0,0.0,0.0,0.0,0.0,1.5936,1.4935,0.0,1.343,0.0,0.0,0.0,0.0,0.0,0.0,0.0,0.0,1.8026,2.4265,2.7136,2.5746,2.4836,2.4289,2.3968,2.2779,2.065,1.697,0.0,0.0,0.0,0.0,0.0,0.0,1.1733,1.4113,1.4379,1.4794,1.5371,1.5391,1.5316,1.512,1.4021,1.3233,1.2949,1.2151,1.1319,1.0767,0.8763,0.0,0.0,0.0,0.0,0.0,0.0,0.0,0.0,0.0,0.0,0.0,0.0,0.0,0.0,0.0,0.0,0.0,0.0,0.0,0.0,0.5962,0.0,0.0,0.0,0.0,0.0,0.0,0.0,0.0,0.0,0.0,0.1511,0.0,0.0,0.0,0.0,0.0,0.0,0.0,0.0,0.0,0.0,0.0,0.0,0.0,0.0,0.0,0.0,0.0,0.0,0.0,0.0,0.0,0.0,0.0,0.0,0.0,0.0,0.0,0.0,0.0,0.0,0.0,0.0,2.4396,0.0,0.0,0.0,0.0,1.7944,1.7965,1.9411,1.9714,1.9022,1.7745,1.7228,0.0,0.0,0.0,0.0,0.0,0.0,1.4057,1.4246,2.0021,2.4675,2.7889,2.7064,2.644,2.6066,2.5785,2.501,2.3821,2.2519,1.8763,1.3109,0.0,0.0,0.0,0.0,1.1818,1.3819,1.4266,1.4597,1.5086,1.5099,1.4869,1.4401,1.3858,1.3432,1.295,1.255,1.2023,1.1747,1.0458,0.0,0.0,0.0,0.0,0.0,0.0,0.0,0.0,0.0,0.0,0.0,0.0,0.0,0.0,0.0,0.0,0.0,0.0,0.0,0.7282,0.8115,0.8239,0.0,0.0,0.0,0.0,0.0,0.0,0.0,0.0,0.0,0.7816,0.3103,0.0,0.0,0.0,0.8311,1.0489,0.4622,0.0,0.0,0.0,0.0,0.0,0.0,0.0,0.0,0.0,0.0,0.0,0.0,0.0,0.0,0.0,0.0,0.0,0.0,0.0,0.0,0.0,0.0,0.0,0.0,0.0,2.7642,2.5798,2.4289,2.3497,2.3092,2.1382,2.1642,2.3423,2.434,2.3436,2.1223,2.0835,1.8821,1.5749,1.542,0.0,0.0,0.0,1.7652,1.8089,2.2531,2.5924,2.8097,2.7838,2.7455,2.7161,2.6987,2.652,2.5772,2.5237,2.1798,1.5714,0.0,0.0,0.8255,1.0322,1.2192,1.372,1.4173,1.484,1.6132,1.6204,1.5913,1.5451,1.4168,1.3254,1.2999,1.2762,1.243,1.2284,1.1497,1.0279,0.0,0.0,0.0,0.0,0.0,0.0,0.0,0.0,0.0,0.0,0.0,0.5306,0.722,0.0,0.0,0.0,0.81,0.9011,0.8399,0.9026,0.0,0.0,0.0,0.0,0.0,0.0,0.0,0.8745,1.0286,1.1084,1.0593,0.5691,0.1671,0.0143,0.6741,1.1592,1.0822,0.0,0.3267,0.0,0.0,0.0,0.0,0.0,0.0,0.0,0.0,0.0,0.0,0.0,0.0,0.0,0.0,0.0,0.0,0.0,0.0,0.0,0.0,0.0,0.0,0.0,0.0,3.0287,2.978,2.7068,2.6213,2.648,2.546,2.6057,2.7869,2.9216,2.7829,2.4709,2.4232,2.2461,1.9542,1.8528,0.0,0.0,2.1672,2.202,2.1047,2.5426,2.766,2.8122,2.8197,2.8003,2.7736,2.7709,2.7415,2.6867,2.5896,2.3064,1.878,1.7508,1.4318,0.9359,1.1115,1.2762,1.3853,1.4235,1.5794,1.8262,1.81,1.7818,1.745,1.4788,1.326,1.2942,1.2657,1.2525,1.2366,1.1966,1.1141,1.0201,0.0,0.0,0.0,0.0,0.0,0.0,0.0,0.0,0.0,0.0,0.0,0.0,0.0,0.0,0.0,0.7875,0.0,0.8856,0.8967,0.0,0.0,0.0,0.9035,1.1371,1.2144,1.2055,1.0753,0.0,0.0,0.0,0.0,0.4216,0.0469,0.7686,1.279,1.1101,1.0815,0.8571,0.2133,0.0,0.0,0.0,0.0,0.0,0.0,0.0,0.0,0.0,0.0,0.0,0.0,0.0,0.0,0.0,0.0,0.0,0.0,0.0,0.0,0.0,0.0,0.0,3.1183,3.0835,2.9913,2.9232,2.8751,2.7836,2.8082,2.9379,2.9785,2.9259,2.8191,2.7461,2.5539,2.2464,1.9045,1.9384,2.2817,2.3395,2.4413,2.5703,2.7249,2.8144,2.8224,2.8278,2.8096,2.803,2.7802,2.7629,2.7304,2.5225,2.2636,1.9657,1.7573,1.435,1.0191,1.1514,1.2922,1.4189,1.5638,1.7716,2.0308,2.0249,1.9089,1.7238,1.6131,1.4808,1.3116,1.261,1.2366,1.2223,1.2272,1.1667,1.0445,0.8974,0.0,0.0,0.0,0.0,0.0,0.0,0.0,0.0,0.0,0.5796,0.8877,0.0,0.8206,0.0,0.8303,0.9123,0.9321,0.9085,0.0,0.0,0.4503,0.4644,1.0929,1.2122,1.1949,1.0568,1.1234,1.1886,1.2079,0.921,0.5408,0.0967,0.7842,1.3159,1.2756,1.2817,1.1786,0.8225,0.3222,0.0,0.0,0.0,0.0,0.0,0.0,0.0,0.0,0.0,0.0,0.0,0.0,0.0,0.0,0.0,0.0,0.0,0.0,0.0,0.0,0.0,0.0,3.177,3.1583,3.1156,3.0702,3.0247,2.9299,2.9532,3.0314,3.0523,3.0281,2.9633,2.8871,2.7578,2.5924,2.3529,2.3698,2.6104,2.6255,2.6901,2.7735,2.8273,2.8537,2.8537,2.8417,2.835,2.8337,2.8043,2.7896,2.7715,2.5224,2.2687,2.0313,1.7937,1.49,1.174,1.2245,1.3785,1.6286,1.8716,2.0981,2.2568,2.1428,1.9982,1.8482,1.593,1.4072,1.3036,1.2707,1.2178,1.1579,1.1924,1.1496,1.0317,0.9631,0.8848,0.0,0.0,0.0,0.0,0.0,0.0,0.0,0.0,0.0,0.0,0.0,0.8944,0.0,0.93,0.0,0.949,0.943,0.9058,0.8399,0.6779,0.7257,1.1625,1.233,1.2172,1.1275,1.1769,1.2265,1.2379,1.0898,0.8855,0.5897,0.9966,1.3312,1.3383,1.3465,1.1637,0.67,0.2491,0.0,0.0,0.0,0.0,0.0,0.0,0.0,0.0,0.0,0.0,0.0,0.0,0.0,0.0,0.0,0.0,0.0,0.0,0.0,0.0,0.0,0.0,3.2158,3.2104,3.153,3.1303,3.1316,3.0411,3.0465,3.0849,3.1471,3.1131,2.994,2.9066,2.8802,2.9098,2.8736,2.871,2.9045,2.9045,2.867,2.8269,2.8844,2.9045,2.9045,2.8791,2.8657,2.8644,2.835,2.8203,2.819,2.5325,2.2785,2.0837,1.8139,1.5432,1.3237,1.3363,1.5184,1.8779,2.2102,2.4139,2.4913,2.2499,2.0742,1.9779,1.5269,1.2764,1.2805,1.2492,1.1838,1.071,1.0987,1.0871,1.0202,1.0193,0.9603,0.0,0.7678,0.0,0.0,0.0,0.0,0.0,0.0,0.0,0.0,0.8791,0.8937,1.0401,1.0493,1.0277,0.9786,0.9883,0.9869,0.9422,1.1174,1.2514,1.2514,1.2515,1.2477,1.2146,1.2427,1.2562,1.2534,1.2437,1.2569,1.1999,1.2376,1.3077,1.3284,1.3478,1.0414,0.0,0.0,0.0,0.0,0.0,0.0,0.0,0.0,0.0,0.0,0.0,0.0,0.0,0.0,0.0,0.0,0.0,0.0,0.0,0.0,0.0,0.0,0.0,0.0,3.2465,3.2412,3.1824,3.1717,3.1904,3.161,3.1356,3.1142,3.157,3.1232,3.0093,2.8107,2.8,2.9229,2.7231,2.7284,2.9045,2.9045,2.9032,2.8857,2.9032,2.9246,2.9635,2.9192,2.8965,2.8938,2.8657,2.8524,2.8511,2.3869,2.149,2.0803,1.6552,1.4041,0.0,0.0,0.0,0.0,2.2475,2.4802,2.654,2.3939,2.129,1.9233,1.6202,0.0,1.203,1.1557,1.1161,1.0423,0.9823,0.0,0.0,0.0,0.0,0.0,0.0,0.0,0.0,0.0,0.0,0.0,0.9268,0.9792,1.013,1.0088,1.0489,1.1478,1.1185,1.1097,1.1201,1.1226,1.1398,1.173,1.231,1.247,1.2519,1.256,1.2433,1.2454,1.2488,1.2515,1.2556,1.2657,1.2655,1.254,1.2807,1.3117,1.3345,1.3204,0.9943,0.0,0.0,0.3021,0.9761,0.4698,0.0,0.0,0.0,0.0,0.0,0.0,0.0,0.0,0.0,0.0,0.0,0.0,0.0,0.0,0.0,0.0,0.0,0.0,0.0,3.2759,0.0,3.2291,3.2185,0.0,3.1792,3.1784,3.165,3.1719,3.0634,2.8879,2.8603,2.8327,2.8051,2.7925,2.8335,2.9472,2.9472,2.9472,2.9472,2.9472,2.9662,2.988,2.9528,2.9259,2.9245,2.8965,2.8738,2.8419,2.3715,2.1221,2.0887,1.6294,1.3994,1.4022,1.9523,2.2444,2.2189,2.4444,2.6223,2.749,2.3809,2.1177,1.9543,0.0,0.0,0.0,0.0,0.0,0.0,0.0,0.0,0.0,0.0,0.0,1.0154,0.9869,0.9734,0.9815,0.9255,0.9258,1.0003,1.1056,1.1585,1.1385,1.1205,1.1255,1.1977,1.1768,1.1701,1.1777,1.1925,1.2196,1.2429,1.2505,1.258,1.2488,1.2501,1.2501,1.2501,1.2501,1.2501,1.2501,1.2637,1.2641,1.2655,1.1619,1.1593,1.2798,1.1473,0.7394,0.1342,0.4199,0.806,1.1546,0.9672,0.4325,0.0,0.0,0.0,0.0,0.0,0.0,0.0,0.0,0.0,0.0,0.0,0.0,0.0,0.0,0.0,0.0,0.0,0.0,3.3013,3.3026,3.2692,3.2585,3.2599,3.2085,3.1925,3.2064,0.0,0.0,0.0,2.9582,2.9154,2.6837,2.9002,2.9993,2.9993,2.994,2.9913,2.9913,2.9913,2.9913,2.99,2.9673,2.9566,2.9539,2.9259,2.8818,2.7875,2.3753,2.1329,2.026,1.6432,1.4687,1.6095,2.4058,2.7196,2.5224,2.6527,2.733,2.7265,2.3011,2.0271,1.9313,1.4987,1.2013,1.0612,1.0476,1.0816,1.1418,1.1114,1.0932,1.0697,1.1344,1.1401,1.0867,1.09,1.0975,1.1097,1.0835,1.0844,1.1429,1.2079,1.2479,1.2527,1.1994,1.1823,1.2247,1.2216,1.2189,1.2159,1.2427,1.2501,1.2501,1.2501,1.2501,1.2501,1.2501,1.2501,1.2501,1.2501,1.2501,1.2508,1.2664,1.2827,1.2661,1.1318,1.0272,1.226,1.0597,0.6707,0.1842,0.6697,1.2919,1.2795,1.2231,0.9727,0.0,0.0,0.0,0.0,0.0,0.0,0.0,0.0,0.0,0.0,0.0,0.0,0.0,0.0,0.0,0.0,0.0,0.0,3.312,3.3307,3.2772,3.2692,3.2893,3.2599,3.2124,3.1859,3.1784,2.995,2.7582,2.9994,2.9428,2.6923,2.9299,3.0301,3.0287,3.0034,2.9913,0.0,2.9913,2.9913,2.9913,2.9873,2.986,2.9833,2.9566,2.832,2.608,2.3365,2.0673,1.8371,1.5712,1.6418,2.0657,2.5723,2.8308,2.8247,2.7609,2.6298,2.4353,2.1373,1.8717,1.6381,1.3744,1.2121,1.1489,1.1168,1.1497,1.2322,1.2308,1.2071,1.145,1.1776,1.1769,1.1484,1.1606,1.1681,1.1708,1.1817,1.2038,1.2332,1.2406,1.2498,1.2442,1.2429,1.2386,1.2406,1.2413,1.2447,1.2474,1.2488,1.2501,1.2501,1.2501,1.2501,1.2501,1.2501,1.2501,1.2501,1.2501,1.2508,1.2535,1.2745,1.2935,1.3024,1.252,1.2873,1.3098,1.2971,0.8887,0.3333,0.7628,1.2585,1.3016,1.2605,1.1794,1.1412,0.4779,0.0,0.0,0.0,0.0,0.0,0.0,0.0,0.0,0.0,0.0,0.0,0.0,0.0,0.0,0.0,0.0,3.3293,3.3374,3.3133,3.3093,3.3187,3.2906,3.2612,3.2111,3.0458,2.8224,2.5847,2.8032,2.7499,2.5472,2.9014,3.0595,3.0581,3.0448,3.0119,2.9946,3.0154,3.0074,2.9927,2.9913,2.9913,2.99,2.9793,2.836,2.5842,2.3379,2.0705,1.8032,1.5701,1.6939,2.1757,2.6753,2.9163,2.9018,2.8177,2.6787,2.4526,2.1862,1.9317,1.6732,1.4297,1.2888,1.2596,1.2119,1.2119,1.2742,1.2892,1.2771,1.2216,1.2463,1.2456,1.2216,1.2277,1.2284,1.2196,1.2246,1.2393,1.246,1.2705,1.2889,1.2984,1.2718,1.2501,1.2501,1.2501,1.2501,1.2501,1.2501,1.2501,1.2501,1.2501,1.2501,1.2501,1.2501,1.2501,1.2508,1.2576,1.2623,1.2786,1.2986,1.2969,1.3003,1.3166,1.3473,1.341,1.3437,1.2081,0.8518,1.0843,1.2755,1.2936,1.2688,1.254,1.28,0.7518,0.2963,0.0,0.0,0.0,0.0,0.0,0.0,0.0,0.0,0.0,0.0,0.0,0.0,0.0,0.0,0.0,3.3414,3.3414,3.3414,3.3414,3.3387,3.3173,3.2919,3.243,2.9616,2.7169,2.5302,2.6624,2.632,2.4939,2.8918,3.0889,3.0889,3.0822,3.0478,3.0252,3.0448,3.0341,3.0127,3.0114,3.0087,3.002,3.002,2.8385,2.5228,2.3209,2.0743,1.7689,1.5476,1.6907,2.1969,2.7189,2.9593,2.9232,2.8644,2.7025,2.4349,2.2252,1.9788,1.6803,1.4864,1.3641,1.3451,1.2867,1.2822,1.3006,1.3289,1.3275,1.2786,1.2944,1.2951,1.2786,1.2779,1.2732,1.2467,1.2554,1.2621,1.2779,1.2895,1.3123,1.3269,1.291,1.2603,1.2603,1.2617,1.2617,1.2617,1.2454,1.2447,1.2447,1.2447,1.246,1.2447,1.2603,1.2603,1.2617,1.2712,1.2773,1.2931,1.3027,1.2969,1.3024,1.3274,1.3398,1.3363,1.3397,1.341,1.3417,1.339,1.3241,1.2836,1.2602,1.2468,1.2527,0.9946,0.5599,0.0,0.0,0.0,0.0,0.0,0.0,0.0,0.0,0.0,0.0,0.0,0.0,0.0,0.0,0.0,3.3414,3.3414,3.3414,3.3414,3.34,3.3374,3.3187,3.2538,3.0069,2.8579,2.7938,2.785,2.7553,2.771,2.996,3.1183,3.1169,3.0915,3.0782,3.0755,3.0755,3.0728,3.0688,3.0688,3.0568,3.0341,3.0314,2.7755,2.3268,2.2515,2.0042,1.5867,1.4841,1.7183,2.2192,2.7324,2.9833,2.982,2.9259,2.6698,2.2266,2.171,1.9416,1.4597,1.4222,1.3892,1.3452,1.3284,1.3288,1.3308,1.3346,1.3276,1.2942,1.2942,1.2942,1.2942,1.2935,1.2769,1.2582,1.2435,1.2775,1.3269,1.329,1.3311,1.3304,1.2942,1.2915,1.2915,1.2915,1.2895,1.2755,1.2575,1.2556,1.2549,1.2556,1.2589,1.2575,1.2755,1.2915,1.2589,1.2769,1.2895,1.2972,1.3054,1.301,1.3119,1.3315,1.3398,1.337,1.3397,1.3397,1.3363,1.337,1.3205,1.2956,1.2702,1.225,1.2204,1.2188,0.8136,0.0,0.0,0.0,0.0,0.0,0.0,0.0,0.0,0.0,0.0,0.0,0.0,0.0,0.0,0.0,3.3414,3.3414,3.3414,3.3414,3.3414,3.3414,3.3334,3.2815,3.0203,2.9809,3.0796,2.9139,2.8074,2.7972,3.038,3.149,3.1476,3.137,3.1423,3.1275,3.1062,3.1168,3.1232,3.0993,3.0728,3.0621,3.0621,2.8014,2.3138,1.9674,1.7188,1.5272,1.4977,1.7532,2.2414,2.7377,2.9853,2.9913,2.9686,2.7776,2.444,2.2568,1.9369,1.485,1.4163,1.4021,1.3892,1.3743,1.3593,1.3451,1.339,1.3315,1.3227,1.322,1.318,1.3091,1.301,1.2956,1.2795,1.2869,1.2923,1.3415,1.3343,1.3391,1.3391,1.322,1.322,1.32,1.3226,1.2963,1.2963,1.2795,1.2795,1.2963,1.2963,1.2996,1.3078,1.3178,1.299,1.2573,1.2996,1.3166,1.3205,1.3044,1.3105,1.3166,1.3343,1.3404,1.3376,1.3397,1.3397,1.3376,1.3384,1.3233,1.2983,1.2615,1.1481,1.0072,1.1026,0.9496,0.0,0.0,0.0,0.0,0.0,0.0,0.0,0.0,0.0,0.0,0.0,0.0,0.0,0.0,0.0,3.3414,3.3414,3.3414,3.3467,3.3534,3.344,3.3414,3.3187,3.1152,3.1226,3.2762,3.0738,2.9604,2.9393,3.1047,3.1744,3.1677,3.1677,3.1759,3.1584,3.1356,3.145,3.1675,3.1248,3.0982,3.0929,3.0915,2.8248,2.2899,1.7671,1.5181,1.516,1.5224,1.7411,2.1955,2.7099,2.9893,2.9927,2.9913,2.8706,2.6092,2.3365,1.9915,1.5913,1.4653,1.4177,1.4311,1.3987,1.3858,1.3749,1.3539,1.3445,1.3478,1.3464,1.3397,1.3247,1.3146,1.3078,1.3085,1.3173,1.3234,1.3411,1.3342,1.3397,1.3397,1.3397,1.3397,1.3376,1.3207,1.3253,1.3246,1.3119,1.3125,1.3429,1.3471,1.3398,1.3398,1.3526,1.3411,1.2959,1.3264,1.3444,1.3453,1.3234,1.307,1.3077,1.3247,1.3459,1.341,1.3431,1.339,1.3349,1.3404,1.3288,1.2996,1.2708,1.0583,0.7811,0.8384,0.6346,0.0,0.0,0.0,0.0,0.0,0.0,0.0,0.0,0.0,0.0,0.0,0.0,0.0,0.0,0.0,3.3414,3.3427,3.3427,3.3601,3.3841,3.3547,3.3414,3.3414,3.3187,3.3041,3.3013,3.2762,3.2589,3.227,3.2211,3.1944,3.1717,3.1704,3.169,3.165,3.1637,3.1637,3.1637,3.1623,3.1476,3.1223,3.1209,2.8457,2.292,1.7874,1.5181,1.5181,1.5176,1.6949,2.0767,2.6761,2.9927,2.9913,2.9913,2.8796,2.6364,2.3752,2.0913,1.811,1.5727,1.4414,1.4292,1.4325,1.4235,1.4228,1.3926,1.3783,1.3648,1.3634,1.3573,1.3437,1.3403,1.339,1.3403,1.3424,1.3424,1.3417,1.3464,1.3431,1.3485,1.3485,1.3478,1.3417,1.3431,1.3397,1.339,1.3291,1.3311,1.3383,1.3432,1.3439,1.3424,1.393,1.3885,1.3485,1.3532,1.3682,1.3444,1.3224,1.3065,1.3065,1.3231,1.3444,1.3358,1.3318,1.3356,1.3241,1.3336,1.3288,1.301,1.2767,1.0655,0.8027,0.5292,0.0,0.0,0.0,0.0,0.0,0.0,0.0,0.0,0.0,0.0,0.0,0.0,0.0,0.0,0.0,0.0,3.3828,3.3988,3.3988,3.3961,3.3868,3.3761,3.3601,3.3414,3.3414,3.336,3.3267,3.3253,3.3093,3.2812,3.2719,3.2505,3.2225,3.2038,3.1931,3.1713,3.1757,3.1677,3.1677,3.1677,3.1623,3.153,3.1503,2.879,2.3314,1.8002,1.5472,1.5418,1.5334,1.6903,2.0723,2.6616,2.9913,2.9913,2.9913,2.9362,2.8281,2.4635,2.2128,2.0743,1.6798,1.4489,1.4256,1.438,1.4135,1.4035,1.4245,1.4204,1.372,1.3874,1.3861,1.3987,1.398,1.38,1.3441,1.3441,1.3441,1.3441,1.38,1.396,1.3973,1.3621,1.3581,1.368,1.3653,1.3619,1.3688,1.3485,1.3398,1.3631,1.358,1.3546,1.3865,1.4055,1.3926,1.4036,1.4064,1.4002,1.381,1.3566,1.3336,1.3512,1.3851,1.3844,1.3432,1.3325,1.3184,1.32,1.3091,1.2983,1.2834,1.2592,1.1412,0.8939,0.0,0.0,0.0,0.0,0.0,0.0,0.0,0.0,0.0,0.0,0.0,0.0,0.0,0.0,0.0,0.0,0.0,3.4108,3.4416,3.4362,3.4269,3.4148,3.3961,3.3761,3.3561,3.3454,3.3414,3.3414,3.3414,3.3293,3.3133,3.312,3.3013,3.2786,3.2438,3.2225,3.1992,3.1931,3.181,3.1797,3.1717,3.1677,3.146,3.0786,2.7926,2.3718,1.9137,1.6594,1.5615,1.5485,1.7258,2.1496,2.6977,2.9893,3.0167,3.0114,3.01,2.965,2.626,2.4048,2.3272,1.88,1.549,1.4544,1.4315,1.4249,1.4356,1.4563,1.4523,1.4202,1.4142,1.4299,1.4299,1.4292,1.4115,1.3755,1.3748,1.3748,1.3932,1.4299,1.4659,1.4483,1.3932,1.3702,1.3988,1.4143,1.4089,1.4014,1.3767,1.381,1.381,1.3552,1.3633,1.3961,1.4002,1.4125,1.4263,1.4242,1.4215,1.4055,1.384,1.3787,1.3753,1.4098,1.405,1.3777,1.3418,1.3052,1.3207,1.3105,1.3003,1.2742,1.2559,1.0992,0.8543,0.0,0.0,0.0,0.0,0.0,0.0,0.0,0.0,0.0,0.0,0.0,0.0,0.0,0.0,0.0,0.0,0.0,3.4255,3.4696,3.4456,3.4509,3.4603,3.4175,3.3908,3.3814,3.3561,3.344,3.3414,3.3414,3.3387,3.3387,3.336,3.3374,3.324,3.2812,3.2572,3.2519,3.2238,3.2078,3.2051,3.1824,3.169,3.1474,2.8876,2.6253,2.3557,2.0718,1.7966,1.6001,1.5609,1.7821,2.2397,2.7289,3.0278,3.0608,3.0474,3.0488,3.0373,2.8124,2.6806,2.6199,2.1649,1.775,1.5375,1.4666,1.458,1.495,1.5216,1.5056,1.4563,1.4634,1.4524,1.438,1.4346,1.4333,1.4346,1.4367,1.4586,1.4949,1.5084,1.5134,1.4977,1.4216,1.3827,1.4182,1.4531,1.4503,1.4333,1.4202,1.4095,1.3774,1.3693,1.3526,1.3673,1.4027,1.4292,1.4278,1.4251,1.4224,1.415,1.417,1.4183,1.3921,1.4055,1.4215,1.4146,1.3749,1.3318,1.3268,1.3098,1.2809,1.2816,1.2353,1.0056,0.0,0.0,0.0,0.0,0.0,0.0,0.0,0.0,0.0,0.0,0.0,0.0,0.0,0.0,0.0,0.0,0.0,0.0,3.471,3.5044,3.4963,3.4857,3.475,3.4563,3.4282,3.3895,3.3774,3.3614,3.344,3.3414,3.3414,3.3414,3.3414,3.3414,3.3387,3.32,3.304,3.2812,3.2337,3.2291,3.2118,3.1792,3.166,3.1297,2.9048,2.6297,2.3749,2.118,1.8458,1.6468,1.5987,1.8606,2.3405,2.8371,3.1123,3.0768,3.0702,3.0715,3.0624,2.8507,2.7275,2.6708,2.2365,1.9505,1.927,1.6598,1.4897,1.4884,1.5033,1.5133,1.4997,1.4936,1.4909,1.4909,1.4909,1.4909,1.4903,1.4896,1.4889,1.5094,1.5271,1.5285,1.5285,1.4889,1.4651,1.4774,1.4943,1.4915,1.4638,1.4638,1.4482,1.3867,1.3995,1.4041,1.4014,1.4143,1.4278,1.4299,1.4299,1.4272,1.4245,1.4292,1.4272,1.4224,1.4318,1.4263,1.4208,1.3947,1.3652,1.3336,1.3132,1.2829,1.2869,1.2849,1.1635,0.9391,0.0,0.0,0.0,0.0,0.0,0.0,0.0,0.0,0.0,0.0,0.0,0.0,0.0,0.0,0.0,0.0,0.0,3.4937,3.5191,3.5204,3.5097,3.491,3.4817,3.4563,3.4202,3.3975,3.3774,3.3601,3.3454,3.3414,3.3414,3.3414,3.3414,3.3414,3.3414,3.332,3.3106,3.2629,3.239,3.2385,3.1965,3.1806,3.1633,3.0166,2.7384,2.388,2.2312,2.0175,1.797,1.6522,1.8744,2.395,2.9005,3.1421,3.1089,3.1009,3.1009,3.0742,2.9759,2.8888,2.8318,2.3993,2.2349,2.2769,1.8324,1.5435,1.5182,1.5328,1.5247,1.5357,1.5343,1.533,1.5276,1.5262,1.5235,1.5194,1.5147,1.5181,1.5181,1.5181,1.5174,1.5181,1.5181,1.5133,1.5072,1.5231,1.5197,1.4923,1.4909,1.474,1.4448,1.4263,1.4394,1.4278,1.4217,1.4245,1.4272,1.4299,1.4299,1.4299,1.4299,1.4299,1.4285,1.44,1.4156,1.4095,1.4057,1.3871,1.3512,1.3302,1.3193,1.3132,1.3037,1.3068,1.1165,0.0,0.0,0.0,0.0,0.0,0.0,0.0,0.0,0.0,0.0,0.0,0.0,0.0,0.0,0.0,0.0,0.0,3.495,3.5191,3.5204,3.5191,3.5137,3.4923,3.4763,3.4643,3.4215,3.3961,3.3855,3.3614,3.3467,3.3454,3.344,3.3414,3.3414,3.3414,3.34,3.3307,3.3106,3.2946,3.2839,3.2398,3.2144,3.2038,3.1633,2.8776,2.4074,2.3676,2.2516,1.9748,1.8192,1.8866,2.4183,2.918,3.184,3.1786,3.145,3.149,3.1704,3.173,3.154,3.135,2.6487,2.4187,2.3991,1.9191,1.5974,1.6055,1.5509,1.5435,1.5628,1.5635,1.5547,1.5432,1.5425,1.5357,1.5255,1.5255,1.5235,1.5221,1.5221,1.5187,1.5187,1.5181,1.5174,1.516,1.516,1.5167,1.5153,1.5147,1.5065,1.5169,1.478,1.445,1.4336,1.4108,1.4062,1.4299,1.4312,1.4299,1.4299,1.4299,1.4299,1.4292,1.4272,1.4231,1.4041,1.4068,1.416,1.3777,1.3519,1.3403,1.3336,1.3295,1.3157,1.2442,1.0706,0.7799,0.3283,0.0,0.0,0.0,0.0,0.0,0.0,0.0,0.0,0.0,0.0,0.0,0.0,0.0,0.0,3.5124,3.5191,3.5204,3.5204,3.5191,3.511,3.495,3.4763,3.4603,3.4376,3.4175,3.3895,3.3748,3.3734,3.3507,3.3414,3.3414,3.3414,3.3414,3.34,3.3347,3.3173,3.317,3.2821,3.2318,3.2144,3.1845,2.9127,2.4279,2.39,2.2526,2.0166,2.1262,2.2335,2.463,2.9746,3.2122,3.2435,3.2351,3.2198,3.2265,3.2278,3.2318,3.1917,2.712,2.3839,2.2482,1.8465,1.6206,1.6069,1.6021,1.5744,1.5669,1.5856,1.5835,1.5594,1.5574,1.556,1.5328,1.5308,1.5261,1.5167,1.516,1.5107,1.5187,1.5181,1.5181,1.5181,1.5181,1.5181,1.5181,1.5181,1.5153,1.5113,1.4916,1.4746,1.4665,1.4336,1.4236,1.4441,1.4367,1.4319,1.4299,1.4299,1.4299,1.4285,1.4238,1.4197,1.4224,1.4136,1.416,1.4125,1.377,1.3641,1.3498,1.3439,1.326,1.2956,1.2275,1.1758,0.7336,0.0,0.0,0.0,0.0,0.0,0.0,0.0,0.0,0.0,0.0,0.0,0.0,0.0,0.0,3.5204,3.5204,3.5204,3.5204,3.5204,3.5204,3.5097,3.4937,3.4803,3.4683,3.4469,3.4202,3.4002,3.3868,3.3694,3.3534,3.3427,3.3414,3.3414,3.3414,3.34,3.332,3.3332,3.2866,3.2639,3.2478,3.2345,2.9225,2.4949,2.4072,2.3238,2.2238,2.3141,2.4981,2.7639,3.0318,3.2763,3.2803,3.2813,3.2545,3.2545,3.2545,3.2532,3.1529,2.7334,2.3002,1.9402,1.7178,1.6103,1.6186,1.6144,1.611,1.5839,1.6028,1.6,1.5744,1.573,1.571,1.5649,1.5435,1.5401,1.5328,1.5308,1.5234,1.5127,1.5276,1.5269,1.5194,1.5181,1.5181,1.5181,1.5181,1.5181,1.516,1.5217,1.5094,1.4848,1.4699,1.4584,1.4516,1.4441,1.436,1.4312,1.4299,1.4299,1.4285,1.4245,1.4251,1.4265,1.429,1.4208,1.4208,1.398,1.3851,1.3695,1.3485,1.3315,1.2996,1.2834,1.2641,1.0066,0.0,0.0,0.0,0.0,0.0,0.0,0.0,0.0,0.0,0.0,0.0,0.0,0.0,0.0,3.5204,3.5204,3.5204,3.5204,3.5204,3.5204,3.5191,3.5137,3.4937,3.483,3.4736,3.4496,3.4255,3.3975,3.3975,3.3788,3.3534,3.3534,3.344,3.3427,3.3414,3.3387,3.3347,3.3133,3.2973,3.2866,3.2692,2.9357,2.5837,2.47,2.4452,2.4016,2.4052,2.6897,3.0101,3.2324,3.2858,3.3188,3.3016,3.2732,3.2746,3.2746,3.2746,3.1933,2.7424,2.2132,1.8195,1.6132,1.6058,1.611,1.609,1.6062,1.6062,1.6069,1.6008,1.5906,1.5872,1.5832,1.573,1.573,1.5689,1.5669,1.5462,1.5202,1.5274,1.5214,1.5147,1.5242,1.5194,1.5181,1.5181,1.5181,1.5181,1.5174,1.516,1.5113,1.5197,1.4862,1.4706,1.4563,1.4529,1.4263,1.4346,1.4299,1.4299,1.4299,1.4265,1.4278,1.4292,1.4231,1.4373,1.4217,1.4143,1.4208,1.3878,1.3532,1.3322,1.3017,1.2793,1.2266,1.0689,0.0,0.0,0.0,0.0,0.0,0.0,0.0,0.0,0.0,0.0,0.0,0.0,0.0,0.0,3.5204,3.5204,3.5204,3.5204,3.5204,3.5204,3.5204,3.5191,3.5124,3.507,3.503,3.479,3.4616,3.4536,3.4322,3.4175,3.4042,3.3855,3.3668,3.3414,3.3414,3.3414,3.34,3.3307,3.3187,3.3026,3.2919,2.9748,2.6175,2.6132,2.6463,2.4645,2.574,2.8089,3.1309,3.2767,3.3233,3.3287,3.3278,3.3173,3.3173,3.3173,3.2961,3.2337,2.7515,2.2369,1.7858,1.6333,1.6199,1.6065,1.6157,1.6096,1.6083,1.6083,1.6056,1.6035,1.6022,1.6008,1.5988,1.5954,1.5927,1.6021,1.5805,1.5945,1.5801,1.5486,1.5418,1.5337,1.5262,1.5201,1.5181,1.5181,1.5181,1.5181,1.5181,1.5167,1.512,1.5197,1.5046,1.4901,1.4584,1.4276,1.4326,1.4299,1.4299,1.4299,1.4299,1.4299,1.4299,1.4299,1.4299,1.4299,1.4251,1.4129,1.3946,1.3552,1.3322,1.3024,1.2648,1.247,1.0884,0.0,0.0,0.0,0.0,0.0,0.0,0.0,0.0,0.0,0.0,0.0,0.0,0.0,0.0,3.5204,3.5204,3.5204,3.5204,3.5204,3.5204,3.5204,3.5204,3.5204,3.5204,3.5164,3.5017,3.4897,3.4763,3.4589,3.4469,3.4269,3.4015,3.3708,3.3467,3.3414,3.3414,3.3414,3.34,3.332,3.2988,3.1752,2.8801,2.6285,2.6157,2.5903,2.4869,2.654,2.8843,3.1738,3.3049,3.3381,3.3449,3.3479,3.3414,3.3414,3.3414,3.1554,2.9498,2.5491,2.1131,1.7362,1.668,1.6551,1.6415,1.6273,1.6151,1.609,1.6083,1.6083,1.6083,1.6083,1.6083,1.6076,1.6076,1.6042,1.6172,1.6158,1.6076,1.598,1.5856,1.5547,1.5438,1.5337,1.5262,1.5194,1.5181,1.5181,1.5181,1.5181,1.5181,1.5167,1.5113,1.5169,1.5174,1.4672,1.433,1.4394,1.4326,1.4299,1.4299,1.4299,1.4299,1.4299,1.4299,1.4299,1.4299,1.4299,1.4204,1.4,1.3702,1.3275,1.3017,1.2675,1.2609,1.1824,0.8747,0.0,0.0,0.0,0.0,0.0,0.0,0.0,0.0,0.0,0.0,0.0,0.0,0.0,3.5204,3.5204,3.5204,3.5204,3.5204,3.5204,3.5204,3.5204,3.5204,3.5204,3.5204,3.5204,3.5044,3.4883,3.4843,3.4643,3.4336,3.4095,3.3814,3.344,3.3414,3.3414,3.3414,3.34,3.34,3.3,3.0925,2.8043,2.6553,2.5847,2.6552,2.6094,2.7736,3.0107,3.2379,3.313,3.3318,3.3359,3.3307,3.3414,3.3414,3.32,3.095,2.6229,2.3137,2.0206,1.7654,1.6996,1.6934,1.6988,1.6422,1.6273,1.6157,1.609,1.6083,1.6083,1.6083,1.6083,1.6083,1.6083,1.6076,1.6083,1.6076,1.6022,1.6117,1.6028,1.589,1.5527,1.5384,1.5289,1.5201,1.5181,1.5181,1.5181,1.5181,1.5181,1.5181,1.5181,1.5231,1.5046,1.4733,1.441,1.4256,1.4333,1.4312,1.4299,1.4299,1.4299,1.4299,1.4299,1.4299,1.4299,1.4299,1.4109,1.3899,1.3709,1.3281,1.2896,1.2715,1.2204,1.2219,1.0771,0.0,0.0,0.0,0.0,0.0,0.0,0.0,0.0,0.0,0.0,0.0,0.0,0.0,3.5204,3.5204,3.5204,3.5204,3.5204,3.5204,3.5204,3.5204,3.5204,3.5204,3.5204,3.5204,3.5164,3.511,3.5124,3.483,3.4402,3.4175,3.3895,3.348,3.3414,3.3414,3.3414,3.3414,3.3414,3.2585,3.0748,2.8901,2.8495,2.8664,2.7975,2.8808,3.0788,3.2802,3.3001,3.332,3.3307,3.3293,3.3374,3.34,3.3414,3.2384,3.0129,2.5009,2.2131,1.9639,1.7566,1.6931,1.7085,1.6934,1.6988,1.6632,1.6286,1.6164,1.6103,1.6083,1.6083,1.6083,1.6083,1.6083,1.6083,1.6083,1.6083,1.6083,1.6015,1.6131,1.5791,1.5594,1.5377,1.5221,1.5187,1.5181,1.5181,1.5181,1.5181,1.5181,1.5181,1.5167,1.5126,1.5149,1.4638,1.4302,1.4323,1.436,1.4312,1.4299,1.4299,1.4299,1.4299,1.4299,1.4299,1.4299,1.4299,1.4034,1.3919,1.3587,1.3329,1.2807,1.2353,1.1409,1.1546,1.2282,0.0,0.0,0.0,0.0,0.0,0.0,0.0,0.0,0.0,0.0,0.0,0.0,0.0,3.5204,3.5204,3.5204,3.5204,3.5204,3.5204,3.5204,3.5204,3.5204,3.5204,3.5204,3.5204,3.5204,3.5204,3.5204,3.487,3.4416,3.4135,3.3841,3.348,3.3414,3.3414,3.3414,3.3414,3.3414,3.2585,3.0748,2.9319,2.9319,2.9319,2.9319,2.9927,3.1982,3.3414,3.3414,3.3387,3.3414,3.3414,3.3414,3.3414,3.2799,3.1151,2.6842,2.3568,2.0696,1.8424,1.7391,1.6978,1.6951,1.7065,1.6934,1.6783,1.6429,1.6279,1.6157,1.6103,1.6083,1.6083,1.6083,1.6083,1.6083,1.6083,1.6083,1.6083,1.6069,1.6001,1.5859,1.5448,1.5459,1.5262,1.5194,1.5181,1.5181,1.5181,1.5181,1.5181,1.5181,1.5181,1.5133,1.5238,1.4869,1.4504,1.4343,1.4229,1.4326,1.4299,1.4299,1.4299,1.4299,1.4299,1.4299,1.4299,1.4285,1.4277,1.3995,1.3796,1.2612,1.1934,1.1968,1.0857,0.9264,0.934,0.669,0.0,0.0,0.0,0.0,0.0,0.0,0.0,0.0,0.0,0.0,0.0,0.0,3.5204,3.5204,3.5204,3.5204,3.5204,3.5204,3.5204,3.5204,3.5204,3.5204,3.5204,3.5204,3.5204,3.5177,3.507,3.4803,3.4309,3.4028,3.3721,3.3467,3.3414,3.3414,3.3414,3.3414,3.3414,3.3,3.1768,3.0141,3.0343,2.9724,2.9522,3.0748,3.2585,3.3414,3.3414,3.3414,3.3414,3.3414,3.3414,3.32,3.1567,2.7873,2.3981,2.1103,1.8424,1.7188,1.6978,1.6978,1.6978,1.6931,1.7037,1.6907,1.6564,1.6199,1.6051,1.6151,1.6103,1.6083,1.6083,1.6083,1.6083,1.6083,1.6083,1.6083,1.6042,1.5981,1.5866,1.5462,1.5254,1.5303,1.5201,1.5181,1.5181,1.5181,1.5181,1.5181,1.5181,1.5181,1.5181,1.5059,1.4875,1.4544,1.4403,1.4401,1.4312,1.4299,1.4299,1.4299,1.4299,1.4299,1.4299,1.4299,1.4265,1.4338,1.4132,1.4096,1.224,1.009,1.0479,1.0277,0.7675,0.5216,0.0,0.0,0.0,0.0,0.0,0.0,0.0,0.0,0.0,0.0,0.0,0.0,0.0,3.5204,3.5204,3.5204,3.5204,3.5204,3.5204,3.5204,3.5204,3.5204,3.5204,3.5204,3.5191,3.5191,3.5124,3.4897,3.4629,3.4295,3.3975,3.3681,3.344,3.3414,3.3414,3.3414,3.3414,3.3414,3.34,3.3,3.3,3.2183,3.0546,3.0748,3.2384,3.2799,3.3414,3.3414,3.3414,3.3414,3.3414,3.3414,3.2183,2.9724,2.6649,2.3981,2.0895,1.8634,1.6978,1.6978,1.6978,1.6978,1.6965,1.7051,1.6962,1.668,1.6245,1.6132,1.6246,1.6171,1.6083,1.6275,1.6275,1.6062,1.6062,1.6069,1.6076,1.6035,1.5879,1.5737,1.5655,1.5398,1.5235,1.5194,1.5181,1.5181,1.5181,1.5181,1.5181,1.5181,1.5181,1.5181,1.5086,1.4909,1.4618,1.4315,1.4296,1.4299,1.4299,1.4299,1.4299,1.4299,1.4299,1.4299,1.4299,1.4292,1.438,1.427,1.4235,1.2021,0.9192,0.8076,0.0,0.0,0.0,0.0,0.0,0.0,0.0,0.0,0.0,0.0,0.0,0.0,0.0,0.0,0.0,0.0,3.5204,3.5204,3.5204,3.5204,3.5204,3.5204,3.5204,3.5204,3.5204,3.5204,3.5204,3.5191,3.511,3.4937,3.4643,3.4349,3.4055,3.3774,3.3561,3.344,3.3414,3.3414,3.3414,3.3414,3.3414,3.3414,3.3414,3.32,3.2799,3.2585,3.2384,3.3,3.3414,3.3414,3.3414,3.3414,3.3414,3.3414,3.3,3.1151,2.7873,2.5625,2.3156,1.9044,1.7601,1.7188,1.6978,1.6978,1.6978,1.6971,1.6904,1.6836,1.6734,1.6551,1.6402,1.63,1.6164,1.6871,1.784,1.6864,1.6453,1.6015,1.6035,1.6083,1.6035,1.5893,1.571,1.5442,1.5247,1.5289,1.5201,1.5181,1.5181,1.5181,1.5181,1.5181,1.5181,1.5181,1.516,1.5052,1.495,1.4651,1.4342,1.4316,1.4333,1.4299,1.4299,1.4299,1.4299,1.4299,1.4299,1.4299,1.4292,1.4272,1.4345,1.4194,1.1784,0.8748,0.3718,0.0,0.0,0.0,0.0,0.0,0.0,0.0,0.0,0.0,0.0,0.0,0.0,0.0,0.0,0.0,0.0,3.5204,3.5204,3.5204,3.5204,3.5204,3.5204,3.5204,3.5204,3.5204,3.5204,3.5204,3.5191,3.503,3.479,3.4549,3.4295,3.3881,3.3627,3.3494,3.344,3.3414,3.3414,3.3414,3.3414,3.3414,3.3414,3.3414,3.3414,3.3414,3.32,3.32,3.3414,3.3414,3.3414,3.3414,3.3414,3.3414,3.3414,3.2384,2.9724,2.6035,2.4392,2.131,1.8634,1.6978,1.6978,1.6978,1.6978,1.6978,1.6978,1.6971,1.691,1.6815,1.6625,1.6476,1.6354,1.6205,1.784,1.9437,1.9454,1.7642,1.6616,1.6199,1.6076,1.6062,1.594,1.5791,1.5255,1.5294,1.5337,1.5228,1.5181,1.5181,1.5181,1.5181,1.5181,1.5181,1.5181,1.5174,1.5113,1.4997,1.4651,1.451,1.4323,1.4373,1.4312,1.4299,1.4299,1.4299,1.4299,1.4299,1.4299,1.4299,1.4292,1.4245,1.3598,1.1362,0.8629,0.3741,0.0,0.0,0.0,0.0,0.0,0.0,0.0,0.0,0.0,0.0,0.0,0.0,0.0,0.0,0.0,0.0,3.5204,3.5204,3.5204,3.5204,3.5204,3.5204,3.5204,3.5204,3.5204,3.5204,3.5204,3.5177,3.503,3.4776,3.4616,3.4336,3.3868,3.3855,3.3641,3.3467,3.3414,3.3414,3.3414,3.3414,3.3414,3.3414,3.3414,3.3414,3.3414,3.3414,3.3414,3.3414,3.3414,3.3414,3.3414,3.3414,3.3,3.2585,3.1164,2.8495,2.5215,2.2752,2.0079,1.7804,1.6978,1.6978,1.6978,1.6978,1.6978,1.6978,1.6978,1.6951,1.6849,1.6653,1.6503,1.6402,1.6212,1.8053,2.0209,2.1111,2.019,1.7709,1.6076,1.6083,1.6069,1.594,1.5596,1.5255,1.5301,1.5343,1.5242,1.5181,1.5181,1.5181,1.5181,1.5181,1.5181,1.5181,1.5174,1.5153,1.5038,1.4691,1.4537,1.4363,1.4394,1.4326,1.4299,1.4299,1.4299,1.4299,1.4299,1.4299,1.4299,1.4299,1.4129,1.2571,0.9932,0.8281,0.5115,0.0,0.0,0.0,0.0,0.0,0.0,0.0,0.0,0.0,0.0,0.0,0.0,0.0,0.0,0.0,0.0,3.5204,3.5204,3.5204,3.5204,3.5204,3.5204,3.5204,3.5204,3.5204,3.5204,3.5177,3.5177,3.4937,3.4603,3.4456,3.4162,3.3654,3.3601,3.3507,3.3454,3.3414,3.3414,3.3414,3.3414,3.3414,3.3414,3.3414,3.3414,3.3414,3.3414,3.3414,3.3414,3.3414,3.3414,3.3414,3.2986,3.2371,3.095,2.9522,2.7261,2.3156,2.1717,1.9871,1.7398,1.6978,1.6978,1.6978,1.6978,1.6978,1.6978,1.6978,1.6931,1.6842,1.6632,1.6497,1.6402,1.6191,1.7474,1.901,1.9511,1.7931,1.7312,1.6076,1.6076,1.6056,1.594,1.5798,1.5649,1.5499,1.535,1.5215,1.5181,1.5181,1.5181,1.5181,1.5181,1.5181,1.5181,1.5181,1.516,1.5045,1.4903,1.4753,1.4597,1.4455,1.4333,1.4312,1.4299,1.4299,1.4299,1.4299,1.4299,1.4299,1.4319,1.4333,1.1653,0.833,0.6887,0.0,0.0,0.0,0.0,0.0,0.0,0.0,0.0,0.0,0.0,0.0,0.0,0.0,0.0,0.0,0.0,0.0,3.5204,3.5204,3.5204,3.5204,3.5204,3.5204,3.5137,3.507,3.5044,3.499,3.495,3.499,3.4736,3.4336,3.4282,3.3988,3.3614,3.3534,3.3494,3.3454,3.3414,3.3414,3.3414,3.3414,3.3414,3.3414,3.3414,3.3414,3.3414,3.3414,3.3414,3.3414,3.3414,3.3414,3.2986,3.1491,3.0472,2.951,2.7057,2.5625,2.131,2.0071,1.9253,1.7188,1.6978,1.6978,1.6978,1.6978,1.6978,1.6978,1.6965,1.6897,1.6761,1.6605,1.6456,1.6313,1.6378,1.6672,1.784,1.6821,1.6404,1.6151,1.6199,1.6206,1.5995,1.592,1.5798,1.5649,1.5499,1.535,1.5208,1.5181,1.5181,1.5181,1.5181,1.5181,1.5181,1.5181,1.5181,1.5174,1.5059,1.497,1.4726,1.457,1.4428,1.4319,1.4312,1.4299,1.4299,1.4299,1.4299,1.4299,1.4299,1.4326,1.4169,0.9136,0.4671,0.4142,0.0,0.0,0.0,0.0,0.0,0.0,0.0,0.0,0.0,0.0,0.0,0.0,0.0,0.0,0.0,0.0,0.0,3.5204,3.5204,3.5204,3.5191,3.5164,3.5191,3.503,3.483,3.4568,3.4448,3.4523,3.4696,3.4496,3.4095,3.4162,3.3908,3.3574,3.3654,3.3654,3.3454,3.3414,3.3414,3.3414,3.3414,3.3414,3.3414,3.3414,3.3414,3.3414,3.3414,3.3414,3.3414,3.3414,3.3414,3.2973,2.8289,2.7087,2.8054,2.4187,2.2338,2.0279,1.8634,1.7601,1.7188,1.6978,1.6978,1.6978,1.6978,1.6978,1.6978,1.6978,1.689,1.672,1.6592,1.6449,1.6286,1.6157,1.8434,2.2507,1.8686,1.7652,1.8427,1.974,1.8144,1.6707,1.6251,1.6182,1.6036,1.5499,1.535,1.5248,1.5181,1.5181,1.5181,1.5181,1.5181,1.5181,1.5181,1.5181,1.5181,1.5153,1.5065,1.4767,1.4523,1.438,1.4299,1.4299,1.4299,1.4299,1.4299,1.4299,1.4299,1.4299,1.4333,1.2863,0.5242,0.1036,0.0,0.0,0.0,0.0,0.0,0.0,0.0,0.0,0.0,0.0,0.0,0.0,0.0,0.0,0.0,0.0,0.0,0.0,3.5204,3.5204,3.5204,3.5084,3.4923,3.4897,3.483,3.4776,3.475,3.4683,3.4643,3.4736,3.4442,3.4082,3.3921,3.3801,3.3521,3.3467,3.3454,3.3427,3.3414,3.3414,3.3414,3.3414,3.3414,3.3414,3.3414,3.3414,3.3414,3.3414,3.3414,3.3414,3.3414,3.3414,3.3187,3.085,3.0081,2.7046,2.4392,2.2338,1.8843,1.7601,1.6978,1.6978,1.6978,1.6978,1.6978,1.6978,1.6978,1.6978,1.6978,1.6863,1.6673,1.6524,1.6408,1.6232,1.6289,1.8631,2.2283,2.2208,2.3411,2.4688,2.4977,2.1949,1.7697,1.8622,1.792,1.6222,1.5486,1.533,1.5221,1.5187,1.5181,1.5181,1.5181,1.5181,1.5181,1.5181,1.5181,1.5181,1.5167,1.5018,1.4774,1.4509,1.434,1.4299,1.4299,1.4299,1.4299,1.4299,1.4299,1.4299,1.4306,1.434,1.1754,0.4891,0.0,0.0,0.0,0.0,0.0,0.0,0.0,0.0,0.0,0.0,0.0,0.0,0.0,0.0,0.0,0.0,0.0,0.0,0.0,3.4897,3.491,3.5004,3.4883,3.4656,3.4696,3.4435,3.4482,3.4456,3.4416,3.4322,3.4376,3.4175,3.3828,3.3708,3.3654,3.3414,3.3414,3.3414,3.3414,3.3414,3.3414,3.3414,3.3414,3.3414,3.3414,3.3414,3.3414,3.3414,3.3414,3.3414,3.3414,3.3414,3.3414,3.3227,3.265,3.0404,2.6691,2.3775,2.131,1.8424,1.6978,1.6978,1.6978,1.6978,1.6978,1.6978,1.6978,1.6978,1.6978,1.6931,1.6829,1.6619,1.6483,1.6368,1.6178,1.8434,2.038,2.2868,2.632,2.7803,3.0291,3.0198,2.4967,1.8427,1.7943,1.7285,1.6194,1.5643,1.5316,1.5208,1.5181,1.5181,1.5181,1.5181,1.5181,1.5181,1.5181,1.5181,1.5181,1.5133,1.497,1.4774,1.4529,1.4306,1.4299,1.4299,1.4299,1.4299,1.4299,1.4299,1.4299,1.4306,1.4333,1.1378,0.5422,0.0,0.0,0.0,0.0,0.0,0.0,0.0,0.0,0.0,0.0,0.0,0.0,0.0,0.0,0.0,0.0,0.0,-0.5712,-1.2849,3.4322,3.4362,3.4629,3.4576,3.4376,3.4509,3.413,3.3462,3.3705,3.3761,3.3507,3.3868,3.3788,3.3494,3.3427,3.3427,3.3414,3.3414,3.3414,3.3414,3.3414,3.3414,3.3414,3.3414,3.3414,3.3414,3.3414,3.3414,3.3414,3.3414,3.3414,3.3414,3.3414,3.3414,3.3467,3.2917,3.0262,2.6271,2.3568,2.0903,1.7804,1.6978,1.6978,1.6978,1.6978,1.6978,1.6978,1.6978,1.6978,1.6971,1.6951,1.6775,1.6625,1.6517,1.6327,1.7355,2.0773,2.2906,2.4463,2.7733,3.0357,3.0985,2.6316,2.1384,1.8535,1.7494,1.7619,1.6529,1.5411,1.5289,1.5181,1.5181,1.5181,1.5181,1.5181,1.5181,1.5181,1.5181,1.5181,1.516,1.512,1.497,1.4719,1.4482,1.4299,1.4299,1.4299,1.4299,1.4299,1.4299,1.4299,1.4299,1.4306,1.4326,1.045,0.5414,0.0,0.0,0.0,0.0,0.0,0.0,0.0,0.0,0.0,0.0,0.0,0.0,0.0,0.0,0.0,0.0,0.0,0.0,-1.3345,3.4322,3.4336,3.4402,3.4282,3.4015,3.3868,3.3801,3.3868,3.3895,3.3814,3.3761,3.3841,3.3681,3.3427,3.3414,3.3414,3.3414,3.3414,3.3414,3.3414,3.3414,3.3414,3.3414,3.3414,3.3414,3.3414,3.3414,3.3414,3.3414,3.3414,3.3414,3.3414,3.3414,3.3414,3.344,3.328,2.9772,2.6681,2.4618,2.1103,1.8222,1.6978,1.6978,1.6978,1.6978,1.6978,1.6978,1.6978,1.6978,1.6978,1.687,1.6493,1.6558,1.6429,1.6266,1.6708,2.0371,2.4074,2.4678,2.8693,3.1264,2.8968,2.3585,1.9053,1.7396,1.8083,1.8769,1.6869,1.5364,1.5228,1.5181,1.5181,1.5181,1.5181,1.5181,1.5181,1.5181,1.5181,1.5174,1.5113,1.5072,1.4869,1.4624,1.4455,1.4299,1.4299,1.4299,1.4299,1.4299,1.4299,1.4299,1.4299,1.4299,1.4306,1.0962,0.0,0.0,0.0,0.0,0.0,0.0,0.0,0.0,0.0,0.0,0.0,0.0,0.0,0.0,-0.4712,0.0,0.0,0.0,0.0,-1.3271,3.3961,3.3975,3.4108,3.4042,3.3841,3.3547,3.3534,3.3681,3.3694,3.3694,3.3708,3.3694,3.3587,3.344,3.3414,3.3414,3.3414,3.3414,3.3414,3.3414,3.3414,3.3414,3.3414,3.3414,3.3414,3.3414,3.3414,3.3414,3.3414,3.3414,3.3414,3.3414,3.3414,3.3414,3.3414,3.3227,3.1857,2.8982,2.5882,2.2149,1.9253,1.6978,1.6978,1.6978,1.6978,1.6978,1.6978,1.6978,1.6978,1.6958,1.6621,1.6473,1.6912,1.735,1.7991,1.8829,2.2516,2.4411,2.5163,2.88,2.8679,2.6005,2.1863,1.9126,1.7344,1.765,1.7173,1.6088,1.5513,1.5181,1.5181,1.5181,1.5181,1.5181,1.5181,1.5181,1.5181,1.5181,1.5133,1.5065,1.4923,1.4544,1.4543,1.4387,1.4306,1.4299,1.4299,1.4299,1.4299,1.4299,1.4299,1.4299,1.4285,1.4095,1.057,0.0,0.0,0.0,0.0,0.0,0.0,0.0,0.0,0.0,0.0,0.0,0.0,0.0,-0.1515,-0.5552,-0.9254,0.0,0.0,0.0,-1.3019,3.3013,3.3039,3.3316,3.3625,3.3801,3.3521,3.3427,3.3414,3.344,3.3414,3.344,3.3427,3.344,3.3414,3.3414,3.3414,3.3414,3.3414,3.3414,3.3414,3.3414,3.3414,3.3414,3.3414,3.3414,3.3414,3.3414,3.3414,3.3414,3.3414,3.3414,3.3414,3.3414,3.3414,3.3414,3.3414,3.2033,2.9448,2.6303,2.2752,1.9044,1.7398,1.6978,1.6978,1.6978,1.6978,1.6978,1.6978,1.6978,1.6917,1.6809,1.6646,1.743,1.9251,2.0071,2.1566,2.4463,2.5153,2.5902,2.8739,2.659,2.4111,2.0909,1.9162,1.7966,1.6973,1.611,1.5841,1.5289,1.5201,1.5181,1.5181,1.5181,1.5181,1.5181,1.5181,1.5181,1.514,1.5045,1.4957,1.4611,1.4423,1.4475,1.4333,1.4299,1.4299,1.4299,1.4299,1.4299,1.4299,1.4292,1.4292,1.4251,1.3846,1.1597,0.0,0.0,0.0,0.0,0.0,0.0,0.0,0.0,0.0,0.0,0.0,0.0,0.0,-0.4712,-0.7741,-1.0931,-1.2567,-1.3217,-1.2886,-1.2814,3.0343,3.0343,3.0416,3.1478,3.332,3.344,3.3414,3.3414,3.3414,3.3414,3.3414,3.3414,3.3414,3.3414,3.3414,3.3414,3.3414,3.3414,3.3414,3.3414,3.3414,3.3414,3.3414,3.3414,3.3414,3.3414,3.3414,3.3414,3.3414,3.3414,3.3414,3.3414,3.3414,3.3414,3.3414,3.3414,3.2021,2.9436,2.6497,2.3775,2.0696,1.8013,1.6978,1.6978,1.6978,1.6978,1.6978,1.6978,1.691,1.7023,1.6659,1.6449,1.6398,1.9487,2.0611,2.1156,2.4851,2.5935,2.6704,2.8752,2.8703,2.7198,2.4726,2.021,1.7604,1.6245,1.5629,1.5371,1.5303,1.5228,1.5181,1.5181,1.5181,1.5181,1.5181,1.5181,1.5174,1.5072,1.497,1.4808,1.447,1.435,1.4401,1.434,1.4312,1.4299,1.4299,1.4299,1.4299,1.4299,1.4285,1.4265,1.4366,1.3585,1.1894,0.0,0.0,0.0,0.0,0.0,0.0,0.0,0.0,0.0,0.0,0.0,0.0,0.0,-0.9953,-1.0953,-1.1611,-1.3085,-1.3397,-1.3058,-1.3144,3.1164,3.1164,3.1151,3.1982,3.32,3.3414,3.3414,3.3414,3.3414,3.3414,3.3414,3.3414,3.3414,3.3414,3.3414,3.3414,3.3414,3.3414,3.3414,3.3414,3.3414,3.3414,3.3414,3.3414,3.3414,3.3414,3.3414,3.3414,3.3414,3.3414,3.3414,3.3414,3.3414,3.3414,3.3414,3.3,3.1969,2.9116,2.6444,2.4187,2.2131,1.9454,1.7188,1.6978,1.6978,1.6978,1.6978,1.6971,1.7099,1.6941,1.6762,1.655,1.7348,2.0218,2.1949,2.2906,2.5238,2.7768,2.7996,2.9221,3.1277,2.9098,2.3555,1.7087,1.6474,1.5513,1.5499,1.5255,1.5242,1.5181,1.5181,1.5181,1.5181,1.5181,1.5167,1.516,1.5106,1.5018,1.4855,1.4658,1.4363,1.4303,1.438,1.4319,1.4299,1.4299,1.4299,1.4299,1.4306,1.4285,1.4272,1.4231,1.4325,1.4263,1.3127,0.0,0.0,0.0,0.0,0.0,0.0,0.0,0.0,0.0,0.0,0.0,0.0,0.0,-1.1634,-1.2118,-1.2612,-1.3437,-1.3417,-1.3549,-1.3781,3.2598,3.2799,3.2799,3.3,3.3414,3.3414,3.3414,3.3414,3.3414,3.3414,3.3414,3.3414,3.3414,3.3414,3.3414,3.3414,3.3414,3.3414,3.3414,3.3414,3.3414,3.3414,3.3414,3.3414,3.3414,3.3414,3.3414,3.3414,3.3414,3.3414,3.3414,3.3414,3.3414,3.3414,3.3414,3.3213,3.2384,2.9712,2.7261,2.4804,2.2338,1.9871,1.7804,1.6978,1.6978,1.6978,1.6978,1.6937,1.7085,1.6879,1.6856,1.646,1.6907,1.9372,2.1334,2.2877,2.4851,2.7226,2.8824,2.8992,2.9135,2.6713,1.9217,1.5807,1.5215,1.5201,1.5194,1.5194,1.5181,1.5181,1.5181,1.5181,1.5181,1.516,1.514,1.5106,1.5025,1.493,1.4719,1.4516,1.4462,1.4414,1.4367,1.4306,1.4299,1.4299,1.4299,1.4299,1.4292,1.4258,1.4231,1.4338,1.4249,1.4194,1.396,0.0,0.0,0.0,0.0,0.0,0.0,0.0,0.0,0.0,0.0,0.0,0.0,0.0,-1.1599,-1.2778,-1.3098,-1.3424,-1.3383,-1.3672,-1.4408,3.0141,3.0129,3.0141,3.1365,3.32,3.3414,3.3414,3.3414,3.3414,3.3414,3.3414,3.3414,3.3414,3.3414,3.3414,3.3414,3.3414,3.3414,3.3414,3.3414,3.3414,3.3414,3.3414,3.3414,3.3414,3.3414,3.3414,3.3414,3.3414,3.3414,3.3414,3.3414,3.3414,3.3414,3.3414,3.3,3.1554,2.8664,2.6219,2.3981,1.9871,1.7804,1.7391,1.6978,1.6978,1.6978,1.6951,1.7071,1.6934,1.6946,1.6522,1.6364,1.7062,1.8159,2.0098,2.2051,2.4207,2.4907,2.6252,2.5589,2.4695,2.0891,1.5437,1.5403,1.5201,1.5187,1.5187,1.5187,1.5181,1.5181,1.5181,1.5181,1.5174,1.4939,1.4906,1.4825,1.4745,1.4584,1.457,1.4462,1.4401,1.436,1.4326,1.4299,1.4299,1.4299,1.4306,1.4306,1.3918,1.4055,1.3468,1.4082,1.416,1.4249,0.0,0.0,0.0,0.0,0.0,0.0,0.0,0.0,-0.8773,-0.7409,-0.5373,0.0,0.0,-1.126,-1.1933,-1.3105,-1.3251,-1.3397,-1.3363,-1.3767,-1.4645]}]]